[[[{"header":{"parameterUnit":"kt","parameterCategory":2,"dx":1,"dy":1,"la1":29.587661999999998,"la2":31.0,"lo1":-88.76705300000003,"lo2":-86.6583820000003,"nx":115,"ny":88,"refTime":"2022-09-18T06:00:00:Z","depth":0,"parameterNumber":1,"parameterNumberName":"U-component_of_WINDS"},"data":[-1.1499,-1.0985,-1.0985,-1.0717,-1.0717,-1.0717,-1.0717,-1.0456,-0.9674,-0.9152,-0.8369,-0.7847,-0.7585,-0.8108,-0.6536,-0.5752,-0.4972,-0.3664,-0.314,-0.2617,-0.1309,-0.1047,-0.0523,0.0262,0.0785,0.1309,0.183,0.233,0.3067,0.3583,0.4356,0.5892,0.614,0.7398,0.8683,0.9899,1.0819,1.1457,1.2816,1.4211,1.6006,1.8761,2.188,2.3441,2.4949,2.6348,2.7742,2.8669,2.9362,3.0515,3.2124,3.3952,3.5771,3.7153,3.8306,3.996,4.1078,4.1969,4.2414,4.302,4.3902,4.4532,4.5189,4.5813,4.6901,4.7334,4.8595,4.9667,5.0946,5.2216,5.2674,5.3304,5.3723,5.4521,5.4936,5.5558,5.6177,5.7125,5.7861,5.8137,5.8785,5.8511,5.8348,5.8578,5.9537,6.0206,6.099,6.1339,6.2222,6.3387,6.4653,6.6712,6.8842,7.1345,7.3767,7.4815,7.6099,7.7064,7.8421,8.0192,8.229,8.4416,8.6136,8.7374,8.8667,8.9989,9.0945,9.1817,9.273,9.3621,9.4368,9.5043,9.5457,9.593,9.651,-1.2801,-1.228,-1.2288,-1.202,-1.1491,-1.1491,-1.0978,-1.0456,-1.0456,-0.9935,-0.9146,-0.8369,-0.7847,-0.7063,-0.5495,-0.4972,-0.3925,-0.2617,-0.2094,-0.157,-0.0523,0.0261,0.0784,0.1306,0.2083,0.2864,0.3643,0.4099,0.5031,0.5585,0.6375,0.7143,0.8384,0.9853,1.0665,1.2136,1.3743,1.4364,1.5512,1.6944,1.9462,2.1865,2.4818,2.6636,2.7742,2.8669,2.9824,3.0976,3.2353,3.3519,3.4887,3.6676,3.8029,3.9151,4.0296,4.1187,4.2105,4.2769,4.3211,4.4092,4.4751,4.5377,4.6063,4.6901,4.838,4.9453,5.0946,5.2216,5.3267,5.4141,5.4558,5.4974,5.5182,5.5558,5.5971,5.6383,5.7448,5.8467,5.8704,5.9035,5.921,5.9222,5.9154,5.8912,5.9446,6.0319,6.105,6.1395,6.2223,6.3478,6.5084,6.7092,6.904,7.1322,7.3655,7.5204,7.6456,7.7584,7.8923,8.0519,8.2448,8.4874,8.6728,8.7809,8.9029,9.0475,9.1419,9.2341,9.3114,9.3996,9.4678,9.5164,9.5694,9.6279,9.6853,-1.4101,-1.359,-1.3321,-1.3053,-1.2532,-1.228,-1.202,-1.1759,-1.1238,-1.045,-0.9407,-0.863,-0.7585,-0.6014,-0.4972,-0.4187,-0.2879,-0.157,-0.0784,0.0262,0.1308,0.2082,0.285,0.3613,0.4123,0.4603,0.5359,0.6595,0.7713,0.8269,0.9349,1.1098,1.1571,1.2798,1.4325,1.4679,1.5735,1.6853,1.7979,2.0636,2.429,2.6057,2.8264,2.9382,3.0515,3.1665,3.2833,3.3748,3.4887,3.5998,3.7153,3.8729,3.985,4.0937,4.1632,4.2297,4.3181,4.4092,4.4751,4.5408,4.6498,4.7334,4.8198,4.9059,5.0308,5.2519,5.4012,5.4388,5.5456,5.5866,5.6315,5.6637,5.6881,5.7125,5.7573,5.7816,5.8467,5.9196,5.9345,5.9469,5.9594,5.9785,5.9476,5.9226,5.984,6.075,6.1567,6.191,6.2593,6.3608,6.5595,6.7519,6.9331,7.1485,7.351,7.5184,7.6657,7.815,7.9423,8.1062,8.2764,8.5177,8.7313,8.8322,8.965,9.082,9.1885,9.273,9.3621,9.4368,9.4922,9.5404,9.593,9.651,9.7458,-1.5659,-1.515,-1.4621,-1.4092,-1.3581,-1.3061,-1.2801,-1.2548,-1.1759,-1.045,-0.9146,-0.7847,-0.654,-0.4446,-0.3402,-0.2094,-0.1045,0.0521,0.1562,0.2341,0.3359,0.4099,0.4849,0.5091,0.608,0.6772,0.7728,0.8948,1.0147,1.1396,1.2689,1.4422,1.5143,1.5678,1.724,1.7877,1.8904,2.0225,2.197,2.4938,2.7871,2.9788,3.1382,3.2279,3.3268,3.4636,3.5569,3.6475,3.7353,3.8254,3.8954,3.985,4.0937,4.2297,4.296,4.3401,4.472,4.5813,4.6466,4.7117,4.8414,4.9453,5.0521,5.1582,5.3083,5.5264,5.6694,5.6896,5.7258,5.766,5.8141,5.8344,5.8708,5.8991,5.9315,5.9397,5.9722,5.9917,5.9868,5.9945,6.0106,5.9871,5.952,5.9851,6.0548,6.1143,6.1614,6.2423,6.3102,6.4161,6.6237,6.755,6.9444,7.1305,7.3166,7.4941,7.6793,7.8381,7.9751,8.1595,8.3236,8.5026,8.6728,8.8322,9.0065,9.1285,9.2341,9.3242,9.3996,9.4678,9.5284,9.5694,9.6279,9.6899,9.7938,-1.8239,-1.6697,-1.6438,-1.539,-1.3841,-1.3581,-1.3321,-1.2548,-1.1759,-1.045,-0.8358,-0.6536,-0.4443,-0.2868,-0.1304,0.0,0.1555,0.2833,0.3848,0.4105,0.5342,0.5804,0.6284,0.6777,0.8242,0.9208,1.0147,1.1542,1.2851,1.4071,1.547,1.713,1.7639,1.8698,1.9818,2.0715,2.2284,2.4019,2.6368,2.8688,3.0852,3.2442,3.3543,3.5342,3.645,3.7353,3.828,3.9178,4.0045,4.0491,4.141,4.2518,4.3592,4.4689,4.5781,4.6434,4.7085,4.7949,4.8595,4.9025,5.0521,5.1758,5.3021,5.405,5.5323,5.7211,5.7826,5.8133,5.8841,5.927,5.9548,5.9954,5.9929,6.0014,6.0114,6.0212,6.038,6.0422,6.0451,6.0633,6.0641,6.0333,6.0179,6.0434,6.0959,6.0806,6.1316,6.2423,6.3609,6.4946,6.6464,6.7604,6.946,7.1262,7.3074,7.474,7.6742,7.8701,8.0391,8.2005,8.3955,8.5084,8.6077,8.8261,9.0475,9.1684,9.2858,9.3621,9.4368,9.5043,9.5642,9.6047,9.6672,9.7323,9.8163,-2.0549,-1.9776,-1.9272,-1.8239,-1.6686,-1.539,-1.4101,-1.3061,-1.1499,-0.9674,-0.7581,-0.6006,-0.3903,-0.1551,0.0258,0.2058,0.3833,0.5074,0.6317,0.6817,0.8046,0.822,0.9159,1.0373,1.0822,1.195,1.3093,1.4067,1.4811,1.6269,1.8052,1.926,2.0238,2.153,2.2737,2.4116,2.5943,2.8144,3.0324,3.2168,3.3724,3.5317,3.6651,3.8254,3.8703,3.9822,4.1187,4.141,4.2489,4.3562,4.422,4.5345,4.6434,4.7085,4.7949,4.8743,4.9351,4.9921,5.0558,5.0805,5.2354,5.3538,5.4405,5.6014,5.7631,5.8829,5.9205,5.928,6.0202,6.0663,6.1025,6.1158,6.1146,6.109,6.0957,6.1049,6.092,6.0982,6.1025,6.122,6.1028,6.0766,6.0783,6.1152,6.1238,6.1136,6.1734,6.2802,6.4019,6.5541,6.6701,6.783,6.9677,7.1261,7.2691,7.4345,7.6654,7.861,8.0454,8.2447,8.4511,8.5987,8.7022,8.8748,9.0882,9.2211,9.3368,9.412,9.4735,9.5338,9.5812,9.6243,9.6833,9.7261,9.7456,-2.3105,-2.2606,-2.1863,-2.082,-1.9272,-1.7463,-1.54,-1.3044,-1.0656,-0.8316,-0.6495,-0.4656,-0.1795,0.0255,0.2037,0.4049,0.5777,0.7489,0.8717,0.9673,1.0366,1.1282,1.1958,1.2636,1.3538,1.4649,1.5561,1.6772,1.7259,1.8774,2.0566,2.1552,2.2461,2.3667,2.5496,2.7662,2.9695,3.1479,3.3108,3.4863,3.6224,3.7553,3.9151,4.0491,4.1381,4.271,4.3812,4.447,4.5345,4.6619,4.7485,4.8132,4.9239,4.9881,5.0276,5.0911,5.1394,5.191,5.2531,5.315,5.4267,5.5656,5.665,5.8278,5.9698,6.0739,6.1018,6.0929,6.1109,6.1378,6.1423,6.1878,6.2059,6.201,6.2045,6.1886,6.1542,6.1382,6.1131,6.1174,6.1071,6.0896,6.0852,6.1212,6.1516,6.169,6.2116,6.3181,6.4261,6.5756,6.7076,6.8308,6.9941,7.135,7.2819,7.4344,7.6542,7.8645,8.0591,8.2525,8.447,8.6134,8.7604,8.9231,9.082,9.2277,9.3621,9.4368,9.5098,9.5576,9.5947,9.6408,9.6815,9.6327,9.6291,-2.595,-2.4656,-2.4175,-2.262,-2.0806,-1.9751,-1.6924,-1.2525,-0.9007,-0.6399,-0.4094,-0.1517,0.0754,0.3262,0.4516,0.6255,0.8712,1.0093,1.1037,1.1966,1.2851,1.3021,1.3684,1.4629,1.5809,1.6737,1.7898,1.9329,2.0744,2.176,2.2939,2.4081,2.4601,2.6007,2.8322,3.0557,3.3062,3.4384,3.5771,3.7353,3.8703,3.9822,4.1603,4.2931,4.4031,4.5345,4.637,4.7353,4.8461,4.9496,5.0558,5.1017,5.1686,5.2564,5.2922,5.3556,5.3921,5.4399,5.5147,5.5423,5.6709,5.8363,5.9547,6.0431,6.1284,6.1848,6.2013,6.1873,6.2442,6.2208,6.2114,6.2502,6.311,6.3213,6.3275,6.2923,6.2467,6.2095,6.1629,6.1466,6.1382,6.1304,6.1217,6.1382,6.1725,6.1969,6.2409,6.3354,6.4261,6.5591,6.7238,6.8519,7.0092,7.1533,7.2924,7.4643,7.661,7.8154,8.0199,8.2373,8.3971,8.5743,8.7813,8.9588,9.1088,9.2407,9.3872,9.4735,9.5391,9.5698,9.5916,9.6153,9.585,9.5337,9.5393,-2.8497,-2.748,-2.6477,-2.4672,-2.2848,-2.1132,-1.8251,-1.4125,-0.8885,-0.5044,-0.2269,0.0251,0.274,0.5192,0.6907,0.9104,1.1183,1.2567,1.351,1.468,1.5539,1.6003,1.6939,1.7898,1.8607,1.9551,2.0744,2.1685,2.2609,2.3547,2.4716,2.5882,2.6832,2.89,3.1184,3.3245,3.5317,3.7102,3.8452,3.9822,4.1353,4.2901,4.422,4.575,4.6836,4.7883,4.8855,4.9679,5.0554,5.1619,5.2387,5.3228,5.403,5.4629,5.5306,5.5542,5.6036,5.6535,5.7328,5.7709,5.9372,6.106,6.1699,6.2161,6.2364,6.3124,6.3102,6.3392,6.3945,6.4496,6.5044,6.4042,6.4599,6.5104,6.4867,6.4145,6.3556,6.2951,6.2373,6.2283,6.2313,6.2052,6.1894,6.192,6.2029,6.2374,6.2467,6.3051,6.3874,6.5426,6.7025,6.8784,7.0504,7.1935,7.3508,7.4936,7.6473,7.7832,8.0183,8.2582,8.4223,8.6189,8.8274,9.0276,9.1621,9.2922,9.4244,9.477,9.4952,9.5244,9.5354,9.5063,9.4859,9.4677,9.4681,-3.0019,-2.9531,-2.7989,-2.6073,-2.406,-2.1072,-1.7731,-1.3925,-0.8793,-0.3993,0.0248,0.2962,0.5388,0.7791,1.0186,1.2318,1.4371,1.5529,1.6726,1.791,1.8607,1.9538,2.0244,2.0965,2.167,2.2609,2.3547,2.4249,2.4716,2.633,2.7045,2.7742,2.9593,3.2101,3.4612,3.6651,3.7752,3.9544,4.1102,4.2651,4.4439,4.5936,4.7353,4.8192,4.9009,5.0067,5.0999,5.1664,5.2623,5.4153,5.5069,5.5923,5.685,5.7428,5.7793,5.817,5.8316,5.8605,5.9372,6.0838,6.2162,6.324,6.428,6.4447,6.4515,6.5013,6.5507,6.5785,6.6275,6.6762,6.7457,6.665,6.6488,6.6974,6.664,6.5939,6.53,6.4478,6.3734,6.3614,6.2966,6.2605,6.2089,6.1731,6.223,6.265,6.305,6.3529,6.3992,6.534,6.7025,6.8942,7.0966,7.2483,7.382,7.5212,7.6677,7.7995,7.9958,8.2431,8.4758,8.6769,8.8871,9.1025,9.2277,9.343,9.4042,9.4495,9.4654,9.4287,9.3868,9.3534,9.3385,9.3478,9.3902,-3.1284,-3.0778,-2.8733,-2.6777,-2.4472,-1.9923,-1.5709,-1.1985,-0.7972,-0.2471,0.4153,0.7246,1.0067,1.2217,1.3904,1.5788,1.7885,1.883,1.9773,2.0965,2.189,2.2359,2.3312,2.3998,2.4932,2.5649,2.6562,2.7491,2.8205,2.9342,3.0264,3.1205,3.2994,3.5269,3.7778,4.0018,4.2017,4.3721,4.4971,4.5961,4.7371,4.8763,4.9718,5.0477,5.1364,5.2293,5.3162,5.3928,5.5099,5.6563,5.75,5.8375,5.9536,5.995,6.0422,6.0524,6.0479,6.0919,6.1535,6.4112,6.5541,6.6376,6.6762,6.6923,6.7457,6.7778,6.8045,6.7994,6.8311,6.8785,6.9099,6.8942,6.8942,6.8942,6.8522,6.7933,6.745,6.6791,6.5691,6.5181,6.4204,6.3368,6.2501,6.2014,6.2833,6.3373,6.3708,6.3987,6.4156,6.5538,6.7238,6.9204,7.1218,7.2877,7.455,7.59,7.7002,7.807,7.9845,8.2108,8.4537,8.7111,8.9564,9.1631,9.2857,9.3405,9.3939,9.4205,9.3844,9.335,9.2689,9.2247,9.2119,9.2347,9.3341,-3.263,-3.1863,-2.9351,-2.7032,-2.4327,-1.8955,-1.4249,-1.0066,-0.4629,0.2172,0.9376,1.197,1.4559,1.6218,1.7873,1.9524,2.1185,2.189,2.3062,2.4232,2.5399,2.633,2.7491,2.8417,2.888,3.0034,3.0494,3.0473,3.1184,3.233,3.345,3.5018,3.7501,3.9935,4.243,4.4128,4.5865,4.722,4.8286,4.9647,4.9737,5.1537,5.2524,5.281,5.4123,5.5219,5.5712,5.6515,5.7619,5.8699,5.9712,6.0564,6.1358,6.1792,6.2175,6.2161,6.2192,6.2441,6.3896,6.6062,6.8363,6.9047,6.9309,6.9465,6.9621,6.9777,6.9932,7.0034,7.0087,7.0497,7.1717,7.1109,7.0804,7.1565,7.1164,7.0497,7.0034,6.9465,6.8311,6.7194,6.6099,6.5272,6.4478,6.3876,6.4462,6.4768,6.4649,6.4211,6.4745,6.579,6.7457,6.9518,7.1674,7.347,7.5329,7.6547,7.7912,7.8831,8.018,8.2451,8.4804,8.7539,9.0038,9.1513,9.2516,9.3175,9.3282,9.3088,9.2761,9.2384,9.1928,9.1365,9.1393,9.2319,9.3164,-3.3535,-3.235,-2.995,-2.6938,-2.3668,-1.7197,-1.1845,-0.7004,-0.0719,0.5965,1.2421,1.6443,1.9275,2.1156,2.2796,2.4198,2.5864,2.5864,2.7008,2.8186,2.9111,3.0013,3.1162,3.2079,3.2994,3.3678,3.4361,3.4588,3.4815,3.64,3.7302,3.9907,4.369,4.5655,4.6792,4.7912,4.9508,5.0664,5.1996,5.3086,5.3341,5.4905,5.5712,5.562,5.7248,5.7728,5.8233,5.8948,5.9985,6.0776,6.1675,6.2736,6.3705,6.4161,6.4613,6.4896,6.5062,6.5507,6.66,6.8522,7.045,7.1065,7.1674,7.1771,7.1771,7.1922,7.1977,7.2128,7.2278,7.2672,7.3708,7.3266,7.3118,7.391,7.391,7.3266,7.2672,7.2073,7.1109,6.9981,6.8785,6.7566,6.6741,6.5939,6.6136,6.6213,6.5227,6.4731,6.5326,6.6376,6.8256,7.0242,7.2278,7.4259,7.6125,7.7382,7.8668,7.971,8.0805,8.2891,8.4977,8.7695,8.9406,9.0848,9.1891,9.2507,9.2577,9.2118,9.1706,9.1459,9.0945,9.0769,9.1481,9.2402,9.391,-3.3746,-3.2739,-3.0391,-2.6911,-2.2359,-1.5217,-0.9048,-0.3344,0.3339,0.9061,1.4775,1.9967,2.4182,2.6507,2.7896,2.9532,3.1184,3.1435,3.1872,3.2537,3.3245,3.4133,3.5042,3.5948,3.6626,3.7527,3.8201,3.8873,3.9767,4.121,4.4411,4.7288,4.8838,5.0067,5.0905,5.1811,5.3238,5.4439,5.5753,5.6822,5.7521,5.8333,5.9047,5.8986,5.9354,5.9985,6.0311,6.105,6.191,6.315,6.3848,6.4798,6.5835,6.6325,6.6812,6.7297,6.7457,6.8363,6.9518,7.0912,7.188,7.2633,7.3378,7.3764,7.391,7.4259,7.455,7.4783,7.4783,7.5071,7.55,7.5643,7.5643,7.6208,7.6291,7.5727,7.53,7.4726,7.3854,7.2766,7.1565,7.0343,6.931,6.931,6.9412,6.9099,6.8259,6.7245,6.7566,6.7618,6.9309,7.1011,7.3025,7.4927,7.6827,7.8338,7.9541,8.07,8.1594,8.3226,8.5168,8.6474,8.8283,8.97,9.1223,9.1801,9.2211,9.1571,9.108,9.0603,9.0655,9.1108,9.1724,9.2567,9.4068,-3.588,-3.5273,-3.1631,-2.7297,-2.2033,-1.4242,-0.7136,-0.0476,0.7379,1.3553,1.8517,2.3449,2.7665,3.0452,3.2514,3.3882,3.4815,3.5042,3.6174,3.7051,3.7752,3.8649,3.9516,4.0213,4.1102,4.1988,4.2401,4.3002,4.438,4.6894,4.9508,5.1788,5.2811,5.3438,5.424,5.5614,5.6768,5.7878,5.9275,5.9893,6.0428,6.1395,6.1861,6.2411,6.2906,6.3488,6.3632,6.3918,6.4632,6.5671,6.6162,6.665,6.7669,6.8308,6.8626,6.8942,6.9571,7.0604,7.2128,7.3081,7.4113,7.484,7.5415,7.5415,7.5984,7.6407,7.6547,7.6769,7.6769,7.7185,7.7735,7.7871,7.8007,7.8143,7.8354,7.8279,7.7948,7.7402,7.6513,7.547,7.4324,7.3007,7.2859,7.271,7.2413,7.2168,7.1262,7.0242,6.9777,6.9309,7.0651,7.2018,7.4,7.5785,7.7598,7.9143,8.0455,8.1413,8.2166,8.3472,8.5333,8.6684,8.7635,8.883,9.0275,9.106,9.1706,9.108,9.0471,9.1114,9.1683,9.1741,9.2331,9.2731,9.4154,-3.8379,-3.7128,-3.3199,-2.8089,-2.2002,-1.327,-0.5224,0.285,1.139,1.8491,2.3649,2.8089,3.1784,3.4993,3.7276,3.8873,3.9544,3.9962,4.0852,4.1709,4.2401,4.3062,4.4378,4.5033,4.5686,4.6555,4.6955,4.7371,4.9195,5.1814,5.3876,5.4753,5.6117,5.6863,5.8173,5.935,6.0283,6.1245,6.2079,6.285,6.3392,6.4084,6.4632,6.5128,6.5622,6.5999,6.6437,6.6812,6.7348,6.783,6.8415,6.8732,6.9414,7.0039,7.0504,7.0658,7.1522,7.2728,7.4259,7.455,7.5128,7.57,7.5984,7.6407,7.7302,7.7578,7.793,7.8007,7.8007,7.8279,7.8683,7.9083,7.9673,8.0066,8.0005,8.0005,8.0005,7.9612,7.9023,7.8159,7.7146,7.6871,7.6535,7.6257,7.5836,7.5128,7.3888,7.3007,7.2318,7.1703,7.2247,7.3483,7.4928,7.6593,7.8429,8.0005,8.1351,8.2475,8.3085,8.4059,8.5719,8.6726,8.7454,8.8491,8.9578,9.0319,9.1012,9.1227,9.1481,9.2139,9.277,9.4128,9.5325,9.5415,9.6106,-4.1131,-3.8676,-3.4791,-2.924,-2.1987,-1.2545,-0.3553,0.5454,1.4919,2.2935,2.855,3.3357,3.6775,3.9489,4.218,4.419,4.5064,4.55,4.5904,4.6706,4.7386,4.7999,4.8754,4.9852,5.0278,5.0416,5.0976,5.2833,5.4399,5.5528,5.6522,5.7541,5.9021,6.0504,6.1154,6.2264,6.3387,6.4232,6.4573,6.5293,6.6437,6.7033,6.7566,6.7886,6.8097,6.8415,6.889,6.9047,6.9257,6.9727,7.0296,7.0912,7.1425,7.2183,7.2633,7.3525,7.4259,7.484,7.4984,7.5272,7.5842,7.6324,7.6407,7.6885,7.7853,7.8533,7.8936,7.8936,7.9276,7.9541,7.9935,8.0196,8.0584,8.1097,8.1667,8.1917,8.1854,8.1289,8.0974,8.0272,8.0272,8.0143,7.9883,7.9491,7.8963,7.7753,7.6513,7.5868,7.5043,7.4214,7.4129,7.4696,7.5813,7.7608,7.938,8.0974,8.2228,8.3447,8.4159,8.487,8.5995,8.691,8.7475,8.8321,8.8972,8.9767,9.0883,9.1801,9.2505,9.3153,9.3862,9.5633,9.7684,9.8308,9.8345,-4.3592,-4.0908,-3.6349,-3.0097,-2.2422,-1.2771,-0.3318,0.6397,1.6775,2.4991,3.149,3.7173,4.1431,4.4316,4.6274,4.8213,5.0203,5.0558,5.1122,5.1891,5.2519,5.2885,5.3169,5.3556,5.3734,5.3553,5.3722,5.5419,5.8401,5.9231,5.9885,6.0613,6.1136,6.2208,6.3383,6.4768,6.5856,6.6802,6.7726,6.8522,6.9309,6.9932,7.0604,7.0966,7.0966,7.0966,7.1119,7.1119,7.1119,7.1272,7.1577,7.188,7.2333,7.2633,7.3525,7.4695,7.5128,7.5415,7.57,7.6183,7.6606,7.7164,7.7578,7.8262,7.8936,7.9336,7.9865,8.0774,8.1286,8.1477,8.1603,8.2228,8.266,8.2905,8.3326,8.3566,8.3326,8.3085,8.2779,8.2901,8.3022,8.2779,8.2226,8.1854,8.0974,7.9753,7.9096,7.8429,7.7084,7.6128,7.5893,7.624,7.7028,7.8704,8.035,8.1979,8.3263,8.4393,8.4972,8.5765,8.6538,8.7185,8.8126,8.8971,8.9456,9.0309,9.1128,9.2192,9.3132,9.4102,9.4939,9.6417,9.8394,9.95,10.045,-4.5345,-4.243,-3.7924,-3.1718,-2.3816,-1.3458,-0.3309,0.7092,1.8142,2.7282,3.4348,4.0456,4.4934,4.7857,4.9717,5.1533,5.3126,5.3974,5.4617,5.562,5.598,5.6098,5.6604,5.6718,5.6821,5.7096,5.7534,5.9487,6.1416,6.1755,6.2094,6.2772,6.3971,6.4798,6.5949,6.7136,6.8256,6.8942,6.9571,7.0194,7.0658,7.0966,7.1425,7.1729,7.188,7.2032,7.2183,7.2183,7.2183,7.2483,7.2783,7.3081,7.3378,7.3876,7.455,7.5758,7.6042,7.6183,7.6606,7.6746,7.7164,7.7853,7.8067,7.8608,7.9469,7.9996,8.0516,8.1413,8.2228,8.272,8.2964,8.3326,8.3805,8.4159,8.434,8.4457,8.4574,8.4574,8.451,8.4677,8.4677,8.4446,8.4212,8.3622,8.2901,8.2289,8.1541,8.0289,7.891,7.8288,7.7796,7.8052,7.8301,8.0051,8.1605,8.308,8.4276,8.5086,8.5877,8.6647,8.7397,8.7712,8.8467,8.9649,9.0586,9.1306,9.2067,9.2638,9.3799,9.4891,9.6087,9.7335,9.922,10.0884,10.2253,-4.6619,-4.3531,-3.9293,-3.3334,-2.5205,-1.4377,-0.3528,0.7271,1.9186,2.9143,3.7203,4.315,4.781,5.1,5.3018,5.4905,5.6616,5.7469,5.7961,5.8722,5.9102,5.9265,5.9885,5.9984,6.0733,6.1741,6.2374,6.2859,6.344,6.3416,6.428,6.5013,6.6275,6.7297,6.8097,6.9414,7.0039,7.0658,7.102,7.1326,7.1631,7.1783,7.1935,7.2183,7.2183,7.2333,7.2483,7.2633,7.2633,7.3136,7.3729,7.3967,7.3967,7.4259,7.4984,7.5758,7.6042,7.6324,7.6746,7.7025,7.7578,7.8067,7.8473,7.901,7.9804,8.0387,8.0969,8.1729,8.2475,8.3085,8.3805,8.4159,8.451,8.4857,8.5151,8.5201,8.5492,8.5605,8.5605,8.6033,8.6099,8.5988,8.554,8.5086,8.4446,8.3741,8.3143,8.2158,8.0671,7.9866,7.9371,7.9431,7.9677,8.11,8.2522,8.3786,8.5022,8.57,8.6318,8.717,8.7993,8.8298,8.9194,9.0517,9.1568,9.2236,9.2649,9.3052,9.4218,9.5744,9.7132,9.8434,10.0592,10.2607,10.4032,-4.7269,-4.422,-3.9935,-3.3538,-2.5437,-1.4846,-0.4212,0.648,1.8876,2.9377,3.7311,4.5111,5.0637,5.4595,5.7137,5.8888,6.0301,6.1184,6.1877,6.2604,6.2966,6.2957,6.2896,6.3415,6.4396,6.6336,6.6263,6.665,6.6762,6.7245,6.6923,6.7406,6.8256,6.8784,6.9257,7.0247,7.102,7.1577,7.1935,7.2237,7.2538,7.2538,7.2538,7.2689,7.2689,7.2689,7.2633,7.2838,7.2987,7.3136,7.3285,7.3285,7.3433,7.382,7.455,7.455,7.5272,7.5842,7.6266,7.7025,7.7853,7.8608,7.9143,7.9935,8.0584,8.1097,8.1665,8.2104,8.2597,8.3085,8.4223,8.4806,8.5379,8.5605,8.583,8.5877,8.6053,8.5988,8.6495,8.7078,8.6971,8.6863,8.6647,8.6319,8.5877,8.5314,8.4742,8.3839,8.2106,8.0993,8.0316,8.0009,8.0631,8.1925,8.2795,8.3868,8.5458,8.6143,8.6401,8.7593,8.8628,8.8844,8.9348,9.1011,9.2332,9.2812,9.321,9.3597,9.4688,9.6417,9.7858,9.9146,10.1436,10.4221,10.5208,-4.7916,-4.4439,-4.0157,-3.3375,-2.4907,-1.4427,-0.3691,0.7732,2.0116,3.0631,3.9245,4.6944,5.2876,5.733,5.962,6.137,6.2736,6.4002,6.4865,6.5427,6.5719,6.5644,6.537,6.6601,6.7697,6.8412,6.8626,6.8784,6.8942,6.9047,6.9204,6.9414,6.9936,7.0247,7.0557,7.102,7.1631,7.188,7.2183,7.2333,7.2388,7.2237,7.2086,7.2086,7.1935,7.1935,7.2032,7.2183,7.2183,7.2183,7.1729,7.1577,7.2032,7.2728,7.3525,7.3967,7.4695,7.5272,7.5984,7.6885,7.799,7.9143,7.9804,8.0584,8.1224,8.1729,8.2166,8.2475,8.2964,8.3566,8.469,8.5444,8.5605,8.583,8.5942,8.6053,8.6385,8.6821,8.7291,8.7607,8.7541,8.7541,8.7607,8.7185,8.6755,8.6538,8.5923,8.486,8.3245,8.2568,8.1651,8.1231,8.1793,8.2547,8.3239,8.4246,8.5816,8.6152,8.6485,8.7749,8.8746,8.914,8.9639,9.1157,9.2731,9.321,9.3674,9.4048,9.4841,9.6346,9.792,9.9626,10.162,10.4026,10.5504,-4.8032,-4.3539,-3.9021,-3.1906,-2.291,-1.258,-0.1585,1.0047,2.2372,3.2901,4.1539,4.8987,5.4941,5.9627,6.1973,6.3535,6.4896,6.6213,6.6872,6.7355,6.7355,6.7675,6.8522,6.9727,7.0504,7.0504,7.0194,7.0194,7.0349,7.0504,7.0658,7.0866,7.1173,7.1533,7.1479,7.1577,7.188,7.188,7.1783,7.1783,7.1783,7.1479,7.1227,7.102,7.0712,7.0712,7.0812,7.0966,7.0543,6.9807,6.9134,6.8821,6.9584,7.0598,7.1509,7.2415,7.3461,7.4699,7.57,7.6687,7.793,7.9276,7.9935,8.0713,8.1603,8.2104,8.2475,8.2905,8.3447,8.4159,8.5036,8.5444,8.5895,8.6164,8.6164,8.6385,8.6821,8.7131,8.7483,8.7926,8.7961,8.7996,8.8264,8.792,8.7712,8.7607,8.6813,8.5815,8.503,8.4354,8.357,8.274,8.3499,8.4389,8.4825,8.4963,8.5659,8.5737,8.6614,8.7646,8.8382,8.8961,9.0808,9.2075,9.3131,9.3597,9.3974,9.441,9.5124,9.619,9.7468,9.9758,10.203,10.3755,10.5561,-4.6597,-4.1275,-3.5468,-2.7742,-1.8011,-0.7417,0.3556,1.4002,2.6,3.6068,4.4543,5.1854,5.7895,6.2959,6.4798,6.6387,6.7566,6.868,6.8995,6.9309,6.9777,7.0704,7.1674,7.2333,7.2538,7.2538,7.2388,7.2032,7.188,7.1729,7.1729,7.1631,7.1631,7.1783,7.1425,7.1674,7.188,7.162,7.1001,7.0741,7.0741,7.0435,6.9921,6.9613,6.9458,6.9303,6.9254,6.9098,6.7583,6.3711,6.4431,6.5249,6.5805,6.7154,6.8471,6.9876,7.1325,7.293,7.4699,7.6233,7.7598,7.8876,7.9804,8.0455,8.1224,8.2104,8.272,8.2905,8.3686,8.451,8.5086,8.6053,8.6385,8.6604,8.6821,8.7144,8.7408,8.6579,8.6552,8.8198,8.719,8.7458,8.8164,8.8534,8.8229,8.8229,8.7579,8.6799,8.6058,8.5781,8.533,8.4417,8.4876,8.5969,8.5683,8.5396,8.5263,8.5281,8.6125,8.6674,8.7439,8.9815,9.1653,9.299,9.3521,9.3971,9.4339,9.4982,9.5765,9.6755,9.8384,10.0462,10.2605,10.4402,10.5765,-4.4129,-3.7716,-2.9739,-2.0702,-1.08,0.0,1.0638,2.1122,3.1656,4.0872,4.8533,5.5683,6.1146,6.5029,6.7515,6.9309,7.0296,7.1218,7.1522,7.1522,7.1826,7.2633,7.3378,7.3581,7.3433,7.3433,7.2838,7.2483,7.2333,7.2086,7.1631,7.1272,7.1173,7.102,7.0551,6.9914,6.9486,6.9379,6.8692,6.8221,6.8016,6.7615,6.7157,6.6798,6.6129,6.5819,6.5715,6.5508,6.4005,6.179,6.17,6.2325,6.3151,6.4376,6.5844,6.7462,6.904,7.0892,7.3191,7.4887,7.6754,7.8697,7.9804,8.0713,8.1603,8.2351,8.3027,8.3148,8.4041,8.4626,8.5201,8.5877,8.6495,8.6821,8.7357,8.7275,8.6615,8.7022,8.7525,8.7522,8.7854,8.8621,8.88,8.8836,8.8735,8.8735,8.8331,8.7725,8.7256,8.7349,8.7037,8.5803,8.5566,8.5301,8.494,8.4577,8.4412,8.4438,8.5053,8.5277,8.7125,9.0285,9.2045,9.3366,9.3825,9.4338,9.4624,9.5116,9.6186,9.7685,9.9451,10.13,10.3096,10.4917,10.6134,-3.9878,-3.159,-2.2104,-1.198,-0.1076,0.9425,1.9707,2.9474,3.8711,4.6623,5.3277,5.9634,6.4153,6.7245,6.9777,7.137,7.2032,7.2838,7.3285,7.3285,7.3229,7.3673,7.4113,7.4023,7.3729,7.3581,7.2987,7.2633,7.2483,7.1649,7.1033,7.0228,7.0005,6.9387,6.8619,6.7773,6.7403,6.7093,6.6257,6.5739,6.5288,6.4887,6.4327,6.3817,6.3097,6.2631,6.2269,6.1857,6.0766,5.8329,5.8299,5.9092,5.9936,6.1173,6.2847,6.476,6.6539,6.8617,7.1184,7.3008,7.5054,7.7606,7.8765,8.0289,8.1481,8.2409,8.3148,8.351,8.434,8.5036,8.5428,8.5877,8.6429,8.7144,8.7502,8.7386,8.6452,8.6817,8.6975,8.6435,8.7429,8.8068,8.8515,8.8892,8.9231,8.9133,8.8935,8.85,8.8331,8.8265,8.7257,8.6285,8.5314,8.4743,8.4139,8.3796,8.3584,8.3757,8.3943,8.4334,8.7181,8.9824,9.1574,9.3745,9.4192,9.4553,9.4903,9.5174,9.6966,9.847,10.0179,10.1884,10.3671,10.5224,10.6445,-3.3249,-2.235,-1.2095,-0.0639,1.1334,2.1094,3.0141,3.8846,4.6362,5.2833,5.8195,6.3007,6.6711,6.9361,7.0966,7.188,7.2538,7.3285,7.3581,7.3581,7.382,7.3967,7.4113,7.3967,7.3617,7.3266,7.2914,7.2468,7.1744,7.0624,6.9891,6.8789,6.7837,6.6994,6.6257,6.6197,6.5739,6.5236,6.4831,6.4373,6.3867,6.3307,6.2691,6.2226,6.1395,6.0717,6.0145,5.9254,5.7153,5.3654,5.3679,5.447,5.5692,5.713,5.9278,6.1732,6.3662,6.6041,6.8715,7.0868,7.2731,7.4542,7.6995,7.8686,7.9558,8.1475,8.2953,8.3256,8.4393,8.5379,8.5877,8.6319,8.6755,8.7357,8.7474,8.7221,8.6381,8.4257,8.4137,8.4824,8.5214,8.585,8.7671,8.8967,8.9512,8.962,8.9427,8.9096,8.8892,8.8049,8.7208,8.6097,8.5015,8.4272,8.3579,8.3129,8.3015,8.3095,8.3299,8.4652,8.7189,8.8657,9.0107,9.2758,9.441,9.4764,9.5107,9.538,9.6446,9.8602,10.068,10.2542,10.411,10.5517,10.6683,-2.5574,-1.326,-0.0211,1.2083,2.355,3.2956,4.1235,4.8492,5.3914,5.8458,6.2455,6.5635,6.8097,6.9727,7.1272,7.2032,7.2183,7.3285,7.3433,7.2932,7.3081,7.3229,7.3525,7.3229,7.2451,7.1289,7.0023,6.9199,6.8849,6.8027,6.7069,6.6113,6.5544,6.4831,6.3766,6.2799,6.2291,6.1988,6.098,6.0026,5.9467,5.9162,5.8653,5.8083,5.746,5.6943,5.6267,5.3619,5.136,5.0074,4.9742,5.0512,5.1915,5.3655,5.5658,5.8281,6.0518,6.3075,6.6377,6.8746,7.1059,7.3324,7.5468,7.7091,7.82,8.0166,8.1941,8.2605,8.4111,8.5492,8.5988,8.6319,8.6755,8.7397,8.6704,8.6281,8.6183,8.4948,8.417,8.3946,8.5581,8.6994,8.779,8.8951,8.9934,8.9812,8.9717,8.9484,8.8395,8.7687,8.6122,8.483,8.4241,8.367,8.2939,8.2653,8.2428,8.265,8.2934,8.4876,8.7158,8.8394,8.997,9.269,9.4553,9.4903,9.5431,9.5704,9.6567,9.8577,10.0799,10.2887,10.4905,10.6239,10.6624,-1.8394,-0.4645,1.0192,2.3292,3.47,4.3367,5.0488,5.6398,5.9933,6.3055,6.5572,6.7457,6.8574,6.9571,7.0812,7.1522,7.1468,7.1211,7.1031,7.0679,7.0679,7.0976,7.1124,7.1031,7.0148,6.8889,6.749,6.6674,6.6177,6.5267,6.4162,6.3002,6.2444,6.1683,6.0458,5.956,5.866,5.8256,5.7475,5.653,5.5658,5.5551,5.5086,5.4418,5.3634,5.2234,5.0502,4.744,4.5643,4.5475,4.5306,4.5979,4.7771,4.9411,5.1668,5.4297,5.6793,5.992,6.3205,6.5901,6.8412,7.1196,7.3643,7.5258,7.6657,7.8965,8.0424,8.1257,8.2761,8.4342,8.5204,8.5663,8.5659,8.586,8.5036,8.451,8.4278,8.415,8.3468,8.2699,8.4784,8.6696,8.7199,8.8546,8.9369,8.9182,8.9182,8.8728,8.7404,8.6583,8.5352,8.3867,8.3236,8.2787,8.2512,8.2334,8.2535,8.2951,8.3415,8.4777,8.7187,8.9042,9.0829,9.2834,9.4193,9.5107,9.5686,9.6444,9.7683,9.9412,10.0789,10.295,10.5407,10.6459,10.6565,-1.2064,0.3331,1.9029,3.1941,4.3121,5.1116,5.741,6.127,6.3938,6.5322,6.6355,6.7942,6.8261,6.9047,6.956,7.0082,6.924,6.7192,6.6399,6.6845,6.7182,6.7329,6.753,6.749,6.7182,6.6767,6.6272,6.5477,6.4369,6.2841,6.1482,6.0023,5.8877,5.7979,5.6625,5.6462,5.5812,5.504,5.4885,5.4527,5.3543,5.2957,5.2322,5.1799,4.9983,4.7068,4.295,4.1749,4.0747,4.0052,3.9877,4.0747,4.2265,4.4272,4.6823,4.9772,5.2936,5.6082,5.9274,6.2064,6.4888,6.7674,7.0981,7.3435,7.4883,7.7345,7.9147,7.9665,8.0481,8.1595,8.3527,8.3809,8.3564,8.2837,8.2807,8.2449,8.1847,8.144,8.1122,8.1005,8.2313,8.3717,8.551,8.7288,8.8271,8.809,8.8181,8.7721,8.6277,8.509,8.4077,8.3475,8.2886,8.2361,8.2247,8.221,8.2756,8.3209,8.3718,8.4995,8.7479,8.919,9.0832,9.3264,9.4692,9.5174,9.5748,9.6274,9.7733,9.9901,10.0643,10.2229,10.4538,10.6337,10.6506,-1.8413,0.6435,2.2609,3.6155,4.7369,5.465,5.9325,6.207,6.3436,6.3802,6.3683,6.4213,6.437,6.4526,6.551,6.458,6.2124,6.1947,6.2431,6.3357,6.3868,6.4325,6.4779,6.4476,6.3861,6.2793,6.1938,6.0675,5.8966,5.8271,5.7314,5.6081,5.5598,5.4792,5.37,5.3183,5.271,5.1712,5.1071,5.0427,4.9453,4.8963,4.8471,4.7108,4.3121,3.9461,3.7561,3.6142,3.5219,3.4473,3.4143,3.4473,3.5485,3.8662,4.1815,4.487,4.8429,5.2012,5.5435,5.8826,6.2082,6.4993,6.795,7.0523,7.2167,7.4867,7.6772,7.812,7.9299,8.073,8.1705,8.1227,8.0942,8.1859,8.1343,8.0957,8.118,8.0409,7.9983,8.0352,8.1748,8.3036,8.4121,8.5865,8.6798,8.6759,8.6935,8.6402,8.492,8.4026,8.3544,8.2595,8.2235,8.2269,8.221,8.2756,8.3427,8.3502,8.3861,8.5704,8.7765,8.8904,9.0685,9.3405,9.4831,9.5235,9.5623,9.5994,9.7855,10.0656,10.1474,10.2229,10.4465,10.6202,10.658,-2.7157,-0.2041,1.8635,3.4069,4.4865,5.1482,5.5571,5.779,5.8996,5.8949,5.8385,5.8821,5.9029,5.8707,5.6301,5.4283,5.295,5.4552,5.6095,5.762,5.8346,5.9176,6.0156,6.0002,5.9455,5.841,5.7901,5.6331,5.4372,5.4013,5.3026,5.1915,5.1595,5.091,4.9616,4.9126,4.843,4.7234,4.6736,4.5901,4.5061,4.4554,4.2815,3.9984,3.5754,3.2936,3.1819,3.0383,2.9256,2.847,2.8125,2.794,2.8446,3.1529,3.5277,3.9534,4.4028,4.7937,5.1651,5.5645,5.9264,6.2415,6.5473,6.812,7.0359,7.2704,7.4658,7.5868,7.7407,7.8622,7.9138,7.8662,7.8676,7.9911,7.9694,7.9504,7.9892,7.9581,7.9168,7.9879,8.1005,8.2313,8.3104,8.4385,8.5264,8.5177,8.5351,8.4747,8.3491,8.3161,8.2982,8.2304,8.2358,8.2602,8.2602,8.3353,8.386,8.3861,8.4356,8.5986,8.8118,8.9464,9.0895,9.3616,9.4963,9.5431,9.5495,9.6018,9.7887,10.0276,10.1388,10.2572,10.5689,10.6129,10.652,-3.7426,-2.0523,0.7376,2.5159,3.6542,4.2848,4.7055,4.8706,5.0407,5.0958,5.0325,5.1339,5.1972,5.0412,4.267,4.0566,4.3149,4.5512,4.802,5.0137,5.1305,5.2418,5.3609,5.4124,5.4326,5.4059,5.3543,5.2348,5.0384,4.9899,4.8758,4.7108,4.6902,4.6069,4.4554,4.4216,4.3365,4.1922,4.1577,4.1094,4.0226,3.9353,3.5546,3.0358,2.8358,2.72,2.5756,2.4238,2.2904,2.1962,2.1529,2.1188,2.1377,2.3408,2.7406,3.3553,3.9119,4.3859,4.7733,5.224,5.6449,5.9895,6.3386,6.6641,6.9312,7.1265,7.274,7.3706,7.4847,7.5673,7.6418,7.6692,7.7043,7.7654,7.7659,7.8055,7.8668,7.8763,7.8981,7.9354,7.963,8.0307,8.2134,8.2742,8.2958,8.3269,8.3511,8.3353,8.2279,8.2177,8.2338,8.2507,8.2902,8.3356,8.343,8.3789,8.4072,8.428,8.4766,8.5814,8.823,9.0441,9.1886,9.3462,9.4728,9.5495,9.5495,9.6393,9.8033,9.9249,10.023,10.2414,10.5029,10.5835,10.6459,-4.1841,-2.9076,-1.2343,0.5761,2.2889,2.969,3.323,3.4712,3.6582,3.6954,3.6257,3.7952,3.4178,2.7132,2.6749,2.9149,3.3474,3.7192,4.064,4.3541,4.5745,4.7319,4.8675,4.9165,4.9043,4.8389,4.8019,4.6823,4.5321,4.3896,4.2536,4.1369,4.0643,3.9776,3.8794,3.8234,3.7529,3.632,3.5994,3.5279,3.3811,2.9365,2.511,2.2113,2.0953,1.988,1.8405,1.7227,1.6004,1.5097,1.4913,1.4926,1.5295,1.7488,2.0576,2.4684,3.2427,3.9371,4.4778,4.9243,5.394,5.8437,6.1817,6.4858,6.7864,7.0054,7.1857,7.3418,7.4091,7.4642,7.5355,7.5992,7.6617,7.7127,7.7494,7.7727,7.8313,7.841,7.8602,7.8753,7.8207,7.7924,7.8577,7.9555,8.0463,8.1454,8.2,8.2141,8.1946,8.2039,8.2279,8.2585,8.2819,8.3204,8.3789,8.4072,8.4417,8.4614,8.4883,8.5794,8.7713,8.9563,9.1287,9.3157,9.4706,9.5613,9.5686,9.6055,9.7254,9.8019,9.9763,10.2095,10.4295,10.5542,10.6252,-4.7584,-3.8301,-2.7292,-1.1704,0.5463,1.2005,1.5466,1.7365,1.9397,2.0286,1.9962,1.5629,1.1032,0.6511,1.1375,1.6843,2.2522,2.7622,3.2488,3.6986,3.9568,4.1714,4.3461,4.4178,4.3971,4.3157,4.2572,4.1506,4.0123,3.8169,3.6373,3.4742,3.3818,3.2768,3.1556,3.1165,3.0645,2.9782,2.944,2.7543,2.421,1.9979,1.7222,1.6072,1.5363,1.4371,1.3249,1.1846,1.0665,0.9942,0.9768,0.9768,1.0135,1.2697,1.5415,1.8831,2.5927,3.3907,4.227,4.7487,5.2418,5.7143,6.0676,6.3961,6.7089,6.9188,7.1145,7.2901,7.3756,7.4423,7.5292,7.5992,7.6617,7.7228,7.7428,7.7727,7.8216,7.8379,7.8145,7.7834,7.7103,7.6557,7.6341,7.6733,7.7926,7.9491,8.0239,8.0846,8.1562,8.1877,8.2199,8.2437,8.2671,8.3129,8.3789,8.4211,8.4485,8.4817,8.5084,8.585,8.7544,8.8959,9.0323,9.263,9.3826,9.4741,9.5592,9.6114,9.6423,9.695,9.8765,10.1141,10.3342,10.504,10.5993,-5.4048,-4.7268,-3.9085,-2.7037,-1.3524,-0.802,-0.4189,-0.1458,0.0547,0.1825,0.0,-1.0793,-1.3438,-0.9308,-0.281,0.4138,1.1338,1.75,2.3991,3.0046,3.3061,3.5637,3.8155,3.8651,3.8651,3.7882,3.6967,3.5663,3.4147,3.2352,2.9943,2.7336,2.6394,2.5059,2.3454,2.3288,2.2934,2.2244,2.1492,1.8139,1.2309,1.1548,1.1366,1.1204,1.0463,0.9906,0.9184,0.7522,0.6418,0.5869,0.5502,0.5507,0.6246,0.8627,1.1891,1.547,2.0691,2.8261,3.9432,4.6469,5.2215,5.6339,6.0388,6.3823,6.6567,6.8753,7.0784,7.2556,7.3644,7.4642,7.5612,7.6202,7.6617,7.7228,7.7428,7.7727,7.8185,7.8216,7.788,7.6705,7.6346,7.5866,7.4737,7.4733,7.5617,7.7366,7.84,7.9554,8.0612,8.1355,8.2039,8.2358,8.2749,8.3204,8.3789,8.4002,8.4417,8.4954,8.5148,8.5842,8.7091,8.8143,8.9,9.1318,9.281,9.3879,9.4948,9.5933,9.6055,9.642,9.7549,9.9616,10.2695,10.4706,10.5739,-5.8586,-5.3928,-4.8252,-4.1672,-3.4421,-2.6062,-2.1382,-1.9407,-1.6499,-2.0584,-2.879,-2.9833,-2.7205,-2.173,-1.4944,-0.7208,0.1493,0.8726,1.6079,2.3013,2.6643,2.944,3.1873,3.2028,3.1636,3.0698,2.9365,2.7702,2.5712,2.3844,2.1635,1.9346,1.6925,1.547,1.4559,1.4572,1.4598,1.4415,0.8866,0.5164,0.4044,0.4962,0.4971,0.4239,0.4182,0.3971,0.343,0.2671,0.2119,0.2119,0.1942,0.2648,0.4064,0.6696,1.0351,1.5041,2.061,2.7508,3.5915,4.6193,5.4205,5.8487,6.1817,6.4778,6.7349,6.9872,7.1974,7.3305,7.4313,7.5077,7.5718,7.6202,7.6578,7.6887,7.7127,7.7428,7.7727,7.7924,7.7592,7.6397,7.5114,7.4043,7.3295,7.2916,7.3222,7.4643,7.6923,7.8703,7.9431,8.0873,8.182,8.2358,8.2902,8.3427,8.3932,8.428,8.4619,8.4752,8.5076,8.5482,8.6102,8.7431,8.8577,8.9176,9.1245,9.3028,9.3609,9.4803,9.5788,9.5945,9.6359,9.7782,10.0924,10.3628,10.573,-6.231,-5.9605,-5.4867,-5.0916,-4.7563,-4.0875,-3.6751,-3.4948,-3.6148,-4.0612,-4.6051,-4.3192,-3.8767,-3.3324,-2.6067,-1.7432,-0.7831,0.0374,0.8522,1.6372,1.978,2.2611,2.4605,2.4596,2.3761,2.2443,2.096,1.8987,1.6788,1.4376,1.2105,0.9808,0.7253,0.5443,0.4537,0.4727,0.5099,0.6014,-0.1073,-0.4446,-0.3389,-0.1966,-0.1253,-0.1257,-0.089,-0.0531,-0.0355,-0.1052,-0.1395,-0.0871,-0.0349,0.0697,0.2788,0.6249,1.07,1.6281,2.2622,2.9418,3.6633,4.6349,5.4704,6.0899,6.3769,6.6454,6.9626,7.1442,7.2786,7.398,7.486,7.5612,7.641,7.6719,7.709,7.7293,7.7528,7.7464,7.7135,7.713,7.6463,7.4638,7.3489,7.2521,7.1497,7.1212,7.1383,7.2321,7.4353,7.6871,7.865,7.9884,8.0841,8.1228,8.226,8.3138,8.3789,8.4211,8.4485,8.4752,8.4948,8.514,8.5401,8.6029,8.7091,8.7958,8.9258,9.1047,9.2902,9.3763,9.4625,9.5196,9.5748,9.6746,9.8995,10.1738,10.3901,-6.5148,-6.3989,-5.9889,-5.7414,-5.6089,-5.3257,-5.0342,-4.8176,-5.4515,-5.6837,-5.5553,-5.239,-4.8339,-4.3456,-3.5656,-2.6693,-1.6812,-0.7853,0.093,0.9391,1.2597,1.5044,1.6517,1.6256,1.5011,1.3149,1.1688,0.9636,0.7046,0.4332,0.1799,-0.0538,-0.3044,-0.5006,-0.61,-0.5752,-0.5398,-0.5209,-1.0436,-1.2171,-0.9975,-0.8458,-0.6929,-0.5383,-0.4698,-0.4003,-0.3139,-0.384,-0.384,-0.279,-0.1919,0.0,0.2606,0.7267,1.2706,1.916,2.6217,3.3277,4.0814,4.7665,5.5174,6.3013,6.6079,6.8704,7.1957,7.3057,7.3855,7.4751,7.5505,7.6306,7.7127,7.7428,7.7562,7.7497,7.779,7.7454,7.5972,7.6147,7.5334,7.272,7.2189,7.1657,7.0565,7.0232,7.04,7.1029,7.2269,7.4068,7.6818,7.8335,7.8807,7.9625,8.127,8.2633,8.315,8.3648,8.428,8.4619,8.4752,8.4883,8.514,8.541,8.5967,8.7442,8.7769,8.8857,9.1207,9.2225,9.3302,9.4439,9.535,9.6267,9.7803,9.9569,10.1278,-6.6209,-6.5563,-6.4028,-6.3075,-6.2475,-6.1141,-5.9372,-5.7802,0.0,0.0,0.0,-5.8513,-5.4768,-5.0134,-4.2569,-3.3945,-2.4448,-1.5794,-0.7326,0.0749,0.3753,0.586,0.7084,0.5716,0.433,0.2595,0.1113,-0.1092,-0.4045,-0.649,-0.9198,-1.1909,-1.4588,-1.6109,-1.6643,-1.5208,-1.7378,-2.2835,-2.1704,-1.9067,-1.5281,-1.2755,-1.0205,-0.7815,-0.6949,-0.5914,-0.4537,-0.4712,-0.4363,-0.3313,-0.1744,0.087,0.4671,1.0448,1.7244,2.5178,3.27,4.0242,4.7695,5.2737,5.8193,6.4441,6.8252,7.1249,7.3027,7.474,7.5969,7.6487,7.6617,7.6822,7.7494,7.7528,7.707,7.5827,7.6082,7.584,7.4612,7.4712,7.4315,7.2782,7.2382,7.1935,7.0633,7.0349,7.0349,7.0597,7.0947,7.185,7.3826,7.4762,7.5641,7.7516,7.9736,8.1165,8.1668,8.2799,8.428,8.4275,8.4548,8.4746,8.4883,8.5012,8.522,8.5651,8.6656,8.7517,8.8439,9.0519,9.2597,9.3085,9.4163,9.5741,9.7455,9.8568,9.9547,-6.7893,-6.7601,-6.6211,-6.6058,0.0,-6.4999,-6.5479,-6.7445,-6.8395,-6.7979,-6.6394,-6.3932,-6.1087,-5.757,-5.0134,-4.2114,-3.3653,-2.5133,-1.7321,-1.0188,-0.7549,-0.5953,-0.5069,-0.6308,-0.7663,-0.9131,-1.0901,-1.2999,-1.5317,-1.796,-2.0512,-2.3083,-2.5644,-2.7124,-2.7335,-2.6727,-2.8683,-3.3459,-2.944,-2.5196,-2.0998,-1.7512,-1.3976,-1.0569,-0.9034,0.0,0.0,0.0,0.0,0.0,0.0,0.0,0.0,0.0,0.0,3.2681,4.0297,4.7535,5.4293,5.9072,6.2868,6.6274,6.9244,7.2015,7.4269,7.487,7.5269,7.5335,7.54,7.5658,7.6038,7.6132,7.5802,7.5168,7.5401,7.4982,7.3803,7.3796,7.3515,7.2238,7.1969,7.1551,7.0664,7.0515,7.0515,7.053,7.053,7.1029,7.2108,7.2551,7.3333,7.5466,7.7835,7.9477,7.9835,8.0962,8.1873,8.2929,8.3139,8.3558,8.4476,8.4686,8.4686,8.4823,8.519,8.6047,8.683,8.8325,9.0112,9.1686,9.2897,9.4101,9.5018,9.7067,9.8766,-6.9739,-6.9547,-6.7948,-6.8235,-6.9483,-6.7784,-6.9889,-7.4312,-7.2773,-7.1525,-7.0397,-6.8169,-6.6011,-6.3516,-5.6593,-4.9578,-4.2593,-3.4645,-2.7788,-2.2342,-1.9816,-1.8601,-1.8374,-1.9251,-2.0265,-2.1448,-2.321,-2.4894,-2.6489,-2.9326,-3.1718,-3.4085,-3.6353,-3.7508,-3.7767,0.0,0.0,0.0,-3.5748,-3.0567,-2.5972,-2.1538,-1.7054,-1.2803,-1.0772,0.0,-0.6621,-0.6447,-0.5577,-0.3836,-0.0347,0.0,0.0,0.0,0.0,0.0,0.0,0.0,0.0,0.0,0.0,0.0,7.0176,7.2116,7.4908,7.4518,7.415,7.436,7.4404,7.4493,7.4759,7.4759,7.4713,7.4552,7.4657,7.4289,7.3025,7.2986,7.2662,7.1512,7.1309,7.1229,7.076,7.0678,7.0678,7.0678,7.053,7.076,7.1137,7.1217,7.1862,7.3413,7.5286,7.6941,7.7867,7.8639,7.9898,8.1089,8.1447,8.2296,8.3633,8.3993,8.4278,8.4552,8.428,8.4498,8.5704,8.6414,8.7623,8.9972,9.1545,9.2458,9.273,9.5213,9.7495,-7.1695,-7.059,-7.058,-7.0764,-7.1061,-7.1406,-7.2537,-7.4184,-7.2837,-7.2077,-7.1759,-6.9846,-6.7649,-6.4969,-5.9706,-5.4821,-4.9991,-4.237,-3.7583,-3.4803,-3.1918,-3.0979,-3.2082,-3.2115,-3.2941,-3.4301,-3.4366,-3.5646,-3.8066,-3.9794,-4.2002,-4.4676,-4.6291,-4.7205,-4.7387,-5.1946,-5.3121,-5.0579,-4.1977,-3.4618,-2.8543,-2.3508,-1.8559,-1.3845,-1.1462,-0.9398,-0.7497,-0.7142,-0.6279,-0.4533,0.0,0.627,1.4606,2.5342,3.5823,0.0,5.3723,0.0,0.0,0.0,0.0,0.0,0.0,0.0,0.0,7.3862,7.4147,7.6095,7.5385,7.4954,7.5452,7.5299,7.4675,7.3465,7.358,7.3121,7.177,7.1738,7.167,7.1376,7.1466,7.1466,7.1229,7.1069,7.0841,7.0841,7.0678,7.0515,7.0515,7.0597,7.0827,7.1272,7.2109,7.3772,7.5547,7.7447,7.8848,7.9405,8.0464,8.1663,8.2015,8.315,8.4001,8.4072,8.4002,8.4073,8.4215,8.5562,8.684,8.7551,8.9971,9.1894,9.2313,9.3151,9.4561,-7.212,-7.1705,-7.1449,-7.2283,-7.3775,-7.3841,-7.4834,-7.6154,-7.4553,-7.3374,-7.2469,-7.1497,-6.9599,-6.6922,-6.2402,-5.828,-5.4579,-4.9101,-4.5387,-4.3565,-4.1493,-4.1236,-4.211,-4.2667,-4.3086,-4.3721,-4.4632,-4.5654,-4.6703,-4.8016,-4.9844,-5.1717,-5.307,-5.4696,-5.6764,-5.886,-5.8679,-5.6068,-4.9057,-4.0652,-3.0984,-2.4965,-1.9401,-1.4016,-1.1807,-0.9917,-0.8018,-0.8869,-0.881,-0.7843,-0.4069,0.4332,1.7997,2.7404,3.9065,0.0,0.0,0.0,0.0,0.0,0.0,0.0,0.0,0.0,0.0,0.0,7.0752,7.235,7.2145,7.1824,7.1905,7.2648,7.277,7.2162,7.2243,7.2053,7.1534,7.1477,7.1623,7.1701,7.171,7.1633,7.1466,7.1309,7.1149,7.0921,7.0432,6.9931,6.9761,6.9931,7.0183,7.0349,7.0921,7.1905,7.314,7.4569,7.6046,7.7304,7.8145,7.9408,8.124,8.2091,8.2729,8.3719,8.3789,8.3718,8.386,8.464,8.542,8.6414,8.8048,8.9184,8.9327,9.038,9.1864,-7.3162,-7.3025,-7.2341,-7.3385,-7.5276,-7.5277,-7.5976,-7.7026,-7.5696,-7.423,-7.2698,-7.2347,-7.062,-6.784,-6.3899,-6.0806,-5.8297,-5.481,-5.2665,-5.1717,-5.0423,-5.0521,-5.1474,-5.1986,-5.1969,-5.2017,-5.298,-5.3453,-5.3411,-5.443,-5.5522,-5.6925,-5.8291,-6.0448,-6.3045,-6.2909,-6.1575,-5.9087,-5.4627,-4.6748,-3.5373,-2.7145,-2.0222,-1.4529,-1.2484,-1.0772,-0.9562,-1.1193,-1.2379,-1.2746,-1.1091,-0.3022,1.2276,1.968,0.0,0.0,0.0,0.0,0.0,0.0,0.0,0.0,0.0,6.1471,6.3007,0.0,6.6854,0.0,6.8059,6.8204,6.8391,6.9472,0.0,0.0,6.999,7.0069,7.0158,7.0236,7.0527,7.1088,7.1233,7.1301,7.1477,7.1309,7.1069,7.076,7.0015,6.9331,6.9068,6.9244,6.9417,6.959,7.0099,7.0678,7.1094,7.1947,7.3316,7.5137,7.5836,7.7025,7.9832,8.0399,8.0963,8.2375,8.2728,8.2866,8.3009,8.3504,8.4072,8.4427,8.4781,8.5063,8.6057,8.733,8.9034,-7.5593,-7.4611,-7.4225,-7.4128,-7.4399,-7.4911,-7.5115,-7.4866,-7.492,-7.3812,-7.2028,-7.17,-6.9634,-6.6133,-6.366,0.0,-6.1016,-5.9416,-5.9409,-6.1032,-5.9026,-5.9167,-6.103,-5.9908,-5.9465,-5.9465,-5.8119,-5.7773,-5.8265,-5.8076,-5.8575,-5.9964,-6.2097,-6.3469,-6.3858,-6.4191,-6.2708,-5.9528,-5.655,-5.1349,-4.3704,-3.0648,-2.1205,-1.5895,-1.3528,-1.2484,-1.2791,-1.467,-1.6953,-2.0083,-2.1327,-1.8509,-1.1091,0.0,0.0,0.0,0.0,0.0,0.0,0.0,0.0,0.0,0.0,0.0,0.0,0.0,0.0,6.4352,6.4493,0.0,6.6552,6.667,0.0,0.0,0.0,6.6352,6.6352,6.667,6.7504,6.8844,0.0,0.0,7.1173,7.0921,7.0515,7.0099,6.959,6.9068,6.869,6.869,6.86,6.8355,6.898,6.9524,6.9882,7.0706,7.1719,7.3105,7.4646,7.5836,7.6675,7.7798,7.8711,7.9343,8.0329,8.1244,8.1315,8.2515,8.294,8.0327,7.9554,8.047,8.3503,8.4355,8.5207,-7.4367,-7.221,-7.2071,-7.2151,-7.2394,-7.245,-7.245,-7.2265,-7.228,-7.0682,-6.8066,-6.7893,-6.5838,-6.2428,-6.1191,0.0,0.0,0.0,-5.9944,-6.1796,-6.1377,-6.2481,-6.4612,-6.4098,-6.3298,-6.2259,-6.1996,-6.1442,-6.0513,-6.0699,-6.0142,-5.8838,0.0,0.0,-6.2891,-6.279,-6.2132,-6.0741,-5.6708,-5.1243,-4.4568,-3.4897,-2.5487,-1.6443,-1.4616,-1.4489,-1.6029,-1.9535,-2.3808,-2.849,-2.975,-2.5917,0.0,0.0,0.0,0.0,0.0,0.0,0.0,0.0,0.0,0.0,0.0,3.7907,3.9055,0.0,0.0,0.0,5.8922,5.9331,6.1512,6.2293,0.0,0.0,0.0,0.0,0.0,0.0,0.0,6.6742,6.7926,6.889,6.9495,6.8603,6.8171,6.8761,6.8445,6.799,6.7527,0.0,6.7246,6.7246,6.7463,6.777,6.8405,6.9199,7.0133,7.1106,7.2797,7.4294,7.5696,7.6606,7.7306,7.8218,7.899,7.9411,7.9483,7.983,7.9684,7.8637,7.8357,7.8779,8.0187,8.0469,8.1168,-7.1891,0.0,0.0,0.0,0.0,-6.9703,-6.9529,-6.9549,-6.9339,-6.7624,-6.4845,-6.4331,0.0,0.0,0.0,0.0,0.0,0.0,-5.966,-6.1471,-6.1761,-6.331,-6.5866,-6.5642,-6.4936,-6.3909,-6.4217,-6.3318,-6.1539,-6.1302,-6.0103,-5.7973,0.0,0.0,0.0,0.0,-6.1286,-6.0658,-5.6196,-5.046,-4.3705,-3.6666,-2.8052,-1.7994,-1.6387,-1.6869,-1.9588,-2.4993,-3.0763,-3.6623,-3.9401,0.0,0.0,0.0,0.0,0.0,0.0,0.0,0.0,0.0,0.0,0.0,0.0,0.0,0.0,0.0,0.0,0.0,0.0,0.0,5.629,5.7872,5.8565,0.0,0.0,0.0,0.0,0.0,0.0,0.0,0.0,0.0,6.572,6.5713,6.6247,0.0,0.0,6.7151,6.6577,6.6189,6.609,6.6189,6.6223,0.0,6.7118,6.7861,6.8827,6.978,7.1094,7.2591,7.4713,7.5065,7.5415,7.6532,7.7232,7.709,7.6321,7.603,7.6229,7.6303,7.6451,7.6663,7.6863,7.6933,7.7546,0.0,0.0,0.0,0.0,0.0,0.0,0.0,0.0,-6.6293,-6.5113,0.0,-6.1642,0.0,0.0,0.0,0.0,-5.5289,-5.7865,0.0,0.0,-6.0544,-6.1702,-6.4124,-6.3959,-6.4241,-6.4978,-6.4174,-6.2776,-6.0875,-5.9134,0.0,0.0,0.0,0.0,0.0,0.0,-6.0348,-5.857,-5.4967,-4.9487,-4.1982,-3.4648,-2.7826,-2.1778,-1.9476,-1.9981,-2.3704,-3.0756,-3.7577,-4.3965,-5.0754,0.0,0.0,0.0,0.0,0.0,0.0,0.0,0.0,0.0,0.0,0.0,0.0,0.0,0.0,0.0,0.0,0.0,0.0,0.0,0.0,5.3377,0.0,0.0,0.0,0.0,0.0,0.0,0.0,0.0,0.0,0.0,5.9383,6.2782,6.5257,6.5111,0.0,0.0,0.0,0.0,6.5396,6.5194,6.5396,6.5695,6.6286,6.6961,6.7898,6.9068,0.0,0.0,7.231,7.268,7.2898,7.3182,7.4433,7.4285,7.0659,7.1344,7.231,7.2602,7.2528,7.2866,7.4254,7.4145,7.4286,0.0,0.0,0.0,0.0,0.0,0.0,0.0,0.0,0.0,-5.9147,-5.7431,-5.6903,0.0,0.0,0.0,0.0,0.0,0.0,0.0,0.0,-6.0962,-6.2611,-6.4365,-6.4061,-6.3399,0.0,-6.2042,-5.966,0.0,0.0,0.0,0.0,0.0,0.0,0.0,0.0,-5.8012,-5.6482,-5.2751,-4.7361,-4.0134,-3.2906,-2.6477,-2.0844,-1.9083,-2.1726,-2.9087,-3.5576,-4.2577,0.0,0.0,0.0,0.0,0.0,0.0,0.0,0.0,0.0,0.0,0.0,0.0,0.0,0.0,0.0,0.0,0.0,0.0,0.0,0.0,0.0,0.0,0.0,4.7921,0.0,0.0,0.0,0.0,0.0,0.0,0.0,0.0,0.0,5.7398,5.8734,6.0853,6.3643,6.465,6.5246,6.5571,0.0,0.0,0.0,0.0,0.0,0.0,0.0,6.6577,6.7898,6.8649,6.9458,7.0774,7.0672,7.0311,6.9569,0.0,0.0,6.8299,6.8151,6.849,6.8782,6.8633,6.8898,7.0536,7.0418,7.0678,0.0,0.0,0.0,0.0,0.0,0.0,0.0,0.0,0.0,-5.4772,-5.3559,0.0,0.0,0.0,0.0,0.0,0.0,0.0,0.0,0.0,0.0,0.0,-6.1073,-6.0774,0.0,0.0,0.0,0.0,0.0,0.0,0.0,0.0,0.0,0.0,0.0,0.0,-5.6585,-5.5067,-5.0979,-4.5418,-3.8168,-3.1207,-2.5072,-2.0134,-1.8954,-2.2359,-3.0387,0.0,0.0,0.0,0.0,0.0,0.0,0.0,0.0,0.0,0.0,0.0,0.0,0.0,0.0,0.0,0.0,0.0,0.0,0.0,0.0,0.0,0.0,0.0,0.0,0.0,4.4135,0.0,0.0,0.0,0.0,0.0,0.0,0.0,0.0,0.0,0.0,0.0,5.8202,6.2228,6.3387,6.4198,6.5309,6.5295,6.5155,0.0,0.0,0.0,0.0,0.0,0.0,0.0,0.0,0.0,0.0,0.0,0.0,0.0,0.0,6.7182,6.5937,6.6064,6.6333,6.6552,0.0,0.0,0.0,0.0,0.0,0.0,0.0,0.0,0.0,0.0,0.0,0.0,0.0,0.0,0.0,-5.1879,0.0,0.0,-4.9395,0.0,0.0,0.0,0.0,0.0,0.0,0.0,0.0,0.0,0.0,0.0,0.0,0.0,0.0,0.0,0.0,0.0,0.0,0.0,0.0,0.0,0.0,-5.6272,-5.4112,-4.9798,-4.3924,-3.634,-2.9416,-2.3905,-2.003,-1.9505,-2.2068,-2.7963,0.0,0.0,0.0,0.0,0.0,0.0,0.0,0.0,0.0,0.0,0.0,0.0,0.0,0.0,0.0,0.0,0.0,0.0,0.0,0.0,0.0,0.0,0.0,0.0,0.0,0.0,4.2755,4.1842,4.1651,0.0,0.0,0.0,0.0,0.0,0.0,0.0,0.0,0.0,6.0486,6.2415,6.4038,6.5247,6.5295,6.5194,6.5155,6.4952,6.4849,6.5053,6.5155,6.5496,0.0,0.0,0.0,0.0,0.0,0.0,0.0,0.0,0.0,0.0,0.0,0.0,0.0,0.0,0.0,0.0,0.0,0.0,0.0,0.0,0.0,0.0,0.0,0.0,0.0,0.0,0.0,0.0,0.0,0.0,0.0,0.0,0.0,0.0,0.0,0.0,0.0,0.0,0.0,0.0,0.0,0.0,0.0,0.0,0.0,0.0,0.0,0.0,0.0,0.0,0.0,0.0,0.0,0.0,-5.546,-5.1821,-4.8338,-4.2709,-3.4941,-2.8423,-2.3646,-2.0446,-2.1926,-2.5714,0.0,0.0,0.0,0.0,0.0,0.0,0.0,0.0,0.0,0.0,0.0,0.0,0.0,0.0,0.0,0.0,0.0,0.0,0.0,0.0,0.0,0.0,0.0,0.0,0.0,0.0,0.0,0.0,4.0342,4.0086,4.0594,0.0,0.0,0.0,0.0,0.0,0.0,0.0,0.0,0.0,0.0,6.2701,6.4363,6.5365,6.5992,6.5894,6.5695,6.5396,6.5155,6.5155,6.4985,6.4545,0.0,0.0,0.0,0.0,0.0,0.0,0.0,0.0,0.0,0.0,0.0,0.0,0.0,0.0,0.0,0.0,0.0,0.0,0.0,0.0,0.0,0.0,0.0,0.0,0.0,0.0,0.0,0.0,0.0,0.0,0.0,0.0,0.0,0.0,0.0,0.0,0.0,0.0,0.0,0.0,0.0,0.0,0.0,0.0,0.0,0.0,0.0,0.0,0.0,0.0,0.0,0.0,0.0,-5.4837,-5.0686,-4.7774,-4.2481,-3.4813,-2.8591,-2.4385,-2.19,-2.4676,-2.9191,0.0,0.0,0.0,0.0,0.0,0.0,0.0,0.0,0.0,0.0,0.0,0.0,0.0,0.0,0.0,0.0,0.0,0.0,0.0,0.0,0.0,0.0,0.0,0.0,0.0,0.0,0.0,0.0,3.9292,3.8898,3.8785,0.0,0.0,0.0,0.0,0.0,0.0,0.0,0.0,0.0,0.0,6.1793,6.4175,6.5281,0.0,0.0,6.6481,6.6,6.491,6.465,6.4055,6.2883,6.2261,0.0,0.0,0.0,0.0,0.0,0.0,0.0,0.0,0.0,0.0,0.0,0.0,0.0,0.0,0.0,0.0,0.0,0.0,0.0,0.0,0.0,0.0,0.0,0.0,0.0,0.0,0.0,0.0,0.0,0.0,0.0,0.0,0.0,0.0,0.0,0.0,0.0,0.0,0.0,0.0,0.0,0.0,0.0,0.0,0.0,0.0,0.0,0.0,0.0,0.0,0.0,0.0,0.0,-5.0526,-4.7884,-4.2806,-3.5236,-2.9579,-2.583,-2.4179,-2.7829,-3.2596,0.0,0.0,0.0,0.0,0.0,0.0,0.0,0.0,0.0,0.0,0.0,0.0,0.0,0.0,0.0,0.0,0.0,0.0,0.0,0.0,0.0,0.0,0.0,0.0,0.0,0.0,0.0,0.0,0.0,0.0,0.0,0.0,0.0,0.0,0.0,0.0,0.0,0.0,0.0,0.0,0.0,6.1203,6.4616,6.5219,6.5732,0.0,6.7084,6.6198,6.4303,6.3799,6.2917,6.1609,0.0,0.0,0.0,0.0,0.0,0.0,0.0,0.0,0.0,0.0,0.0,0.0,0.0,0.0,0.0,0.0,0.0,0.0,0.0,0.0,0.0,0.0,0.0,0.0,0.0,0.0,0.0,0.0,0.0,0.0,0.0,0.0,0.0,0.0,0.0,0.0,0.0,0.0,0.0,0.0,0.0,0.0,0.0,0.0,0.0,0.0,0.0,0.0,0.0,0.0,0.0,0.0,0.0,0.0,-4.9715,-4.707,-4.2022,-3.4374,-2.9779,-2.6739,-2.5688,-3.0727,0.0,0.0,0.0,0.0,0.0,0.0,0.0,0.0,0.0,0.0,0.0,0.0,0.0,0.0,0.0,0.0,0.0,0.0,0.0,0.0,0.0,0.0,0.0,0.0,0.0,0.0,0.0,3.6863,0.0,0.0,0.0,0.0,0.0,0.0,0.0,0.0,0.0,0.0,0.0,0.0,0.0,0.0,6.0029,6.2457,6.3791,6.4634,0.0,0.0,6.4545,6.3453,6.2938,6.2132,0.0,0.0,0.0,0.0,0.0,0.0,0.0,0.0,0.0,0.0,0.0,0.0,0.0,0.0,0.0,0.0,0.0,0.0,0.0,0.0,0.0,0.0,0.0,0.0,0.0,0.0,0.0,0.0,0.0,0.0,0.0,0.0,0.0,0.0,0.0,0.0,0.0,0.0,0.0,0.0,0.0,0.0,0.0,0.0,0.0,0.0,0.0,0.0,0.0,0.0,0.0,0.0,0.0,0.0,-5.2439,-4.8976,-4.5876,-4.107,-3.4451,-3.0252,-2.8032,-2.7764,-3.3697,-3.9499,0.0,0.0,0.0,0.0,0.0,0.0,0.0,0.0,0.0,0.0,0.0,0.0,0.0,0.0,0.0,0.0,0.0,0.0,0.0,0.0,0.0,0.0,0.0,0.0,0.0,0.0,0.0,0.0,0.0,0.0,0.0,0.0,0.0,0.0,0.0,0.0,0.0,0.0,0.0,0.0,0.0,0.0,6.2168,6.3231,0.0,0.0,0.0,6.4395,6.2994,0.0,0.0,0.0,0.0,0.0,0.0,0.0,0.0,0.0,0.0,0.0,0.0,0.0,0.0,0.0,0.0,0.0,0.0,0.0,0.0,0.0,0.0,0.0,0.0,0.0,0.0,0.0,0.0,0.0,0.0,0.0,0.0,0.0,0.0,0.0,0.0,0.0,0.0,0.0,0.0,0.0,0.0,0.0,0.0,0.0,0.0,0.0,0.0,0.0,0.0,0.0,0.0,0.0,0.0,0.0,0.0,0.0,-4.8147,-4.4844,-4.0607,-3.5329,-3.1256,-2.9582,-3.0486,-3.6849,-4.2309,0.0,0.0,0.0,0.0,0.0,0.0,0.0,0.0,0.0,0.0,0.0,0.0,0.0,0.0,0.0,0.0,0.0,0.0,0.0,0.0,0.0,0.0,0.0,0.0,0.0,0.0,0.0,0.0,0.0,0.0,0.0,0.0,0.0,0.0,0.0,0.0,0.0,0.0,0.0,0.0,0.0,5.8696,6.2493,6.2967,6.3509,0.0,0.0,6.4707,6.2825,6.2168,0.0,0.0,0.0,0.0,0.0,0.0,0.0,0.0,0.0,0.0,0.0,0.0,0.0,0.0,0.0,0.0,0.0,0.0,0.0,0.0,0.0,0.0,0.0,0.0,0.0,0.0,0.0,0.0,0.0,0.0,0.0,0.0,0.0,0.0,0.0,0.0,0.0,0.0,0.0,0.0,0.0,0.0,0.0,0.0,0.0,0.0,0.0,0.0,0.0,0.0,0.0,0.0,0.0,0.0,0.0,0.0,-4.7036,-4.5471,-4.1838,-3.5995,-3.3162,-3.2265,-3.3233,-4.0042,-4.5438,0.0,0.0,0.0,0.0,0.0,0.0,0.0,0.0,0.0,0.0,0.0,0.0,0.0,0.0,0.0,0.0,0.0,0.0,0.0,0.0,0.0,0.0,0.0,0.0,0.0,0.0,0.0,0.0,0.0,0.0,0.0,0.0,0.0,0.0,0.0,0.0,0.0,0.0,0.0,0.0,0.0,5.6516,6.0211,6.0751,0.0,0.0,0.0,0.0,6.2288,6.1858,0.0,0.0,0.0,0.0,0.0,0.0,0.0,0.0,0.0,0.0,0.0,0.0,0.0,0.0,0.0,0.0,0.0,0.0,0.0,0.0,0.0,0.0,0.0,0.0,0.0,0.0,0.0,0.0,0.0,0.0,0.0,0.0,0.0,0.0,0.0,0.0,0.0,0.0,0.0,0.0,0.0,0.0,0.0,0.0,0.0,0.0,0.0,0.0,0.0,0.0,0.0,0.0,0.0,0.0,0.0,0.0,-4.6079,-4.4519,-4.1417,-3.6869,-3.4703,-3.4358,-3.584,-4.1475,-4.6311,0.0,0.0,0.0,0.0,0.0,0.0,0.0,0.0,0.0,0.0,0.0,0.0,0.0,0.0,0.0,0.0,0.0,0.0,0.0,0.0,0.0,0.0,0.0,0.0,0.0,0.0,0.0,0.0,0.0,0.0,0.0,0.0,0.0,0.0,0.0,0.0,0.0,0.0,0.0,0.0,5.3691,5.5556,5.9107,0.0,0.0,0.0,0.0,0.0,0.0,6.143,6.1431,0.0,0.0,0.0,0.0,0.0,0.0,0.0,0.0,0.0,0.0,0.0,0.0,0.0,0.0,0.0,0.0,0.0,0.0,0.0,0.0,0.0,0.0,0.0,0.0,0.0,0.0,0.0,0.0,0.0,0.0,0.0,0.0,0.0,0.0,0.0,0.0,0.0,0.0,0.0,0.0,0.0,0.0,0.0,0.0,0.0,0.0,0.0,0.0,0.0,0.0,0.0,0.0,0.0,0.0,0.0,-4.5142,-4.3356,-4.1117,-3.8557,-3.6855,-3.6894,-3.881,-4.2611,-4.6584,-5.0133,0.0,0.0,0.0,0.0,0.0,0.0,0.0,0.0,0.0,0.0,0.0,0.0,0.0,0.0,0.0,0.0,0.0,0.0,0.0,0.0,0.0,0.0,0.0,0.0,0.0,0.0,0.0,0.0,0.0,0.0,0.0,0.0,0.0,0.0,0.0,0.0,0.0,0.0,0.0,5.3232,5.4953,0.0,0.0,0.0,0.0,0.0,0.0,0.0,0.0,6.1295,0.0,0.0,0.0,0.0,0.0,0.0,0.0,0.0,0.0,0.0,0.0,0.0,0.0,0.0,0.0,0.0,0.0,0.0,0.0,0.0,0.0,0.0,0.0,0.0,0.0,0.0,0.0,0.0,0.0,0.0,0.0,0.0,0.0,0.0,0.0,0.0,0.0,0.0,0.0,0.0,0.0,0.0,0.0,0.0,0.0,0.0,0.0,0.0,0.0,0.0,0.0,0.0,0.0,0.0,0.0,0.0,-4.3665,-4.3027,-4.2035,-4.1072,-4.1413,-4.3065,-4.5949,-4.7365,-4.6854,0.0,0.0,0.0,0.0,0.0,0.0,0.0,0.0,0.0,0.0,0.0,0.0,0.0,0.0,0.0,0.0,0.0,0.0,0.0,0.0,0.0,0.0,0.0,0.0,0.0,0.0,0.0,0.0,0.0,0.0,0.0,0.0,0.0,0.0,0.0,0.0,0.0,0.0,4.7807,5.0735,0.0,0.0,0.0,0.0,0.0,0.0,0.0,0.0,6.0205,0.0,0.0,0.0,0.0,0.0,0.0,0.0,0.0,0.0,0.0,0.0,0.0,0.0,0.0,0.0,0.0,0.0,0.0,0.0,0.0,0.0,0.0,0.0,0.0,0.0,0.0,0.0,0.0,0.0,0.0,0.0,0.0,0.0,0.0,0.0,0.0,0.0,0.0,0.0,0.0,0.0,0.0,0.0,0.0,0.0,0.0,0.0,0.0,0.0,0.0,0.0,0.0,0.0,0.0,0.0,0.0,0.0,0.0,-4.41,-4.3835,-4.3868,-4.4631,-4.5781,-4.6404,-4.5262,0.0,0.0,0.0,0.0,0.0,0.0,0.0,0.0,0.0,0.0,0.0,0.0,0.0,0.0,0.0,0.0,0.0,0.0,0.0,0.0,0.0,0.0,0.0,0.0,0.0,0.0,0.0,0.0,0.0,0.0,0.0,0.0,0.0,0.0,0.0,0.0,0.0,0.0,0.0,0.0,0.0,0.0,0.0,0.0,0.0,0.0,0.0,0.0,0.0,0.0,0.0,0.0,0.0,0.0,0.0,0.0,0.0,0.0,0.0,0.0,0.0,0.0,0.0,0.0,0.0,0.0,0.0,0.0,0.0,0.0,0.0,0.0,0.0,0.0,0.0,0.0,0.0,0.0,0.0,0.0,0.0,0.0,0.0,0.0,0.0,0.0,0.0,0.0,0.0,0.0,0.0,0.0,0.0,0.0,0.0,0.0,0.0,0.0,0.0,0.0,0.0,0.0,0.0,0.0,0.0,0.0,0.0,0.0,-4.4435,-4.5219,-4.6143,-4.6835,-4.7292,-4.5472,-4.211,0.0,0.0,0.0,0.0,0.0,0.0,0.0,0.0,0.0,0.0,0.0,0.0,0.0,0.0,0.0,0.0,0.0,0.0,0.0,0.0,0.0,0.0,0.0,0.0,0.0,0.0,0.0,0.0,0.0,0.0,0.0,0.0,0.0,0.0,0.0,0.0,0.0,0.0,0.0,0.0,0.0,0.0,0.0,0.0,0.0,0.0,0.0,0.0,5.8253,0.0,0.0,0.0,0.0,0.0,0.0,0.0,0.0,0.0,0.0,0.0,0.0,0.0,0.0,0.0,0.0,0.0,0.0,0.0,0.0,0.0,0.0,0.0,0.0,0.0,0.0,0.0,0.0,0.0,0.0,0.0,0.0,0.0,0.0,0.0,0.0,0.0,0.0,0.0,0.0,0.0,0.0,0.0,0.0,0.0,0.0,0.0,0.0,0.0,0.0,0.0,0.0,0.0,0.0,0.0,0.0,0.0,0.0,0.0,-4.3966,-4.6938,-4.7813,-4.7943,-4.705,-4.3528,-3.8792,0.0,0.0,0.0,0.0,0.0,0.0,0.0,0.0,0.0,0.0,0.0,0.0,0.0,0.0,0.0,0.0,0.0,0.0,0.0,0.0,0.0,0.0,0.0,0.0,0.0,0.0,0.0,0.0,0.0,0.0,0.0,0.0,0.0,0.0,0.0,0.0,0.0,0.0,0.0,0.0,0.0,0.0,0.0,0.0,0.0,0.0,0.0,0.0,0.0,0.0,0.0,0.0,0.0,0.0,0.0,0.0,0.0,0.0,0.0,0.0,0.0,0.0,0.0,0.0,0.0,0.0,0.0,0.0,0.0,0.0,0.0,0.0,0.0,0.0,0.0,0.0,0.0,0.0,0.0,0.0,0.0,0.0,0.0,0.0,0.0,0.0,0.0,0.0,0.0,0.0,0.0,0.0,0.0,0.0,0.0,0.0,0.0,0.0,0.0,0.0,0.0,0.0,0.0,0.0,0.0,0.0,0.0,0.0,-4.2301,-4.5464,-4.7733,-4.644,-4.1571,-3.829,-3.3417,0.0,0.0,0.0,0.0,0.0,0.0,0.0,0.0,0.0,0.0,0.0,0.0,0.0,0.0,0.0,0.0,0.0,0.0,0.0,0.0,0.0,0.0,0.0,0.0,0.0,0.0,0.0,0.0,0.0,0.0,0.0,0.0,0.0,0.0,0.0,0.0,0.0,0.0,0.0,0.0,0.0,0.0,0.0,0.0,0.0,0.0,0.0,0.0,0.0,0.0,0.0,0.0,0.0,0.0,0.0,0.0,0.0,0.0,0.0,0.0,0.0,0.0,0.0,0.0,0.0,0.0,0.0,0.0,0.0,0.0,0.0,0.0,0.0,0.0,0.0,0.0,0.0,0.0,0.0,0.0,0.0,0.0,0.0,0.0,0.0,0.0,0.0,0.0,0.0,0.0,0.0,0.0,0.0,0.0,0.0,0.0,0.0,0.0,0.0,0.0,0.0,0.0,0.0,0.0,0.0,0.0,0.0,0.0,0.0,-4.2428,-4.3408,-4.0916,-3.5115,-3.205,-2.7282,0.0,0.0,0.0,0.0,0.0,0.0,0.0,0.0,0.0,0.0,0.0,0.0,0.0,0.0,0.0,0.0,0.0,0.0,0.0,0.0,0.0,0.0,0.0,0.0,0.0,0.0,0.0,0.0,0.0,0.0,0.0,0.0,0.0,0.0,0.0,0.0,0.0,0.0,0.0,0.0,0.0,0.0,0.0,0.0,0.0,0.0,0.0,0.0,0.0,0.0,0.0,0.0,0.0,0.0,0.0,0.0,0.0,0.0,0.0,0.0,0.0,0.0,0.0,0.0,0.0,0.0,0.0,0.0,0.0,0.0,0.0,0.0,0.0,0.0,0.0,0.0,0.0,0.0,0.0,0.0,0.0,0.0,0.0,0.0,0.0,0.0,0.0,0.0,0.0,0.0,0.0,0.0,0.0,0.0,0.0,0.0,0.0,0.0,0.0,0.0,0.0,0.0,0.0,0.0,0.0,0.0,0.0,0.0,0.0,-3.8065,-3.2965,-2.9528,-2.7776,-2.4825,-2.0396,0.0,0.0,0.0,0.0,0.0,0.0,0.0,0.0,0.0,0.0,0.0,0.0,0.0,0.0,0.0,0.0,0.0,0.0,0.0,0.0,0.0,0.0,0.0,0.0,0.0,0.0,0.0,0.0,0.0,0.0,0.0,0.0,0.0,0.0,0.0,0.0,0.0,0.0,0.0,0.0,0.0,0.0,0.0,0.0,0.0,0.0,0.0,0.0,0.0,0.0,0.0,0.0,0.0,0.0,0.0,0.0,0.0,0.0,0.0,0.0,0.0,0.0,0.0,0.0,0.0,0.0,0.0,0.0,0.0,0.0,0.0,0.0,0.0,0.0,0.0,0.0,0.0,0.0,0.0,0.0,0.0,0.0,0.0,0.0,0.0,0.0,0.0,0.0,0.0,0.0,0.0,0.0,0.0,0.0,0.0,0.0,0.0,0.0,0.0,0.0,0.0,0.0,0.0,0.0,0.0,0.0,0.0,0.0,0.0,-2.0277,-1.9677,-1.9355,-1.8867,-1.5841,-1.2076,-0.7442,0.0,0.0,0.0,0.0,0.0,0.0,0.0,0.0,0.0,0.0,0.0,0.0,0.0,0.0,0.0,0.0,0.0,0.0,0.0,0.0,0.0,0.0,0.0,0.0,0.0,0.0,0.0,0.0,0.0,0.0,0.0,0.0,0.0,0.0,0.0,0.0,0.0,0.0,0.0,0.0,0.0,0.0,0.0,0.0,0.0,0.0,0.0,0.0,0.0,0.0,0.0,0.0,0.0,0.0,0.0,0.0,0.0,0.0,0.0,0.0,0.0,0.0,0.0,0.0,0.0,0.0,0.0,0.0,0.0,0.0,0.0,0.0,0.0,0.0,0.0,0.0,0.0,0.0,0.0,0.0,0.0,0.0,0.0,0.0,0.0,0.0,0.0,0.0,0.0,0.0,0.0,0.0,0.0,0.0,0.0,0.0,0.0,0.0,0.0,0.0,0.0,0.0,0.0,0.0,0.0,0.0,0.0,0.0,-0.4969,-0.7235,-0.8575,-0.87,-0.6096,-0.3226,0.0,0.0,0.0,0.0,0.0,0.0,0.0,0.0,0.0,0.0,0.0,0.0,0.0,0.0,0.0,0.0,0.0,0.0,0.0,0.0,0.0,0.0,0.0,0.0,0.0,0.0,0.0,0.0,0.0,0.0,0.0,0.0,0.0,0.0,0.0,0.0,0.0,0.0,0.0,0.0,0.0,0.0,0.0,0.0,0.0,0.0,0.0,0.0,0.0,0.0,0.0,0.0,0.0,0.0,0.0,0.0,0.0,0.0,0.0,0.0,0.0,0.0,0.0,0.0,0.0,0.0,0.0,0.0,0.0,0.0,0.0,0.0,0.0,0.0,0.0,0.0,0.0,0.0,0.0,0.0,0.0,0.0,0.0,0.0,0.0,0.0,0.0,0.0,0.0,0.0,0.0,0.0,0.0,0.0,0.0,0.0,0.0,0.0,0.0,0.0,0.0,0.0,0.0,0.0,0.0,0.0,0.0,0.0,1.1982,0.6125,0.4248,0.2965,0.2415,0.4085,0.6202,0.0,0.0,0.0,0.0,0.0,0.0,0.0,0.0,0.0,0.0,0.0,0.0,0.0,0.0,0.0,0.0,0.0,0.0,0.0,0.0,0.0,0.0,0.0,0.0,0.0,0.0,0.0,0.0,0.0,0.0,0.0,0.0,0.0,0.0,0.0,0.0,0.0,0.0,0.0,0.0,0.0,0.0,0.0,0.0,0.0,0.0,0.0,0.0,0.0,0.0,0.0,0.0,0.0,0.0,0.0,0.0,0.0,0.0,0.0,0.0,0.0,0.0,0.0,0.0,0.0,0.0,0.0,0.0,0.0,0.0,0.0,0.0,0.0,0.0,0.0,0.0,0.0,0.0,0.0,0.0,0.0,0.0,0.0,0.0,0.0,0.0,0.0,0.0,0.0,0.0,0.0,0.0,0.0,0.0,0.0,0.0,0.0,0.0,0.0,0.0,0.0,0.0,0.0,0.0,0.0,0.0,0.0,0.0,0.0,1.8689,0.0,1.3087,0.0,1.278,1.3776,0.0,0.0,0.0,0.0,0.0,0.0,0.0,0.0,0.0,0.0,0.0,0.0,0.0,0.0,0.0,0.0,0.0,0.0,0.0,0.0,0.0,0.0,0.0,0.0,0.0,0.0,0.0,0.0,0.0,0.0,0.0,0.0,0.0,0.0,0.0,0.0,0.0,0.0,0.0,0.0,0.0,0.0,0.0,0.0,0.0,0.0,0.0,0.0,0.0,0.0,0.0,0.0,0.0,0.0,0.0,0.0,0.0,0.0,0.0,0.0,0.0,0.0,0.0,0.0,0.0,0.0,0.0,0.0,0.0,0.0,0.0,0.0,0.0,0.0,0.0,0.0,0.0,0.0,0.0,0.0,0.0,0.0,0.0,0.0,0.0,0.0,0.0,0.0,0.0,0.0,0.0,0.0,0.0,0.0,0.0,0.0,0.0,0.0,0.0,0.0,0.0,0.0,0.0,0.0,0.0,0.0,0.0,0.0,0.0,2.8383,2.5104,2.281,2.1586,2.1445,2.16,0.0,0.0,0.0,0.0,0.0,0.0,0.0,0.0,0.0,0.0,0.0,0.0,0.0,0.0,0.0,0.0,0.0,0.0,0.0,0.0,0.0,0.0,0.0,0.0,0.0,0.0,0.0,0.0,0.0,0.0,0.0,0.0,0.0,0.0,0.0,0.0,0.0,0.0,0.0,0.0,0.0,0.0,0.0,0.0,0.0,0.0,0.0,0.0,0.0,0.0,0.0,0.0,0.0,0.0,0.0,0.0,0.0,0.0,0.0,0.0,0.0,0.0,0.0,0.0,0.0,0.0,0.0,0.0,0.0,0.0,0.0,0.0,0.0,0.0,0.0,0.0,0.0,0.0,0.0,0.0,0.0,0.0,0.0,0.0,0.0,0.0,0.0,0.0,0.0,0.0,0.0,0.0,0.0,0.0,0.0,0.0,0.0,0.0,0.0,0.0,0.0,0.0,0.0,0.0,0.0,0.0,0.0,0.0,0.0,0.0,3.3604,3.186,2.9823,3.0081,2.9662,0.0,0.0,0.0,0.0,0.0,0.0,0.0,0.0,0.0,0.0,0.0,0.0,0.0,0.0,0.0,0.0,0.0,0.0,0.0,0.0,0.0,0.0,0.0,0.0,0.0,0.0,0.0,0.0,0.0,0.0,0.0,0.0,0.0,0.0,0.0,0.0,0.0,0.0,0.0,0.0,0.0,0.0,0.0,0.0,0.0,0.0,0.0,0.0,0.0,0.0,0.0,0.0,0.0,0.0,0.0,0.0,0.0,0.0,0.0,0.0,0.0,0.0,0.0,0.0,0.0,0.0,0.0,0.0,0.0,0.0,0.0,0.0,0.0,0.0,0.0,0.0,0.0,0.0,0.0,0.0,0.0,0.0,0.0,0.0,0.0,0.0,0.0,0.0,0.0,0.0,0.0,0.0,0.0,0.0,0.0,0.0,0.0,0.0,0.0,0.0,0.0,0.0,0.0,0.0,0.0,0.0,0.0,0.0,0.0,0.0,3.8951,0.0,3.7335,3.5118,3.3608,3.3004,0.0,0.0,0.0,0.0,0.0,0.0,0.0,0.0,0.0,0.0,0.0,0.0,0.0,0.0,0.0,0.0,0.0,0.0,0.0,0.0,0.0,0.0,0.0,0.0,0.0,0.0,0.0,0.0,0.0,0.0,0.0,0.0,0.0,0.0,0.0,0.0,0.0,0.0,0.0,0.0,0.0,0.0,0.0,0.0,0.0,0.0,0.0,0.0,0.0,0.0,0.0,0.0,0.0,0.0,0.0,0.0,0.0,0.0,0.0,0.0,0.0,0.0,0.0,0.0,0.0,0.0,0.0,0.0,0.0,0.0,0.0,0.0,0.0,0.0,0.0,0.0,0.0,0.0,0.0,0.0,0.0,0.0,0.0,0.0,0.0,0.0,0.0,0.0,0.0,0.0,0.0,0.0,0.0,0.0,0.0,0.0,0.0,0.0,0.0,0.0,0.0,0.0,0.0,0.0,0.0,0.0,0.0,0.0,0.0,0.0,4.2659,4.2533,4.0324,3.8453,0.0,0.0,0.0,0.0,0.0,0.0,0.0,0.0,0.0,0.0,0.0,0.0,0.0,0.0,0.0,0.0,0.0,0.0,0.0,0.0,0.0,0.0,0.0,0.0,0.0,0.0,0.0,0.0,0.0,0.0,0.0,0.0,0.0,0.0,0.0,0.0,0.0,0.0,0.0,0.0,0.0,0.0,0.0,0.0,0.0,0.0,0.0,0.0,0.0,0.0,0.0,0.0,0.0,0.0,0.0,0.0,0.0,0.0,0.0,0.0,0.0,0.0,0.0,0.0,0.0,0.0,0.0,0.0,0.0,0.0,0.0,0.0,0.0,0.0,0.0,0.0,0.0,0.0,0.0,0.0,0.0,0.0,0.0,0.0,0.0,0.0,0.0,0.0,0.0,0.0,0.0,0.0,0.0,0.0,0.0,0.0,0.0,0.0,0.0,0.0,0.0,0.0,0.0,0.0,0.0,0.0,0.0,0.0,0.0,0.0,0.0,4.6217,4.5803,4.5325,0.0,4.0556,0.0,0.0,0.0,0.0,0.0,0.0,0.0,0.0,0.0,0.0,0.0,0.0,0.0,0.0,0.0,0.0,0.0,0.0,0.0,0.0,0.0,0.0,0.0,0.0,0.0,0.0,0.0,0.0,0.0,0.0,0.0,0.0,0.0,0.0,0.0,0.0,0.0,0.0,0.0,0.0,0.0,0.0,0.0,0.0,0.0,0.0,0.0,0.0,0.0,0.0,0.0,0.0,0.0,0.0,0.0,0.0,0.0,0.0,0.0,0.0,0.0,0.0,0.0,0.0,0.0,0.0,0.0,0.0,0.0,0.0,0.0,0.0,0.0,0.0,0.0,0.0,0.0,0.0,0.0,0.0,0.0,0.0,0.0,0.0,0.0,0.0,0.0,0.0,0.0,0.0,0.0,0.0,0.0,0.0,0.0,0.0,0.0,0.0,0.0,0.0,0.0,0.0,0.0,0.0,0.0,0.0,0.0,0.0,0.0,0.0,0.0,0.0,4.7881,4.6221,4.3274,0.0,0.0,0.0,0.0,0.0,0.0,0.0,0.0,0.0,0.0,0.0,0.0,0.0,0.0,0.0,0.0,0.0,0.0,0.0,0.0,0.0,0.0,0.0,0.0,0.0,0.0,0.0,0.0,0.0,0.0,0.0,0.0,0.0,0.0,0.0,0.0,0.0,0.0,0.0,0.0,0.0,0.0,0.0,0.0,0.0,0.0,0.0,0.0,0.0,0.0,0.0,0.0,0.0,0.0,0.0,0.0,0.0,0.0,0.0,0.0,0.0,0.0,0.0,0.0,0.0,0.0,0.0,0.0,0.0,0.0,0.0,0.0,0.0,0.0,0.0,0.0,0.0,0.0,0.0,0.0,0.0,0.0,0.0,0.0,0.0,0.0,0.0,0.0,0.0,0.0,0.0,0.0,0.0,0.0,0.0,0.0,0.0,0.0,0.0,0.0,0.0,0.0,0.0,0.0,0.0,0.0,0.0,0.0,0.0,0.0,4.9886,4.9958,4.9047,4.7379,4.4839,0.0,0.0,0.0,0.0,0.0,0.0,0.0,0.0,0.0,0.0,0.0,0.0,0.0,0.0,0.0,0.0,0.0,0.0,0.0,0.0,0.0,0.0,0.0,0.0,0.0,0.0,0.0,0.0,0.0,0.0,0.0,0.0,0.0,0.0,0.0,0.0,0.0,0.0,0.0,0.0,0.0,0.0,0.0,0.0,0.0,0.0,0.0,0.0,0.0,0.0,0.0,0.0,0.0,0.0,0.0,0.0,0.0,0.0,0.0,0.0,0.0,0.0,0.0,0.0,0.0,0.0,0.0,0.0,0.0,0.0,0.0,0.0,0.0,0.0,0.0,0.0,0.0,0.0,0.0,0.0,0.0,0.0,0.0,0.0,0.0,0.0,0.0,0.0,0.0,0.0,0.0,0.0,0.0,0.0,0.0,0.0,0.0,0.0,0.0,0.0,0.0,0.0,0.0,0.0,0.0,0.0,0.0,0.0,0.0,0.0,0.0,0.0,0.0,0.0,4.5593,0.0,0.0,0.0,0.0,0.0,0.0,0.0,0.0,0.0,0.0,0.0,0.0,0.0,0.0,0.0,0.0,0.0,0.0,0.0,0.0,0.0,0.0,0.0,0.0,0.0,0.0,0.0,0.0,0.0,0.0,0.0,0.0,0.0,0.0,0.0,0.0,0.0,0.0,0.0,0.0,0.0,0.0,0.0,0.0,0.0,0.0,0.0,0.0,0.0,0.0,0.0,0.0,0.0,0.0,0.0,0.0,0.0,0.0,0.0,0.0,0.0,0.0,0.0,0.0,0.0,0.0,0.0,0.0,0.0,0.0,0.0,0.0,0.0,0.0,0.0,0.0,0.0,0.0,0.0,0.0,0.0,0.0,0.0,0.0,0.0,0.0,0.0,0.0,0.0,0.0,0.0,0.0,0.0,0.0,0.0,0.0,0.0,0.0,0.0,0.0,0.0,0.0,0.0,0.0,0.0,0.0,0.0,0.0,0.0,0.0,0.0,0.0,0.0,0.0,0.0,0.0,0.0,0.0,0.0,0.0,0.0,0.0,0.0,0.0,0.0,0.0,0.0,0.0,0.0,0.0,0.0,0.0,0.0,0.0,0.0,0.0,0.0,0.0,0.0,0.0,0.0,0.0,0.0,0.0,0.0,0.0,0.0,0.0,0.0,0.0,0.0,0.0,0.0,0.0,0.0,0.0,0.0,0.0,0.0,0.0,0.0,0.0,0.0,0.0,0.0,0.0,0.0,0.0,0.0,0.0,0.0,0.0,0.0,0.0,0.0,0.0,0.0,0.0,0.0,0.0,0.0,0.0,0.0,0.0,0.0,0.0,0.0,0.0,0.0,0.0,0.0,0.0,0.0,0.0,0.0,0.0,0.0,0.0,0.0,0.0,0.0,0.0,0.0,0.0,0.0,0.0,0.0,0.0,0.0,0.0,0.0,0.0,0.0,0.0,0.0,0.0,0.0,0.0,0.0,0.0,0.0,0.0,0.0,0.0,0.0,0.0,0.0,0.0,0.0,0.0,0.0,0.0,0.0,0.0,0.0,0.0,0.0,0.0,0.0,0.0,0.0,0.0,0.0,0.0,0.0,0.0,0.0,0.0,0.0,0.0,0.0,0.0,0.0,0.0,0.0,0.0,0.0,0.0,0.0,0.0,0.0,0.0,0.0,0.0,0.0,0.0,0.0,0.0,0.0,0.0,0.0,0.0,0.0,0.0,0.0,0.0,0.0,0.0,0.0,0.0,0.0,0.0,0.0,0.0,0.0,0.0,0.0,0.0,0.0,0.0,0.0,0.0,0.0,0.0,0.0,0.0,0.0,0.0,0.0,0.0,0.0,0.0,0.0,0.0,0.0,0.0,0.0,0.0,0.0,0.0,0.0,0.0,0.0,0.0,0.0,0.0,0.0,0.0,0.0,0.0,0.0,0.0,0.0,0.0,0.0,0.0,0.0,0.0,0.0,0.0,0.0,0.0,0.0,0.0,0.0,0.0,0.0,0.0,0.0,0.0,0.0,0.0,0.0,0.0,0.0,0.0,0.0,0.0,0.0,0.0,0.0,0.0,0.0,0.0,0.0,0.0,0.0,0.0,0.0,0.0,0.0,0.0,0.0,0.0,0.0,0.0,0.0,0.0,0.0,0.0,0.0,0.0,0.0,0.0,0.0,0.0,0.0,0.0,0.0,0.0,0.0,0.0,0.0,0.0,0.0,0.0,0.0,0.0,0.0,0.0,0.0,0.0,0.0,0.0,0.0,0.0,0.0,0.0,0.0,0.0,0.0,0.0,0.0,0.0,0.0,0.0,0.0,0.0,0.0,0.0,0.0,0.0,0.0,0.0,0.0,0.0,0.0,0.0,0.0,0.0,0.0,0.0,0.0,0.0,0.0,0.0,0.0,0.0,0.0,0.0,0.0,0.0,0.0,0.0,0.0,0.0,0.0,0.0,0.0,0.0,0.0,0.0,0.0,0.0,0.0,0.0,0.0,0.0,0.0,0.0,0.0,0.0,0.0,0.0,0.0,0.0,0.0,0.0,0.0,0.0,0.0,0.0,0.0,0.0,0.0,0.0,0.0,0.0,0.0,0.0,0.0,0.0,0.0,0.0,0.0,0.0,0.0,0.0,0.0,0.0,0.0,0.0,0.0,0.0,0.0,0.0,0.0,0.0,0.0,0.0,0.0,0.0,0.0,0.0,0.0,0.0,0.0,0.0,0.0,0.0,0.0,0.0,0.0,0.0,0.0,0.0,0.0,0.0,0.0,0.0,0.0,0.0,0.0,0.0,0.0,0.0,0.0,0.0,0.0,0.0,0.0,0.0,0.0,0.0,0.0,0.0,0.0,0.0,0.0,0.0,0.0,0.0,0.0,0.0,0.0,0.0,0.0,0.0,0.0,0.0,0.0,0.0,0.0,0.0,0.0,0.0,0.0,0.0,0.0,0.0,0.0,0.0,0.0,0.0,0.0,0.0,0.0,0.0,0.0,0.0,0.0,0.0,0.0,0.0,0.0,0.0,0.0,0.0,0.0,0.0,0.0,0.0,0.0,0.0,0.0,0.0,0.0,0.0,0.0,0.0,0.0,0.0,0.0,0.0,0.0,0.0,0.0,0.0,0.0,0.0,0.0,0.0,0.0,0.0,0.0,0.0,0.0,0.0,0.0,0.0,0.0,0.0,0.0,0.0,0.0,0.0,0.0,0.0,0.0,0.0,0.0,0.0,0.0,0.0,0.0,0.0,0.0,0.0,0.0,0.0,0.0,0.0,0.0,0.0,0.0,0.0,0.0,0.0,0.0,0.0,0.0,0.0,0.0,0.0,0.0,0.0,0.0,0.0,0.0,0.0,0.0,0.0,0.0,0.0,0.0,0.0,0.0,0.0,0.0,0.0,0.0,0.0,0.0,0.0,0.0,0.0,0.0,0.0,0.0,0.0,0.0,0.0,0.0,0.0,0.0,0.0,0.0,0.0,0.0,0.0,0.0,0.0,0.0,0.0,0.0,0.0,0.0,0.0,0.0,0.0,0.0,0.0,0.0,0.0,0.0,0.0,0.0,0.0,0.0,0.0,0.0,0.0,0.0,0.0,0.0,0.0,0.0,0.0,0.0,0.0,0.0,0.0,0.0,0.0,0.0,0.0,0.0,0.0,0.0,0.0,0.0,0.0,0.0,0.0,0.0,0.0,0.0,0.0,0.0,0.0,0.0,0.0,0.0,0.0,0.0,0.0,0.0,0.0,0.0,0.0,0.0,0.0,0.0,0.0,0.0,0.0,0.0,0.0,0.0,0.0,0.0,0.0,0.0,0.0,0.0,0.0,0.0,0.0,0.0,0.0,0.0,0.0,0.0,0.0,0.0,0.0,0.0,0.0,0.0,0.0,0.0,0.0,0.0,0.0,0.0,0.0,0.0,0.0,0.0,0.0,0.0,0.0,0.0,0.0,0.0,0.0,0.0,0.0,0.0,0.0,0.0,0.0,0.0,0.0,0.0,0.0,0.0,0.0,0.0,0.0,0.0,0.0,0.0,0.0,0.0,0.0,0.0,0.0,0.0,0.0,0.0,0.0,0.0,0.0,0.0,0.0,0.0,0.0,0.0,0.0,0.0,0.0,0.0,0.0,0.0,0.0,0.0,0.0,0.0,0.0,0.0,0.0,0.0,0.0,0.0,0.0,0.0,0.0,0.0,0.0,0.0,0.0,0.0,0.0,0.0,0.0,0.0,0.0,0.0,0.0,0.0,0.0,0.0,0.0,0.0,0.0,0.0,0.0,0.0,0.0,0.0,0.0,0.0,0.0,0.0,0.0,0.0,0.0,0.0,0.0,0.0,0.0,0.0,0.0,0.0,0.0,0.0,0.0,0.0,0.0,0.0,0.0,0.0,0.0,0.0,0.0,0.0,0.0,0.0,0.0,0.0,0.0,0.0,0.0,0.0,0.0,0.0,0.0,0.0,0.0,0.0,0.0,0.0,0.0,0.0,0.0,0.0,0.0,0.0,0.0,0.0,0.0,0.0,0.0,0.0,0.0,0.0,0.0,0.0,0.0,0.0,0.0,0.0,0.0,0.0,0.0,0.0,0.0,0.0,0.0,0.0,0.0,0.0,0.0,0.0,0.0,0.0,0.0,0.0,0.0,0.0,0.0,0.0,0.0,0.0,0.0,0.0,0.0,0.0,0.0,0.0,0.0,0.0,0.0,0.0,0.0,0.0,0.0,0.0,0.0,0.0,0.0,0.0,0.0,0.0,0.0,0.0,0.0,0.0,0.0,0.0,0.0,0.0,0.0,0.0,0.0,0.0,0.0,0.0,0.0,0.0,0.0,0.0,0.0,0.0,0.0,0.0,0.0,0.0,0.0,0.0,0.0,0.0,0.0,0.0,0.0,0.0,0.0]}],[{"header":{"parameterUnit":"kt","parameterCategory":2,"dx":1,"dy":1,"la1":29.587661999999998,"la2":31.0,"lo1":-88.76705300000003,"lo2":-86.6583820000003,"nx":115,"ny":88,"refTime":"2022-09-18T06:00:00:Z","depth":0,"parameterNumber":2,"parameterNumberName":"V-component_of_WINDS"},"data":[11.9419,11.9544,11.9544,11.9492,11.9492,11.9492,11.9492,11.9515,11.9581,11.9622,11.9679,11.9715,11.9731,11.9697,11.9717,11.9757,11.9868,11.9915,11.993,11.9943,11.9964,11.9967,11.997,11.9971,11.9969,11.9964,11.9806,11.8658,11.7122,11.7259,11.7385,11.7318,11.7153,11.6776,11.684,11.6057,11.4984,11.3777,11.2486,11.1706,11.0389,10.9184,10.8756,10.7964,10.7002,10.6667,10.6313,10.6066,10.5877,10.555,10.5072,10.4495,10.3887,10.3481,10.3141,10.2756,10.2314,10.1952,10.1767,10.1348,10.0969,10.061,10.0316,9.9949,9.9443,9.9238,9.8542,9.8006,9.7347,9.6672,9.651,9.6163,9.593,9.5391,9.5152,9.4791,9.4425,9.3677,9.2598,9.1257,8.9662,8.7568,8.5295,8.3658,8.2323,8.1363,8.0206,7.9939,7.964,7.9688,7.984,8.0213,8.0603,8.064,8.0503,7.953,7.9147,7.8421,7.7064,7.5108,7.2804,7.0208,6.821,6.6742,6.5014,6.3304,6.1922,6.0484,5.9075,5.7652,5.6422,5.5427,5.4558,5.3723,5.2674,11.9287,11.9341,11.9417,11.9368,11.9343,11.9343,11.9468,11.9515,11.9515,11.9559,11.9546,11.9679,11.9715,11.9763,11.9845,11.9868,11.9907,11.9943,11.9953,11.9961,11.997,11.9667,11.9741,11.9736,11.9346,11.933,11.9232,11.7394,11.523,11.6269,11.676,11.6792,11.6253,11.5528,11.6066,11.5463,11.3983,11.2911,11.2146,11.1708,11.0372,10.8682,10.75,10.683,10.6313,10.6066,10.5747,10.5416,10.5001,10.4714,10.4267,10.357,10.3081,10.266,10.2298,10.1942,10.1649,10.1372,10.1184,10.0803,10.0512,10.0148,9.9918,9.9443,9.8647,9.8114,9.7347,9.6672,9.6097,9.5694,9.5457,9.5218,9.5098,9.4791,9.4547,9.4302,9.3746,9.3114,9.1705,9.0043,8.8196,8.6168,8.4089,8.2212,8.1074,8.0047,7.9203,7.8936,7.8576,7.874,7.8604,7.8902,7.8725,7.8519,7.864,7.8217,7.8484,7.7584,7.6549,7.4757,7.2624,6.9654,6.7455,6.6169,6.4387,6.2473,6.1084,5.9681,5.8467,5.7038,5.6048,5.522,5.4141,5.3094,5.2041,11.914,11.9276,11.923,11.9183,11.9239,11.9341,11.9368,11.9394,11.9444,11.9439,11.9526,11.9661,11.9731,11.9745,11.9868,11.9898,11.9937,11.9961,11.9817,11.9895,11.9888,11.927,11.8722,11.8246,11.8077,11.7147,11.6887,11.614,11.3864,11.4662,11.5569,11.5262,11.491,11.4551,11.46,11.3406,11.1961,11.1107,11.0392,11.0004,10.9566,10.8535,10.7353,10.595,10.555,10.5211,10.4932,10.4641,10.4267,10.3808,10.3481,10.2901,10.2473,10.1962,10.1762,10.1487,10.1114,10.0803,10.0512,10.0217,9.9716,9.9238,9.8821,9.8397,9.7679,9.5729,9.4982,9.4679,9.4146,9.3903,9.3724,9.3795,9.3737,9.3677,9.3492,9.343,9.3114,9.2473,9.1383,8.9848,8.7937,8.5779,8.3768,8.1892,8.0501,7.9529,7.8802,7.8533,7.799,7.7852,7.7483,7.7331,7.6327,7.5991,7.679,7.7179,7.7329,7.6798,7.6031,7.428,7.2264,6.9283,6.6696,6.5355,6.3652,6.1837,6.0242,5.9075,5.7652,5.6422,5.5635,5.4804,5.3723,5.2674,5.0733,11.8945,11.9088,11.9077,11.9064,11.92,11.9258,11.9287,11.939,11.9394,11.9439,11.9546,11.9715,11.9793,11.9813,11.9923,11.9953,11.9739,11.9363,11.9354,11.9189,11.8405,11.7394,11.691,11.6595,11.6016,11.4836,11.4091,11.3697,11.3139,11.3173,11.357,11.3363,11.3116,11.3349,11.366,11.287,11.147,11.0466,10.9203,10.8018,10.777,10.7413,10.68,10.558,10.4715,10.4271,10.4036,10.3722,10.3328,10.2998,10.2817,10.2473,10.1962,10.1487,10.1208,10.102,10.0443,9.9949,9.9647,9.9341,9.8716,9.8114,9.7569,9.7012,9.5765,9.3819,9.2516,9.2392,9.2079,9.1828,9.1704,9.2025,9.2153,9.2153,9.2215,9.2343,9.2405,9.1825,9.1313,8.9714,8.7864,8.5904,8.383,8.2001,8.035,7.9324,7.8862,7.8126,7.7578,7.6804,7.6534,7.5683,7.4469,7.4486,7.5435,7.5929,7.5795,7.5362,7.5023,7.3468,7.172,6.9469,6.7455,6.5355,6.3064,6.1283,5.9681,5.8264,5.7038,5.6048,5.5012,5.4141,5.3094,5.1794,4.9633,11.85,11.8804,11.884,11.8904,11.917,11.92,11.923,11.939,11.9394,11.9439,11.9528,11.9717,11.9737,11.9481,11.9509,11.9592,11.8822,11.8039,11.7555,11.7546,11.6508,11.5574,11.5092,11.4912,11.4283,11.3829,11.3139,11.2166,11.2788,11.2565,11.1845,11.1295,11.137,11.1736,11.2391,11.1766,11.0766,10.9471,10.7756,10.614,10.5848,10.5292,10.4787,10.4114,10.365,10.3328,10.3069,10.2731,10.2315,10.2139,10.1852,10.1395,10.0855,10.0374,9.988,9.9578,9.9272,9.8858,9.8542,9.8329,9.7569,9.6832,9.6146,9.5048,9.299,9.0675,8.9471,8.9091,8.8898,8.8704,8.8701,8.8885,8.9268,8.9394,8.9967,9.054,9.0793,9.0856,9.0472,8.9892,8.8233,8.697,8.4759,8.2421,8.0896,7.9964,7.919,7.8126,7.7164,7.6042,7.5124,7.41,7.3516,7.3473,7.4037,7.4091,7.4109,7.4034,7.3665,7.2552,7.0759,6.9517,6.8162,6.531,6.2473,6.0685,5.8873,5.7652,5.6422,5.5427,5.4387,5.3514,5.2216,5.0663,4.8675,11.8044,11.8176,11.8336,11.85,11.8729,11.8904,11.914,11.9258,11.9419,11.9581,11.9656,11.9593,11.9224,11.8519,11.8377,11.7903,11.7099,11.6216,11.5699,11.5594,11.5059,11.398,11.3223,11.289,11.239,11.1359,11.0619,11.0576,11.0632,11.0504,11.0842,11.0638,11.0541,11.0761,11.0519,10.9916,10.9109,10.7855,10.6632,10.5217,10.4569,10.4042,10.3499,10.2998,10.283,10.2402,10.1942,10.1852,10.1325,10.0785,10.0498,10.0079,9.9578,9.9272,9.8858,9.8299,9.791,9.745,9.7121,9.7078,9.6424,9.5598,9.4232,9.2308,8.9597,8.7629,8.6548,8.5852,8.5579,8.544,8.5554,8.574,8.6121,8.644,8.7461,8.8413,8.9055,8.9564,8.9627,8.9494,8.8797,8.7594,8.6006,8.3401,8.1636,8.0762,7.9731,7.8601,7.7317,7.573,7.4405,7.3378,7.2786,7.22,7.206,7.2108,7.2109,7.2349,7.2124,7.1355,6.9975,6.8397,6.7076,6.4775,6.188,5.9882,5.806,5.6833,5.5803,5.4766,5.3932,5.2528,5.0946,4.929,4.7533,11.7493,11.7668,11.7962,11.8074,11.8336,11.8617,11.8979,11.9107,11.8811,11.8922,11.8959,11.8513,11.7528,11.6706,11.6689,11.5952,11.5043,11.4259,11.3944,11.3409,11.2814,11.2039,11.1435,11.0901,11.0259,10.9428,10.8995,10.8969,10.897,10.9258,10.9631,10.9596,10.9181,10.9003,10.8278,10.6961,10.6178,10.5425,10.5005,10.4195,10.3729,10.3175,10.266,10.2139,10.1782,10.1232,10.076,10.0471,10.0079,9.9408,9.8997,9.8685,9.8222,9.7897,9.7097,9.6765,9.5649,9.511,9.4768,9.4423,9.3522,9.217,9.022,8.7632,8.5654,8.3984,8.3217,8.2717,8.2584,8.2195,8.2256,8.2864,8.3487,8.4185,8.5006,8.5965,8.6678,8.7256,8.771,8.7772,8.8859,8.7781,8.7718,8.5421,8.3134,8.1866,8.0587,7.9075,7.7609,7.5644,7.4169,7.2932,7.211,7.1039,7.0628,7.0242,7.0446,7.0502,7.0366,6.9863,6.8708,6.7599,6.6314,6.4237,6.1837,5.964,5.7652,5.6422,5.5182,5.435,5.2911,5.1261,4.933,4.7765,4.5928,11.7053,11.7255,11.751,11.7742,11.7999,11.8026,11.8542,11.9163,11.7729,11.7215,11.7242,11.5861,11.5261,11.499,11.4947,11.4562,11.3868,11.2534,11.2064,11.151,11.0647,11.0016,10.9476,10.9277,10.9036,10.8744,10.8405,10.8236,10.7974,10.8161,10.7917,10.7512,10.7628,10.7297,10.6631,10.5696,10.486,10.4274,10.3887,10.3328,10.283,10.2402,10.1691,10.1138,10.0664,10.0079,9.9441,9.8724,9.8269,9.7667,9.7121,9.6967,9.6698,9.631,9.4985,9.3231,9.1084,9.0534,8.9991,9.0,8.9015,8.6935,8.4648,8.3176,8.1697,8.0602,8.0091,7.9911,7.9564,7.9265,7.9146,7.9999,8.0777,8.1274,8.209,8.3124,8.4035,8.4687,8.5215,8.6173,8.7256,8.7959,8.7835,8.7256,8.4957,8.3365,8.1702,8.0005,7.7609,7.5787,7.4023,7.2838,7.1326,6.9989,6.9202,6.8698,6.8678,6.8539,6.8496,6.8509,6.7998,6.699,6.5275,6.3608,6.144,5.9438,5.7243,5.5803,5.4521,5.3046,5.1538,4.9788,4.7528,4.5985,4.3725,11.6459,11.6704,11.7013,11.733,11.7544,11.6861,11.6884,11.7149,11.6139,11.5533,11.5545,11.5036,11.4168,11.3246,11.2927,11.2542,11.1057,11.0298,11.0033,10.9654,10.8845,10.8701,10.8482,10.8405,10.8286,10.8119,10.7974,10.7789,10.7521,10.732,10.7056,10.6781,10.6624,10.6004,10.5275,10.4643,10.4042,10.3338,10.2843,10.2402,10.1712,10.1068,10.0498,9.9811,9.9306,9.8721,9.7989,9.6977,9.558,9.4577,9.3545,9.2193,9.1725,9.137,9.0695,9.0194,8.8812,8.8316,8.744,8.7189,8.4399,8.1769,8.0045,7.9205,7.8755,7.7952,7.7578,7.7243,7.6885,7.6523,7.6157,7.7002,7.7328,7.6904,7.7995,7.9567,8.062,8.1669,8.2397,8.4171,8.5374,8.6594,8.7173,8.6409,8.5768,8.4293,8.2897,8.034,7.783,7.593,7.4113,7.2483,7.0812,6.9467,6.8248,6.7473,6.677,6.6474,6.6392,6.6576,6.6099,6.554,6.4135,6.2627,6.0643,5.863,5.6628,5.4991,5.3448,5.1982,5.0168,4.7916,4.5754,4.3647,4.1414,11.6076,11.628,11.6583,11.6404,11.5673,11.5097,11.5198,11.549,11.4928,11.4359,11.3897,11.3099,11.2173,11.1423,11.0848,11.025,10.9158,10.877,10.8669,10.848,10.8286,10.8044,10.7914,10.7854,10.7714,10.7521,10.732,10.7163,10.7056,10.6593,10.6492,10.6313,10.5812,10.4999,10.4198,10.3499,10.3022,10.2347,10.1731,10.1092,10.0401,9.9642,9.8724,9.7724,9.7232,9.6178,9.4913,9.3686,9.254,9.1476,9.0306,8.9063,8.8384,8.801,8.7316,8.6241,8.6051,8.5671,8.4399,8.2973,8.0647,7.8444,7.6606,7.6465,7.6208,7.5785,7.5357,7.5014,7.4582,7.4146,7.3617,7.4348,7.4494,7.4057,7.4663,7.6189,7.7136,7.8218,7.9411,8.1057,8.2805,8.3838,8.5068,8.4577,8.4871,8.3899,8.2168,7.9866,7.8322,7.6504,7.4113,7.2333,7.0349,6.8784,6.7348,6.625,6.5488,6.4867,6.4749,6.4692,6.416,6.3622,6.2517,6.1397,5.964,5.7816,5.6227,5.4557,5.2738,5.0398,4.8087,4.5873,4.3546,4.1132,3.9376,11.5742,11.5878,11.6323,11.4841,11.2713,11.2989,11.3575,11.4028,11.3998,11.3262,11.1922,11.0546,10.9563,10.9344,10.9295,10.8886,10.833,10.817,10.8001,10.7854,10.7592,10.7496,10.7371,10.7142,10.6928,10.6837,10.6535,10.6299,10.619,10.5803,10.5543,10.5348,10.4642,10.3898,10.3093,10.2244,10.1439,10.0551,9.9831,9.9128,9.821,9.7271,9.6018,9.4933,9.411,9.2901,9.1617,9.0197,8.904,8.7937,8.6872,8.5736,8.5026,8.4828,8.3932,8.2544,8.2483,8.1211,7.9116,7.6746,7.573,7.4695,7.4146,7.4,7.3617,7.3322,7.297,7.2914,7.2617,7.2168,7.1867,7.2018,7.2018,7.2018,7.2523,7.3489,7.3932,7.4833,7.5902,7.7336,7.8933,8.0381,8.1822,8.3047,8.3382,8.2589,8.1176,8.0084,7.8874,7.6735,7.4023,7.1977,6.9986,6.8256,6.6539,6.5111,6.4042,6.322,6.2944,6.3003,6.2554,6.185,6.0982,6.0076,5.8306,5.6401,5.5059,5.3842,5.1218,4.8595,4.6213,4.4,4.1014,3.8961,3.7949,11.4738,11.3929,11.4524,11.3689,11.2046,11.177,11.2007,11.2231,11.1599,11.0611,10.9929,10.9295,10.875,10.8515,10.8255,10.797,10.7733,10.7592,10.7347,10.7089,10.6819,10.6593,10.6299,10.6055,10.593,10.5609,10.5477,10.5404,10.5275,10.4929,10.4497,10.3903,10.3032,10.2032,10.1185,10.029,9.8922,9.7355,9.6321,9.537,9.4036,9.2975,9.1897,9.147,9.0522,8.9233,8.8299,8.6611,8.5423,8.4222,8.2946,8.1476,8.0689,8.0166,7.958,7.9205,7.8891,7.85,7.6827,7.4669,7.2672,7.2128,7.1771,7.162,7.1468,7.1316,7.1164,7.0957,7.1011,7.0497,6.9256,6.9879,7.0189,6.9412,6.9932,7.0497,7.0957,7.162,7.2617,7.3652,7.5041,7.6762,7.8218,7.9588,7.9604,7.857,7.8077,7.8241,7.7503,7.6017,7.3617,7.1674,6.9518,6.7618,6.5771,6.4231,6.2811,6.2145,6.1524,6.1289,6.077,6.0445,5.9595,5.83,5.6694,5.5159,5.3315,5.1334,4.9063,4.6818,4.4836,4.2847,4.0214,3.824,3.7169,11.3211,11.1896,11.1776,11.1134,11.0168,11.0133,11.0378,11.0562,10.987,10.9254,10.9015,10.8405,10.7937,10.7584,10.7249,10.6941,10.6707,10.6707,10.6345,10.6117,10.5867,10.5536,10.5202,10.4926,10.4642,10.4424,10.4202,10.4126,10.4051,10.3507,10.3185,10.1961,10.0481,9.9604,9.8655,9.7693,9.5613,9.3799,9.2371,9.1486,9.0104,8.916,8.8299,8.7728,8.6492,8.599,8.4729,8.3025,8.1809,8.0653,7.9296,7.8167,7.7281,7.6804,7.6324,7.5984,7.5842,7.5357,7.4292,7.2523,7.0758,7.0141,6.9518,6.9309,6.9309,6.9152,6.9204,6.9047,6.889,6.8363,6.7245,6.7726,6.7886,6.7136,6.7136,6.7726,6.8363,6.8995,6.9879,7.0903,7.2168,7.3414,7.4777,7.6189,7.5413,7.484,7.57,7.6125,7.5815,7.4695,7.2877,7.0858,6.889,6.6863,6.4731,6.3223,6.1739,6.0888,6.0066,5.9399,5.8676,5.832,5.7508,5.6218,5.4941,5.314,5.1316,4.898,4.6979,4.5103,4.3379,4.1605,4.0015,3.8038,3.652,11.1245,10.9645,10.8664,10.7935,10.7496,10.8277,10.889,10.9442,10.929,10.9041,10.8568,10.7734,10.6867,10.6314,10.5958,10.5593,10.5275,10.528,10.5069,10.4785,10.4643,10.4276,10.3974,10.3665,10.3427,10.3104,10.2856,10.2604,10.2261,10.136,9.9749,9.8587,9.6893,9.6692,9.5738,9.3952,9.1749,9.0155,8.8363,8.7498,8.6494,8.5673,8.472,8.3464,8.2829,8.1809,7.9673,7.9203,7.8533,7.7637,7.6769,7.5868,7.5071,7.4638,7.4203,7.3764,7.3617,7.2672,7.1674,7.0296,6.9414,6.8626,6.783,6.7297,6.7136,6.6863,6.6539,6.6162,6.6162,6.5835,6.5343,6.5178,6.5178,6.4515,6.43,6.4963,6.5457,6.6112,6.7084,6.8153,6.9412,7.0651,7.2086,7.2086,7.1565,7.1867,7.2562,7.3708,7.3414,7.347,7.1771,7.0087,6.8097,6.5999,6.3896,6.2034,6.0484,5.9443,5.847,5.7736,5.6908,5.5889,5.5166,5.4164,5.2933,5.1148,4.9288,4.691,4.4669,4.3215,4.2033,4.1041,3.9645,3.7635,3.6109,10.8018,10.5419,10.5934,10.6506,10.7098,10.818,10.888,10.9188,10.894,10.8421,10.7762,10.6875,10.6019,10.5331,10.4713,10.4278,10.4051,10.3974,10.3586,10.3195,10.3022,10.2688,10.2276,10.2086,10.1731,10.1369,10.1114,10.0695,9.968,9.7765,9.5613,9.4398,9.287,9.1632,9.0718,8.9435,8.8256,8.6621,8.4653,8.2815,8.1293,8.0374,7.9536,7.8814,7.803,7.7361,7.6849,7.6513,7.601,7.5214,7.4783,7.4348,7.3525,7.2932,7.2633,7.2333,7.1729,7.0604,6.9047,6.8149,6.7025,6.6213,6.5557,6.5557,6.4896,6.4398,6.4231,6.3848,6.3848,6.3344,6.2668,6.2498,6.2328,6.2158,6.1769,6.1987,6.2281,6.2959,6.3918,6.5029,6.6336,6.7783,6.7942,6.8101,6.8417,6.8785,6.9724,7.0858,7.1316,7.1771,7.0343,6.8942,6.6923,6.5013,6.2837,6.1004,5.9263,5.8071,5.7001,5.6302,5.5416,5.4429,5.3178,5.2064,5.1075,4.9185,4.6979,4.4669,4.2428,4.1763,4.106,4.0367,3.9192,3.7231,3.5672,10.4733,10.3409,10.4498,10.575,10.6949,10.8074,10.876,10.8848,10.8364,10.7612,10.6675,10.575,10.4778,10.3831,10.3114,10.2604,10.2347,10.2103,10.175,10.132,10.1114,10.0835,10.0262,9.997,9.9673,9.9271,9.8998,9.821,9.5518,9.2995,9.1464,9.0675,8.8941,8.7562,8.7063,8.5156,8.4125,8.2767,8.0903,7.866,7.7243,7.6373,7.601,7.5585,7.5157,7.4927,7.4437,7.4203,7.382,7.3378,7.2728,7.2428,7.188,7.1272,7.0812,7.0658,6.9674,6.8415,6.6863,6.6539,6.5885,6.5227,6.4896,6.4398,6.344,6.3102,6.2546,6.2328,6.2328,6.1987,6.1474,6.0957,6.0311,5.9788,5.9742,5.9742,5.9742,6.0265,6.0911,6.1893,6.3031,6.3367,6.3654,6.3987,6.4485,6.5308,6.6821,6.7783,6.8627,6.8941,6.8261,6.7041,6.5422,6.3702,6.1551,5.9742,5.8027,5.6419,5.5516,5.4589,5.3824,5.2627,5.1258,5.0066,4.889,4.7017,4.4636,4.2782,4.169,4.0782,4.0097,3.923,3.8514,3.6626,3.5217,10.1802,10.2759,10.3979,10.5437,10.6875,10.8007,10.8524,10.8597,10.7859,10.6753,10.5627,10.4208,10.3133,10.2205,10.1207,10.0429,10.0039,9.9842,9.9573,9.9031,9.8792,9.8412,9.7785,9.7315,9.6583,9.5825,9.5872,9.3381,9.0534,8.8863,8.7873,8.6936,8.5477,8.4434,8.3023,8.1144,7.9688,7.8616,7.6955,7.5443,7.4437,7.3798,7.3414,7.3118,7.3025,7.2728,7.2278,7.2128,7.2032,7.1577,7.0912,7.0296,6.9883,6.91,6.8626,6.7669,6.6863,6.6213,6.6049,6.5721,6.5062,6.4613,6.4398,6.3945,6.2763,6.191,6.1395,6.1395,6.0831,6.0484,5.9962,5.9613,5.9087,5.8381,5.745,5.7093,5.7315,5.7983,5.8293,5.9127,5.9127,5.9302,5.9652,6.0173,6.0865,6.2403,6.3918,6.4798,6.5522,6.5659,6.5296,6.4647,6.3334,6.1732,5.9817,5.8293,5.6778,5.4971,5.3874,5.3033,5.1927,5.0684,4.9239,4.7705,4.6316,4.4756,4.2621,4.1353,4.0703,3.9781,3.8879,3.8154,3.7497,3.6268,3.4826,10.0855,10.1891,10.3364,10.4959,10.6629,10.7904,10.8607,10.8469,10.7432,10.6135,10.4629,10.2828,10.127,10.0124,9.9234,9.8307,9.7476,9.7121,9.6654,9.6071,9.5729,9.4919,9.3976,9.3231,9.2602,9.1829,9.1202,8.9556,8.6177,8.4591,8.357,8.2666,8.0762,7.9265,7.8621,7.7187,7.5759,7.4518,7.3266,7.2523,7.1771,7.1164,7.0604,7.0349,7.0349,7.0349,7.0194,7.0194,7.0194,7.0039,6.9727,6.9414,6.8942,6.8626,6.7669,6.6376,6.5885,6.5557,6.5227,6.478,6.428,6.3609,6.3102,6.2252,6.1395,6.0877,6.0182,5.8956,5.8249,5.7849,5.7672,5.6778,5.6281,5.592,5.5153,5.4788,5.5153,5.5516,5.5835,5.5654,5.5473,5.5835,5.6512,5.7049,5.8293,5.9826,6.0692,6.1551,6.2144,6.2477,6.2284,6.1738,6.0997,5.9577,5.8378,5.6871,5.5111,5.3506,5.2582,5.1278,4.9963,4.8826,4.7105,4.5823,4.4358,4.2593,4.0811,3.9133,3.9053,3.8498,3.7637,3.677,3.5813,3.4747,3.361,10.0079,10.1185,10.2796,10.456,10.6327,10.7668,10.8303,10.8198,10.6978,10.5491,10.3406,10.0764,9.8598,9.7043,9.5505,9.3932,9.2952,9.255,9.2261,9.1659,9.1351,9.0654,8.9711,8.9459,8.8763,8.7501,8.5297,8.3014,8.1502,8.0481,7.9835,7.8916,7.7259,7.5868,7.487,7.391,7.2877,7.2333,7.1729,7.1119,7.0658,7.0349,6.9883,6.9571,6.9414,6.9257,6.91,6.91,6.91,6.8784,6.8467,6.8149,6.783,6.7399,6.6539,6.5277,6.4946,6.478,6.428,6.4112,6.3609,6.2763,6.2376,6.1692,6.0704,6.0008,5.9308,5.8071,5.6778,5.6058,5.5697,5.5153,5.4423,5.3874,5.3731,5.3547,5.3362,5.3362,5.3322,5.2912,5.2912,5.3281,5.3649,5.4565,5.5654,5.6555,5.7628,5.8333,5.8925,5.8994,5.889,5.855,5.847,5.7364,5.6876,5.525,5.369,5.2397,5.1091,4.9774,4.8445,4.7872,4.6299,4.3967,4.2001,4.0413,3.8843,3.7663,3.7422,3.7139,3.5925,3.4947,3.4164,3.3511,3.224,9.9408,10.0716,10.2362,10.4136,10.6006,10.7396,10.7765,10.7349,10.6102,10.4203,10.1524,9.8066,9.5371,9.3444,9.0911,8.916,8.8444,8.8073,8.7569,8.706,8.6803,8.6231,8.5524,8.5269,8.4363,8.2682,8.0195,7.7971,7.7302,7.6929,7.6606,7.5785,7.4582,7.3764,7.3025,7.188,7.1272,7.0658,7.0402,7.0092,6.978,6.9624,6.9467,6.91,6.91,6.8942,6.8784,6.8626,6.8626,6.8201,6.756,6.7187,6.7187,6.6863,6.6049,6.5277,6.4946,6.4613,6.4112,6.3777,6.3102,6.2376,6.1863,6.1176,6.0137,5.9483,5.8558,5.7493,5.6419,5.5516,5.4423,5.3874,5.3322,5.2767,5.2437,5.2211,5.1878,5.1691,5.1691,5.0677,5.0716,5.0904,5.1652,5.2397,5.3281,5.4382,5.5292,5.5939,5.6224,5.6183,5.6094,5.5877,5.5791,5.5738,5.5401,5.3893,5.2357,5.1239,4.9585,4.8071,4.7033,4.6456,4.4713,4.1969,3.9815,3.8441,3.7433,3.642,3.5931,3.5322,3.4158,3.2936,3.22,3.1615,3.0569,9.9101,10.0498,10.2032,10.3991,10.5951,10.7332,10.7208,10.5954,10.4383,10.1611,9.7836,9.4578,9.1824,8.9528,8.7565,8.6489,8.5324,8.4599,8.3622,8.3079,8.2805,8.2047,8.1231,8.0441,7.9169,7.5642,7.4897,7.4348,7.4146,7.3708,7.4,7.3561,7.2877,7.2483,7.2032,7.1173,7.0402,6.9727,6.9467,6.9152,6.8836,6.8836,6.8836,6.8678,6.8678,6.8678,6.8626,6.8519,6.836,6.8201,6.8041,6.8041,6.7881,6.7348,6.6539,6.6539,6.5721,6.5062,6.4564,6.3777,6.2763,6.1692,6.1004,5.9962,5.9087,5.8381,5.7715,5.6957,5.6239,5.5516,5.3915,5.2993,5.2064,5.1691,5.1317,5.1091,5.0942,5.0904,5.019,4.9016,4.9206,4.9395,4.9774,5.034,5.1091,5.2025,5.2952,5.3669,5.3831,5.3863,5.3919,5.3967,5.4131,5.3968,5.4025,5.2917,5.1348,4.9735,4.7893,4.6329,4.5158,4.4054,4.2139,3.9573,3.8009,3.7028,3.6014,3.4995,3.423,3.367,3.2743,3.1737,3.077,2.9639,2.893,9.8789,10.0401,10.1945,10.3485,10.475,10.601,10.5708,10.4043,10.2295,9.9414,9.5929,9.1638,8.8437,8.58,8.3199,8.1441,8.0298,7.939,7.8687,7.8319,7.7975,7.7541,7.6877,7.5611,7.4529,7.3043,7.2633,7.2483,7.2333,7.2128,7.1977,7.188,7.1479,7.1173,7.0866,7.0402,6.978,6.9414,6.91,6.8942,6.8995,6.9152,6.931,6.931,6.9467,6.9467,6.9257,6.91,6.91,6.91,6.9571,6.9727,6.9257,6.8415,6.7669,6.7187,6.6376,6.5721,6.4896,6.3945,6.2593,6.1004,6.0137,5.9087,5.8204,5.7493,5.7001,5.6419,5.5697,5.4788,5.3178,5.2104,5.1691,5.1317,5.113,5.0942,5.0378,4.9622,4.8635,4.8063,4.8027,4.8027,4.8063,4.8826,4.9585,4.9963,5.0865,5.1748,5.1765,5.1845,5.2017,5.225,5.2359,5.2588,5.2774,5.1879,5.0298,4.8494,4.647,4.471,4.3045,4.133,3.9676,3.846,3.7231,3.6014,3.479,3.3767,3.2888,3.2237,3.158,3.0459,2.9619,2.8361,2.7531,9.848,10.0133,10.1653,10.2755,10.3339,10.4333,10.3786,10.2014,9.9881,9.6923,9.3298,8.8832,8.5007,8.207,7.8966,7.6732,7.5984,7.484,7.3944,7.3505,7.3505,7.321,7.2523,7.1577,7.0812,7.0812,7.1119,7.1119,7.0966,7.0812,7.0658,7.0557,7.0247,6.9989,6.9936,6.9727,6.9414,6.9414,6.9624,6.9624,6.9624,6.9936,7.0301,7.0402,7.0712,7.0712,7.0504,7.0349,7.0236,7.0112,7.0351,7.0339,6.9584,6.8773,6.8156,6.7528,6.6727,6.5798,6.5227,6.4064,6.2546,6.0831,5.9962,5.8911,5.7672,5.6957,5.6419,5.592,5.4971,5.3874,5.2622,5.2104,5.1356,5.0755,5.0755,5.0378,4.9622,4.8298,4.7499,4.6997,4.677,4.6542,4.6684,4.7489,4.7872,4.8063,4.8867,4.9545,4.9837,4.9937,5.0214,5.0703,5.0918,5.1208,5.122,5.0548,4.9207,4.7525,4.5089,4.3222,4.0979,3.9144,3.8312,3.7435,3.6217,3.4995,3.3972,3.297,3.2059,3.1254,3.0498,3.0024,2.9016,2.7316,2.6075,9.8243,9.9034,10.0857,10.1755,10.2146,10.2848,10.1838,9.963,9.7034,9.3352,8.8854,8.4618,8.1165,7.7402,7.5868,7.438,7.3414,7.2373,7.2073,7.1771,7.1316,7.0397,6.9518,6.8942,6.8836,6.8836,6.8995,6.9257,6.9414,6.9571,6.9571,6.978,6.978,6.9624,6.9883,6.9518,6.9414,6.9465,6.9773,6.9821,6.9821,7.0129,7.0534,7.0839,7.099,7.1142,7.1402,7.1553,7.1529,7.1069,7.0314,6.9971,6.9344,6.8039,6.758,6.7773,6.6803,6.5956,6.5798,6.4251,6.2837,6.1348,6.0137,5.9263,5.8204,5.6957,5.6058,5.592,5.4606,5.3322,5.2397,5.0942,5.0378,5.0001,4.9622,4.9053,4.7953,4.7253,4.6506,4.6158,4.6116,4.577,4.5895,4.6334,4.6912,4.6912,4.7799,4.8114,4.8195,4.8533,4.9017,4.9231,4.9498,4.9885,4.9469,4.9055,4.775,4.6304,4.3883,4.1574,3.9388,3.8124,3.7263,3.6162,3.5199,3.4203,3.2945,3.2242,3.1578,3.0739,2.9844,2.952,2.8938,2.7243,2.5881,9.7962,9.955,10.0397,10.0628,10.0639,10.0761,9.9129,9.6269,9.3256,8.9685,8.5781,8.1781,7.8264,7.547,7.3358,7.1771,7.0912,6.9986,6.9674,6.9674,6.9361,6.8626,6.783,6.7721,6.7881,6.7881,6.8519,6.8784,6.8942,6.931,6.978,7.0039,7.0247,7.0402,7.0551,7.022,6.979,6.9682,6.9294,6.9119,6.9214,6.9712,7.0153,7.039,7.0915,7.1203,7.1402,7.149,7.2027,7.2346,7.1923,7.1382,7.0755,6.9642,6.8782,6.8054,6.6671,6.582,6.5325,6.3959,6.2432,6.1209,6.0137,5.8911,5.7672,5.6598,5.5739,5.5558,5.4057,5.3137,5.2211,5.1091,5.019,4.9622,4.8672,4.788,4.7028,4.6271,4.5806,4.5319,4.5005,4.4669,4.549,4.5753,4.5947,4.5947,4.672,4.689,4.6639,4.7427,4.7997,4.7561,4.7675,4.7527,4.7083,4.6641,4.5356,4.4661,4.2638,4.0447,3.879,3.7397,3.649,3.5606,3.4381,3.3175,3.2351,3.1364,3.1021,3.0566,2.9459,2.8808,2.8591,2.7378,2.5971,9.7475,9.9432,9.9707,9.9358,9.8629,9.7878,9.5793,9.2774,8.9564,8.6317,8.2828,7.9137,7.6117,7.3708,7.1316,6.983,6.9257,6.8519,6.8041,6.8041,6.7989,6.7509,6.7025,6.7238,6.756,6.7721,6.836,6.8626,6.8784,6.8889,6.9197,7.0228,6.97,6.9995,7.0748,6.9876,6.9494,6.9477,6.8912,6.8672,6.9101,6.9582,6.9894,7.0257,7.1006,7.1417,7.1633,7.1789,7.2418,7.333,7.2965,7.2325,7.1429,7.0372,6.9189,6.8242,6.683,6.5687,6.4943,6.3465,6.187,6.0632,5.9623,5.8333,5.6789,5.611,5.5558,5.5012,5.3731,5.2622,5.1839,5.1091,5.0151,4.9053,4.8254,4.72,4.621,4.5194,4.4555,4.4278,4.3829,4.3909,4.4373,4.4805,4.4976,4.5171,4.5559,4.607,4.5738,4.6193,4.6152,4.5878,4.5601,4.5059,4.4738,4.4087,4.3511,4.2676,4.0942,3.8878,3.7907,3.6519,3.5611,3.4817,3.3587,3.2557,3.1524,3.0695,3.0573,3.0341,2.9674,2.8974,2.8507,2.7703,2.6293,9.6563,9.7783,9.8502,9.757,9.5764,9.4175,9.2081,8.934,8.6284,8.2931,7.9732,7.6774,7.409,7.1826,7.0349,6.9414,6.8836,6.8041,6.7721,6.7721,6.7348,6.7187,6.7025,6.7187,6.7457,6.7726,6.7994,6.8469,6.868,6.8201,6.8085,6.909,6.8431,6.7876,6.8912,6.8549,6.8672,6.9046,6.9219,6.9334,6.9698,7.0309,7.0859,7.1268,7.1885,7.2359,7.2638,7.3172,7.3482,7.3175,7.2874,7.2285,7.0962,6.9613,6.9099,6.856,6.7086,6.6041,6.4923,6.3252,6.1572,6.0095,5.8814,5.7695,5.701,5.5996,5.5166,5.4845,5.3506,5.2064,5.1091,5.034,4.9585,4.8672,4.799,4.6865,4.5207,4.3861,4.3101,4.2755,4.2486,4.257,4.2997,4.3633,4.39,4.4196,4.4587,4.4908,4.4805,4.4622,4.4434,4.4105,4.3551,4.3171,4.2356,4.19,4.0938,4.008,3.8402,3.7248,3.6338,3.5147,3.4138,3.3761,3.297,3.1938,3.0902,3.0302,2.9947,2.9911,2.9584,2.9161,2.8628,2.778,2.6599,9.6283,9.7433,9.666,9.4984,9.273,9.0546,8.7927,8.4843,8.2233,7.9727,7.7126,7.4843,7.3025,7.1577,7.0039,6.9257,6.91,6.8041,6.7881,6.8308,6.8149,6.7989,6.7669,6.7989,6.8155,6.7947,6.7621,6.7706,6.7954,6.8027,6.8548,6.9365,6.9069,6.9219,7.0201,6.9745,6.9486,6.9452,6.9229,6.9357,6.9936,7.0195,7.0522,7.109,7.1594,7.1909,7.2343,7.414,7.5079,7.4941,7.4797,7.4187,7.3119,7.1852,7.0602,6.915,6.7507,6.6177,6.4945,6.2994,6.0959,5.9909,5.8433,5.7044,5.6037,5.5354,5.4493,5.3901,5.2814,5.1878,5.0904,5.034,4.9585,4.8445,4.7814,4.6847,4.5584,4.3517,4.2195,4.1625,4.1741,4.1961,4.2581,4.3145,4.3379,4.3804,4.4,4.4129,4.3591,4.3481,4.2705,4.2064,4.1543,4.0809,4.0228,3.9423,3.8656,3.7448,3.6061,3.5374,3.5214,3.4153,3.3638,3.3279,3.2557,3.1524,2.9632,2.926,2.9293,2.92,2.8904,2.8775,2.86,2.7723,2.6832,9.5745,9.6701,9.4976,9.256,8.981,8.698,8.4026,8.092,7.8816,7.6833,7.51,7.3617,7.2578,7.1729,7.0504,6.9674,6.9621,6.8468,6.7997,6.8254,6.8254,6.7945,6.779,6.7997,6.8038,6.7697,6.749,6.7552,6.7933,6.8179,6.8805,6.9664,6.9656,7.0027,7.0787,7.0355,7.0219,7.0357,6.9723,6.9808,7.0602,7.0783,7.1145,7.1563,7.2152,7.2892,7.3826,7.592,7.7102,7.7201,7.73,7.6902,7.5712,7.4652,7.3108,7.1082,6.9202,6.743,6.5737,6.3363,6.1328,5.9741,5.8056,5.6454,5.4931,5.4018,5.3484,5.2769,5.1966,5.1432,5.044,4.9957,4.9207,4.8084,4.7379,4.6604,4.5284,4.3573,4.2071,4.1232,4.1123,4.1352,4.206,4.2235,4.2627,4.3016,4.3016,4.2559,4.2159,4.1763,4.1169,4.0227,3.9257,3.8604,3.8476,3.7956,3.6963,3.5638,3.4339,3.3395,3.3905,3.3735,3.3508,3.3102,3.2204,3.0902,2.8798,2.8111,2.8472,2.8506,2.8663,2.855,2.849,2.778,2.7064,9.4833,9.5387,9.3529,9.0828,8.7441,8.3823,8.0485,7.807,7.6198,7.4814,7.3695,7.2859,7.2247,7.1813,7.0785,7.0696,7.046,6.9276,6.8458,6.8022,6.7476,6.7329,6.7236,6.749,6.7476,6.7353,6.7734,6.8398,6.9027,6.8578,6.8885,6.966,6.9242,6.9403,6.9926,7.0351,7.048,7.1085,7.1205,7.1383,7.203,7.2556,7.3015,7.3294,7.4453,7.6061,7.8287,7.8934,7.9542,7.9894,7.9981,7.9542,7.8659,7.746,7.6035,7.4138,7.2195,6.9877,6.7292,6.4833,6.2116,5.9873,5.7736,5.6095,5.4406,5.3158,5.2387,5.1735,5.1026,5.0247,4.9694,4.9367,4.8733,4.7106,4.685,4.5938,4.4671,4.3988,4.3134,4.1052,4.0816,4.1058,4.1016,4.1168,4.1396,4.1781,4.1589,4.1138,4.0461,4.0131,3.943,3.8925,3.8211,3.7534,3.7049,3.6387,3.5128,3.4041,3.2977,3.2414,3.3143,3.2904,3.2836,3.2798,3.1913,3.0695,2.8589,2.7606,2.8025,2.8175,2.8621,2.8591,2.85,2.8244,2.7297,9.2569,9.5,9.3276,9.0053,8.6343,8.2567,7.9085,7.597,7.4933,7.372,7.2616,7.1944,7.1804,7.1663,7.0868,7.141,7.306,7.2211,7.1189,7.0366,7.0006,6.9586,6.9164,6.9446,6.9084,6.8828,6.9395,6.9799,6.9962,6.9753,7.0149,7.1139,7.0843,7.1085,7.1913,7.2202,7.2548,7.317,7.3619,7.4062,7.4715,7.5037,7.5356,7.6126,7.8194,8.0018,8.1011,8.1654,8.1974,8.2208,8.2428,8.2208,8.161,8.0154,7.8642,7.694,7.4931,7.2583,7.0004,6.7079,6.4288,6.1676,5.9329,5.6854,5.4877,5.3649,5.2517,5.1462,5.0762,5.0201,4.9336,4.8806,4.8395,4.7739,4.6963,4.5803,4.4307,4.3659,4.2528,4.1163,4.0758,4.0724,4.0575,4.0268,4.0244,4.0687,4.0308,3.9832,3.9599,3.9182,3.8957,3.8296,3.726,3.6628,3.6387,3.5128,3.3707,3.3314,3.2612,3.2684,3.2814,3.2139,3.1891,3.2162,3.15,3.0256,2.9007,2.7753,2.7598,2.7442,2.7903,2.8591,2.848,2.8457,2.7315,9.0233,9.3525,9.1595,8.8752,8.5275,8.1989,7.8996,7.6343,7.5511,7.4776,7.4061,7.3618,7.3548,7.3805,7.3373,7.4032,7.527,7.44,7.3435,7.2438,7.2051,7.1469,7.0746,7.0877,7.0543,7.023,7.0552,7.1135,7.1502,7.1678,7.2318,7.3119,7.3345,7.373,7.4607,7.493,7.5292,7.5959,7.6266,7.6771,7.7268,7.7561,7.8448,7.9758,8.1742,8.3081,8.3434,8.4048,8.4367,8.4475,8.467,8.4731,8.4403,8.3219,8.1618,7.9728,7.7424,7.5247,7.2748,6.9643,6.6692,6.4071,6.1055,5.8437,5.5966,5.4291,5.2763,5.1415,5.075,4.9847,4.8734,4.8204,4.7742,4.7306,4.6476,4.544,4.4285,4.3434,4.2761,4.1583,4.1052,4.0816,4.0757,4.0024,3.9759,3.9945,3.9573,3.9069,3.8711,3.8338,3.7817,3.7291,3.6239,3.5489,3.5489,3.3888,3.2822,3.2612,3.217,3.1935,3.1855,3.1242,3.152,3.1778,3.0855,2.9632,2.9424,2.8214,2.6917,2.7103,2.7642,2.8205,2.8319,2.8437,2.7548,8.7637,8.9789,8.8761,8.7022,8.4545,8.1874,7.9883,7.8709,7.7992,7.7724,7.7865,7.7565,7.7416,7.7628,7.8181,7.7926,7.7048,7.612,7.5014,7.3983,7.3271,7.2479,7.1791,7.15,7.1442,7.1739,7.203,7.2716,7.3999,7.4327,7.508,7.6126,7.6164,7.6671,7.7561,7.7754,7.8232,7.8843,7.9025,7.9363,7.9806,8.0241,8.175,8.3976,8.4753,8.4972,8.5579,8.5943,8.6229,8.6474,8.6348,8.6589,8.6542,8.5858,8.4347,8.2014,7.9763,7.752,7.5287,7.2233,6.9091,6.6229,6.311,6.0004,5.7137,5.4931,5.3092,5.161,5.0485,4.9378,4.8216,4.7923,4.7212,4.62,4.5745,4.5065,4.3831,4.3659,4.3106,4.2416,4.1895,4.1583,4.1175,4.0804,4.0014,3.9717,3.9386,3.8647,3.7714,3.7018,3.6659,3.6089,3.4977,3.3678,3.3496,3.2795,3.2062,3.1511,3.0852,3.0178,3.0165,3.0261,3.0968,3.1045,3.0095,2.9424,2.9424,2.8553,2.6957,2.6826,2.7561,2.7921,2.8142,2.8358,2.778,8.2563,8.6274,8.7825,8.7892,8.694,8.5019,8.3291,8.1777,8.1208,8.0622,8.0022,7.9568,8.0519,8.228,8.2325,8.1748,8.0814,7.9759,7.8486,7.7351,7.6511,7.5727,7.4953,7.4633,7.4803,7.5228,7.5375,7.6035,7.6939,7.7586,7.8341,7.9048,7.9339,7.9777,8.0428,8.0612,8.0942,8.1575,8.1802,8.2113,8.2646,8.4088,8.5455,8.6279,8.563,8.5262,8.567,8.4675,8.4297,8.4541,8.4574,8.4648,8.4582,8.4079,8.3299,8.2016,8.0259,7.8536,7.7169,7.4399,7.1257,6.7819,6.4858,6.1817,5.8734,5.6225,5.3902,5.1887,5.0921,5.011,4.917,4.818,4.7181,4.6342,4.5875,4.5329,4.4308,4.4137,4.3794,4.3206,4.2463,4.187,4.1123,3.9881,3.9244,3.9289,3.8674,3.765,3.7345,3.6956,3.6418,3.5909,3.5368,3.4252,3.2795,3.2062,3.1143,3.038,2.985,2.9541,2.9561,2.9533,2.9881,3.0269,2.9407,2.8776,2.8798,2.7543,2.6059,2.6723,2.6965,2.7356,2.7946,2.828,2.7974,7.8417,8.1671,8.4623,8.5997,8.6237,8.5418,8.4474,8.3484,8.3191,8.2901,8.2355,8.1353,8.241,8.5098,8.4968,8.4675,8.4052,8.3157,8.1951,8.0691,7.9796,7.8867,7.8005,7.7688,7.7719,7.826,7.8407,7.8891,7.9603,8.0474,8.1219,8.1847,8.2151,8.2657,8.329,8.3356,8.3629,8.4102,8.4303,8.4143,8.374,8.4849,8.5606,8.5675,8.4956,8.4744,8.485,8.4291,8.3836,8.4001,8.4098,8.4098,8.4055,8.3706,8.3171,8.2387,8.0995,7.9397,7.7448,7.5263,7.2479,6.9012,6.5927,6.2854,5.9617,5.7288,5.4838,5.2481,5.1405,5.0435,4.9129,4.818,4.7181,4.6174,4.5837,4.5329,4.4478,4.4345,4.3988,4.3144,4.2739,4.2,4.0805,3.9732,3.9065,3.8985,3.8487,3.7914,3.7817,3.7313,3.6598,3.6059,3.5518,3.4433,3.2795,3.1695,3.0959,3.0035,2.9505,2.9142,2.8868,2.869,2.8913,2.9428,2.891,2.8514,2.8316,2.7334,2.6514,2.6887,2.7158,2.7101,2.769,2.8391,2.8649,7.4391,7.6384,7.9695,8.1991,8.3038,8.3291,8.3419,8.3512,8.3523,8.3656,8.2841,8.1982,8.2513,8.499,8.5832,8.6159,8.6122,8.6014,8.5066,8.3685,8.2868,8.1959,8.0901,8.0581,8.0581,8.0778,8.1117,8.1533,8.1933,8.2658,8.3399,8.413,8.4351,8.4599,8.5294,8.5418,8.5592,8.601,8.6201,8.5338,8.361,8.3489,8.3514,8.3689,8.3708,8.3699,8.3858,8.3871,8.3887,8.3927,8.3952,8.4027,8.4052,8.3841,8.3287,8.2465,8.147,7.9807,7.6973,7.5093,7.2531,6.9572,6.6191,6.2993,6.02,5.7691,5.5303,5.2957,5.1566,5.011,4.8635,4.7848,4.7181,4.6174,4.5837,4.5329,4.4687,4.4478,4.3839,4.2518,4.2538,4.1837,4.0579,3.9946,3.9574,3.8995,3.845,3.8159,3.8234,3.7721,3.6956,3.6239,3.5338,3.4252,3.2795,3.2245,3.1143,2.9876,2.9319,2.8931,2.8298,2.8003,2.8062,2.8792,2.8597,2.8478,2.835,2.7962,2.7543,2.7648,2.7282,2.6925,2.7757,2.9037,2.9573,6.7992,7.0599,7.3597,7.5957,7.7766,7.9035,7.9798,8.0067,7.9321,7.7496,7.4999,7.5734,7.7362,7.9704,8.264,8.4508,8.5561,8.6655,8.6755,8.5886,8.5148,8.4303,8.3576,8.3435,8.3503,8.3772,8.4088,8.401,8.345,8.3845,8.3657,8.2969,8.3187,8.347,8.3633,8.3708,8.3858,8.3889,8.4351,8.443,8.4187,8.4138,8.4289,8.4405,8.3268,8.267,8.2694,8.1582,8.0915,8.0915,8.0919,8.0899,8.0917,8.0589,7.9972,7.9224,7.8981,7.8221,7.6584,7.3924,7.0961,6.7877,6.4858,6.2011,5.9324,5.633,5.3746,5.2047,5.0598,4.9457,4.847,4.7848,4.7388,4.6886,4.6342,4.5837,4.5329,4.4989,4.4347,4.3223,4.2714,4.1678,4.0211,3.9796,3.955,3.865,3.8353,3.8174,3.7887,3.7497,3.7072,3.6239,3.4977,3.3707,3.2429,3.1511,3.059,3.022,2.9294,2.8809,2.8392,2.7987,2.8141,2.876,2.877,2.8664,2.8842,2.8307,2.792,2.8193,2.7858,2.7577,2.8464,2.9226,2.9322,6.2039,6.3918,6.6559,6.8496,6.9856,7.188,7.331,7.3682,6.944,6.6927,6.6382,6.8456,7.1401,7.4847,7.8473,8.1141,8.3233,8.565,8.6523,8.6236,8.5675,8.5129,8.4416,8.3706,8.3552,8.3759,8.4064,8.3909,8.3447,8.3665,8.3487,8.287,8.2904,8.3042,8.3097,8.3238,8.3369,8.3384,8.1999,8.1429,8.1708,8.1906,8.2072,8.23,8.1545,8.1169,8.1246,8.0328,7.9943,7.9875,7.9879,7.9877,7.9831,7.9406,7.8623,7.7427,7.6372,7.5163,7.3878,7.1031,6.8159,6.5306,6.294,6.0098,5.6634,5.4326,5.264,5.1083,4.9784,4.8635,4.7515,4.7014,4.655,4.6213,4.5668,4.5176,4.4534,4.4084,4.3261,4.2014,4.1578,4.0822,3.9225,3.9271,3.896,3.7849,3.7885,3.8117,3.7936,3.7463,3.6841,3.6165,3.5129,3.4013,3.2795,3.1695,3.0959,3.022,2.9665,2.9108,2.8575,2.8368,2.8298,2.8579,2.9002,2.9144,2.9069,2.9114,2.9156,2.9104,2.8589,2.8428,2.8854,2.8933,2.8814,5.6882,5.7616,5.9628,6.0767,6.1479,6.3751,6.5311,6.5704,5.7447,5.5368,5.8031,6.0802,6.4734,6.9545,7.3511,7.6977,7.9954,8.3459,8.5266,8.5745,8.5563,8.5321,8.4971,8.363,8.3013,8.3021,8.3163,8.2967,8.2617,8.2652,8.2442,8.2156,8.2025,8.1853,8.2083,8.226,8.2361,8.2221,7.9272,7.7948,7.8412,7.882,7.9197,7.947,7.9665,7.9703,7.9894,7.9939,7.9939,7.9907,7.9933,7.9804,7.9609,7.9091,7.8017,7.6139,7.3523,7.1363,6.9636,6.6824,6.4316,6.2193,6.0286,5.7394,5.3003,5.1871,5.0997,4.9947,4.88,4.7681,4.6342,4.5837,4.546,4.4969,4.446,4.3821,4.3202,4.2427,4.1544,4.0309,4.0015,3.972,3.8713,3.8531,3.8224,3.737,3.7621,3.7943,3.7882,3.7364,3.6539,3.566,3.5126,3.4439,3.3173,3.2529,3.1511,3.059,3.022,2.985,2.9108,2.8785,2.8556,2.8201,2.9154,2.9731,2.9635,3.0188,3.0316,3.0003,2.9379,2.8973,2.9668,2.8786,2.8325,5.3615,5.4046,5.4927,5.556,5.6007,5.7015,5.7335,5.6554,0.0,0.0,0.0,5.2917,5.6467,6.0817,6.7143,7.1973,7.5807,8.0316,8.3736,8.5875,8.5948,8.6515,8.7566,8.721,8.6225,8.4927,8.5036,8.3441,8.0537,8.0225,7.9195,7.7374,7.6837,7.661,7.6651,7.7336,7.6799,7.5277,7.569,7.6475,7.7708,7.8316,7.8842,7.9344,7.9424,7.9584,7.9903,7.9893,7.9913,7.9887,7.9937,7.9723,7.9211,7.8044,7.6207,7.3644,7.0125,6.6973,6.4456,6.1204,5.896,5.8023,5.6513,5.3447,4.8565,4.8305,4.7933,4.7101,4.7181,4.6846,4.5875,4.5668,4.5398,4.4666,4.3926,4.3127,4.2214,4.1414,4.056,3.9723,3.9505,3.9057,3.7952,3.7998,3.7998,3.7537,3.7525,3.7602,3.7414,3.7071,3.6485,3.553,3.4464,3.362,3.2789,3.2199,3.1511,3.1091,3.0564,3.001,2.985,2.948,2.9344,2.9492,2.9838,3.0135,3.0021,3.0507,3.0758,3.0245,3.0368,3.0417,3.0027,2.8963,2.831,4.8651,4.8666,4.877,4.9104,0.0,4.9876,4.9118,4.7445,4.3993,4.3517,4.5631,4.8395,5.2174,5.6574,6.2188,6.7071,7.1355,7.6782,8.0622,8.2977,8.4174,8.5139,8.5957,8.4885,8.3401,8.1725,8.1431,7.9815,7.7004,7.6275,7.5235,7.3771,7.292,7.2545,7.2628,7.2935,7.2352,7.0943,7.2866,7.4761,7.6362,7.7392,7.8262,7.8948,7.9291,0.0,0.0,0.0,0.0,0.0,0.0,0.0,0.0,0.0,0.0,6.9294,6.4803,6.0569,5.6715,5.3657,5.1824,5.1084,5.054,4.7892,4.2663,4.3444,4.4116,4.4154,4.4193,4.3902,4.324,4.3074,4.2887,4.2312,4.1581,4.0924,4.0072,3.9445,3.8678,3.8006,3.7865,3.7844,3.7573,3.7691,3.7691,3.7501,3.7501,3.737,3.6939,3.6569,3.6363,3.5794,3.4451,3.3328,3.2661,3.1892,3.1223,3.1006,3.0878,3.0619,3.0538,3.0405,3.0405,3.0246,3.0796,3.1106,3.1175,3.1277,3.1689,3.2018,3.1534,3.0802,3.0187,2.9214,2.8554,4.4429,4.3881,4.3706,4.368,4.384,4.2976,4.158,3.9929,3.9102,3.9647,4.1467,4.4482,4.8401,5.2826,5.7338,6.205,6.6858,7.2228,7.6347,7.9219,8.0983,8.2205,8.2879,8.0963,7.9071,7.734,7.6513,7.4942,7.2779,7.1683,7.0824,6.9884,6.8732,6.8368,6.8486,0.0,0.0,0.0,7.0158,7.2895,7.4897,7.6369,7.7727,7.8616,7.915,0.0,7.9681,7.9695,7.9761,7.9864,7.9575,0.0,0.0,0.0,0.0,0.0,0.0,0.0,0.0,0.0,0.0,0.0,4.1543,3.936,3.5729,3.756,3.9426,4.0795,4.1031,4.0868,4.038,4.038,4.0145,3.964,3.9279,3.8672,3.7812,3.7389,3.7023,3.6437,3.6334,3.6489,3.7228,3.7383,3.7383,3.7383,3.7501,3.7228,3.6834,3.6679,3.6418,3.6203,3.5106,3.3655,3.2652,3.1772,3.1071,3.0722,3.1061,3.1179,3.0854,3.1195,3.1301,3.0774,3.1511,3.2224,3.2257,3.2309,3.2543,3.3416,3.2193,3.0936,3.0354,2.9565,2.9111,4.3292,4.2625,4.22,4.1891,4.1234,3.6974,3.5575,3.6182,3.5132,3.496,3.5778,3.8916,4.2477,4.6342,5.1219,5.6522,6.201,6.5557,7.0314,7.5928,7.6116,7.7649,7.9906,7.85,7.6672,7.4404,7.2866,7.0721,6.7972,6.6887,6.5613,6.4101,6.3133,6.2643,6.26,5.8973,5.8226,6.0546,6.6529,7.0976,7.3874,7.5707,7.7303,7.8517,7.9053,7.9401,7.968,7.9636,7.9785,7.9827,7.9576,7.75,7.343,6.778,6.1119,0.0,4.548,0.0,0.0,0.0,0.0,0.0,0.0,0.0,0.0,3.0218,3.3401,3.7114,3.9034,3.9854,3.9069,3.9198,3.9081,3.8447,3.7896,3.7458,3.6766,3.6159,3.6125,3.6368,3.6022,3.6022,3.6489,3.6799,3.7074,3.7074,3.7383,3.7691,3.7691,3.7537,3.7264,3.6904,3.5756,3.44,3.3242,3.2278,3.1457,3.1079,3.1291,3.1347,3.1277,3.171,3.2035,3.2062,3.2245,3.2273,3.2327,3.2417,3.2252,3.2082,3.186,3.1417,3.0888,3.0042,2.9362,4.122,4.0569,3.8996,3.7428,3.5982,3.4432,3.3907,3.4305,3.3976,3.3632,3.3601,3.5452,3.8579,4.2634,4.6386,5.0662,5.5058,5.8516,6.2757,6.7406,6.9056,7.0708,7.2571,7.1716,7.031,6.8299,6.6796,6.4899,6.2828,6.1735,6.0465,5.8972,5.817,5.5902,5.2243,5.2075,5.33,5.5824,6.1397,6.6992,7.2554,7.5158,7.7096,7.8486,7.9002,7.9338,7.9629,7.9386,7.8857,7.7891,7.7647,7.345,6.435,5.8435,5.0227,0.0,0.0,0.0,0.0,0.0,0.0,0.0,0.0,0.0,0.0,0.0,3.1132,3.2023,3.4993,3.6992,3.6835,3.7216,3.7479,3.7166,3.7008,3.6713,3.6056,3.5832,3.571,3.5554,3.5363,3.552,3.6022,3.6334,3.6644,3.6919,3.7845,3.8763,3.9068,3.8763,3.8305,3.7998,3.6919,3.5655,3.4495,3.32,3.1889,3.1429,3.1374,3.128,3.1389,3.1924,3.2588,3.2347,3.2795,3.2977,3.2822,3.2702,3.279,3.2309,3.2047,3.1582,3.1632,3.068,3.007,3.8696,3.7812,3.5283,3.3058,3.1566,3.1953,3.225,3.23,3.2326,3.2084,3.1799,3.259,3.4826,3.7992,4.1299,4.4585,4.8057,5.1335,5.5015,5.8972,6.1168,6.2948,6.4423,6.3912,6.3043,6.1718,5.9883,5.8334,5.7027,5.5631,5.4324,5.2852,5.1571,4.8298,4.3533,4.6338,4.9199,5.2046,5.6815,6.2889,7.0178,7.4076,7.6807,7.8393,7.8821,7.915,7.9305,7.8401,7.7069,7.5162,7.3121,6.5915,5.2651,4.5262,0.0,0.0,0.0,0.0,0.0,0.0,0.0,0.0,0.0,0.2012,0.9416,0.0,2.7692,0.0,3.1918,3.4565,3.5035,3.5589,0.0,0.0,3.6241,3.6088,3.5748,3.5594,3.5356,3.525,3.5128,3.5162,3.5832,3.6334,3.6799,3.7228,3.8611,3.9827,4.028,3.9978,3.9675,3.9372,3.8458,3.7383,3.642,3.4703,3.3026,3.1894,3.1801,3.1708,3.1447,3.2076,3.2711,3.2241,3.2796,3.327,3.3117,3.3104,3.2905,3.262,3.2121,3.1804,3.1962,3.1355,3.1092,3.6056,3.4396,3.1125,2.9762,2.9494,2.8381,2.8271,2.8926,2.8572,2.8704,2.9284,2.9882,3.0278,3.0838,3.4565,0.0,4.2328,4.4166,4.7895,5.2821,5.2915,5.4454,5.6912,5.611,5.5695,5.5695,5.2561,5.0666,4.9983,4.8087,4.6384,4.4574,4.1688,3.9853,3.9517,4.1686,4.4936,4.9071,5.4135,5.9594,6.5407,7.2202,7.6462,7.8127,7.8726,7.8821,7.8541,7.6357,7.417,7.1809,6.4205,5.3375,3.9001,0.0,0.0,0.0,0.0,0.0,0.0,0.0,0.0,0.0,0.0,0.0,0.0,0.0,0.0,2.6985,3.1281,0.0,3.446,3.4891,0.0,0.0,0.0,3.5652,3.5652,3.4891,3.4767,3.5647,0.0,0.0,3.6265,3.6919,3.7691,3.8458,3.9372,4.028,4.107,4.107,4.1219,4.1479,4.043,3.9335,3.8537,3.7004,3.5173,3.3124,3.2651,3.2386,3.176,3.2026,3.2201,3.2057,3.2455,3.2825,3.2853,3.292,3.2671,3.1641,3.194,3.2104,3.1636,3.1959,3.2495,3.2529,2.8627,2.7305,2.6439,2.5992,2.5834,2.5834,2.6124,2.6308,2.6251,2.6299,2.6744,2.6768,2.666,2.8859,0.0,0.0,0.0,3.9301,4.3069,4.4185,4.6023,4.8248,4.8301,4.8351,4.8206,4.6295,4.5258,4.4982,4.3697,4.0376,3.5353,0.0,0.0,3.4861,3.7915,4.1908,4.6819,5.2192,5.8175,6.4545,6.9992,7.402,7.6539,7.6986,7.6314,7.4609,7.2275,6.8655,6.3617,5.6247,4.4218,0.0,0.0,0.0,0.0,0.0,0.0,0.0,0.0,0.0,0.0,0.0,-1.3053,-0.1961,0.0,0.0,0.0,3.1992,3.3911,3.3746,3.453,0.0,0.0,0.0,0.0,0.0,0.0,0.0,3.605,3.5927,3.6053,3.637,3.8027,3.9557,4.0503,4.133,4.2074,4.2813,0.0,4.3254,4.3254,4.2772,4.2142,4.1102,3.9751,3.8079,3.623,3.4333,3.2884,3.2131,3.2124,3.2417,3.2599,3.2719,3.2893,3.272,3.3271,3.3619,3.2975,3.2858,3.2833,3.2805,3.2716,3.3414,2.7776,0.0,0.0,0.0,0.0,2.3322,2.3602,2.3778,2.4384,2.4446,2.4084,2.4373,0.0,0.0,0.0,0.0,0.0,0.0,3.2224,3.4602,3.638,3.8229,4.0165,4.0819,4.1369,4.1701,4.0518,3.9951,3.9774,3.8306,3.4701,2.9221,0.0,0.0,0.0,0.0,3.9044,4.4273,5.0157,5.6536,6.3295,6.753,7.1213,7.4237,7.4686,7.38,7.1237,6.7747,6.238,5.507,4.6133,0.0,0.0,0.0,0.0,0.0,0.0,0.0,0.0,0.0,0.0,0.0,0.0,0.0,0.0,0.0,0.0,0.0,0.0,0.0,3.399,3.4601,3.5364,0.0,0.0,0.0,0.0,0.0,0.0,0.0,0.0,0.0,3.6805,3.9095,4.0995,0.0,0.0,4.3401,4.4276,4.4855,4.4999,4.4855,4.4668,0.0,4.3172,4.1994,4.0542,3.8879,3.642,3.4236,3.2875,3.2639,3.2596,3.2881,3.2982,3.3121,3.2987,3.3652,3.4139,3.3972,3.3639,3.3533,3.4021,3.4052,3.4728,0.0,0.0,0.0,0.0,0.0,0.0,0.0,0.0,2.2504,2.2898,0.0,2.2894,0.0,0.0,0.0,0.0,2.404,2.5914,0.0,0.0,3.0022,3.1439,3.3203,3.4008,3.5244,3.6576,3.5207,3.444,3.4266,3.1112,0.0,0.0,0.0,0.0,0.0,0.0,3.6082,4.1585,4.7993,5.4243,6.0517,6.4822,6.8441,7.1234,7.2055,7.1443,6.9333,6.306,5.5711,4.7147,3.296,0.0,0.0,0.0,0.0,0.0,0.0,0.0,0.0,0.0,0.0,0.0,0.0,0.0,0.0,0.0,0.0,0.0,0.0,0.0,0.0,3.533,0.0,0.0,0.0,0.0,0.0,0.0,0.0,0.0,0.0,0.0,3.7649,3.9804,4.1573,4.2082,0.0,0.0,0.0,0.0,4.6003,4.6288,4.6003,4.5574,4.4711,4.3693,4.2222,4.028,0.0,0.0,3.4297,3.3506,3.303,3.2583,3.2945,3.3463,3.3703,3.403,3.4297,3.3855,3.4013,3.4366,3.4625,3.5564,3.6835,0.0,0.0,0.0,0.0,0.0,0.0,0.0,0.0,0.0,1.9934,2.0478,2.015,0.0,0.0,0.0,0.0,0.0,0.0,0.0,0.0,2.6034,2.7386,2.8489,2.9532,3.058,0.0,3.0933,2.9583,0.0,0.0,0.0,0.0,0.0,0.0,0.0,0.0,3.4514,4.0848,4.7289,5.4005,6.1214,6.5639,6.8974,7.1513,7.1217,6.8387,6.3095,5.5843,4.7287,0.0,0.0,0.0,0.0,0.0,0.0,0.0,0.0,0.0,0.0,0.0,0.0,0.0,0.0,0.0,0.0,0.0,0.0,0.0,0.0,0.0,0.0,0.0,3.4024,0.0,0.0,0.0,0.0,0.0,0.0,0.0,0.0,0.0,3.9818,4.0556,4.1628,4.3333,4.3607,4.4216,4.5488,0.0,0.0,0.0,0.0,0.0,0.0,0.0,4.4276,4.2222,4.0842,3.9297,3.7039,3.5236,3.3725,3.2811,0.0,0.0,3.3867,3.4165,3.4335,3.3919,3.4219,3.4539,3.5168,3.6074,3.7383,0.0,0.0,0.0,0.0,0.0,0.0,0.0,0.0,0.0,1.7929,1.8442,0.0,0.0,0.0,0.0,0.0,0.0,0.0,0.0,0.0,0.0,0.0,2.375,2.4709,0.0,0.0,0.0,0.0,0.0,0.0,0.0,0.0,0.0,0.0,0.0,0.0,3.3497,3.9825,4.6306,5.3177,6.0493,6.4698,6.7961,7.0216,6.9521,6.6342,6.0616,0.0,0.0,0.0,0.0,0.0,0.0,0.0,0.0,0.0,0.0,0.0,0.0,0.0,0.0,0.0,0.0,0.0,0.0,0.0,0.0,0.0,0.0,0.0,0.0,0.0,3.3409,0.0,0.0,0.0,0.0,0.0,0.0,0.0,0.0,0.0,0.0,0.0,4.1707,4.3775,4.3973,4.4536,4.573,4.6146,4.6475,0.0,0.0,0.0,0.0,0.0,0.0,0.0,0.0,0.0,0.0,0.0,0.0,0.0,0.0,3.4231,3.4325,3.4574,3.4715,3.446,0.0,0.0,0.0,0.0,0.0,0.0,0.0,0.0,0.0,0.0,0.0,0.0,0.0,0.0,0.0,1.7485,0.0,0.0,1.7008,0.0,0.0,0.0,0.0,0.0,0.0,0.0,0.0,0.0,0.0,0.0,0.0,0.0,0.0,0.0,0.0,0.0,0.0,0.0,0.0,0.0,0.0,3.2981,3.842,4.5234,5.1656,5.7875,6.2019,6.5235,6.7082,6.692,6.5479,6.2438,0.0,0.0,0.0,0.0,0.0,0.0,0.0,0.0,0.0,0.0,0.0,0.0,0.0,0.0,0.0,0.0,0.0,0.0,0.0,0.0,0.0,0.0,0.0,0.0,0.0,0.0,3.4315,3.5422,3.6688,0.0,0.0,0.0,0.0,0.0,0.0,0.0,0.0,0.0,4.3344,4.3906,4.4632,4.5686,4.6146,4.6288,4.6475,4.6758,4.69,4.6617,4.6475,4.5861,0.0,0.0,0.0,0.0,0.0,0.0,0.0,0.0,0.0,0.0,0.0,0.0,0.0,0.0,0.0,0.0,0.0,0.0,0.0,0.0,0.0,0.0,0.0,0.0,0.0,0.0,0.0,0.0,0.0,0.0,0.0,0.0,0.0,0.0,0.0,0.0,0.0,0.0,0.0,0.0,0.0,0.0,0.0,0.0,0.0,0.0,0.0,0.0,0.0,0.0,0.0,0.0,0.0,0.0,3.316,3.8346,4.5471,5.2274,5.873,6.2731,6.541,6.6877,6.6007,6.3644,0.0,0.0,0.0,0.0,0.0,0.0,0.0,0.0,0.0,0.0,0.0,0.0,0.0,0.0,0.0,0.0,0.0,0.0,0.0,0.0,0.0,0.0,0.0,0.0,0.0,0.0,0.0,0.0,3.4607,3.5935,3.7855,0.0,0.0,0.0,0.0,0.0,0.0,0.0,0.0,0.0,0.0,4.3497,4.4029,4.4715,4.5143,4.5287,4.5574,4.6003,4.6475,4.6475,4.5927,4.4568,0.0,0.0,0.0,0.0,0.0,0.0,0.0,0.0,0.0,0.0,0.0,0.0,0.0,0.0,0.0,0.0,0.0,0.0,0.0,0.0,0.0,0.0,0.0,0.0,0.0,0.0,0.0,0.0,0.0,0.0,0.0,0.0,0.0,0.0,0.0,0.0,0.0,0.0,0.0,0.0,0.0,0.0,0.0,0.0,0.0,0.0,0.0,0.0,0.0,0.0,0.0,0.0,0.0,3.3604,3.8718,4.5734,5.246,5.8806,6.2738,6.522,6.6415,6.4704,6.1201,0.0,0.0,0.0,0.0,0.0,0.0,0.0,0.0,0.0,0.0,0.0,0.0,0.0,0.0,0.0,0.0,0.0,0.0,0.0,0.0,0.0,0.0,0.0,0.0,0.0,0.0,0.0,0.0,3.3263,3.4414,3.601,0.0,0.0,0.0,0.0,0.0,0.0,0.0,0.0,0.0,0.0,4.2271,4.2678,4.3208,0.0,0.0,4.4421,4.4727,4.524,4.5479,4.527,4.4031,4.3596,0.0,0.0,0.0,0.0,0.0,0.0,0.0,0.0,0.0,0.0,0.0,0.0,0.0,0.0,0.0,0.0,0.0,0.0,0.0,0.0,0.0,0.0,0.0,0.0,0.0,0.0,0.0,0.0,0.0,0.0,0.0,0.0,0.0,0.0,0.0,0.0,0.0,0.0,0.0,0.0,0.0,0.0,0.0,0.0,0.0,0.0,0.0,0.0,0.0,0.0,0.0,0.0,0.0,3.9298,4.5839,5.2391,5.8642,6.2362,6.4743,6.5539,6.3246,5.8504,0.0,0.0,0.0,0.0,0.0,0.0,0.0,0.0,0.0,0.0,0.0,0.0,0.0,0.0,0.0,0.0,0.0,0.0,0.0,0.0,0.0,0.0,0.0,0.0,0.0,0.0,0.0,0.0,0.0,0.0,0.0,0.0,0.0,0.0,0.0,0.0,0.0,0.0,0.0,0.0,0.0,4.0702,4.1165,4.1349,4.1674,0.0,4.2943,4.3195,4.3169,4.3643,4.3851,4.2939,0.0,0.0,0.0,0.0,0.0,0.0,0.0,0.0,0.0,0.0,0.0,0.0,0.0,0.0,0.0,0.0,0.0,0.0,0.0,0.0,0.0,0.0,0.0,0.0,0.0,0.0,0.0,0.0,0.0,0.0,0.0,0.0,0.0,0.0,0.0,0.0,0.0,0.0,0.0,0.0,0.0,0.0,0.0,0.0,0.0,0.0,0.0,0.0,0.0,0.0,0.0,0.0,0.0,0.0,4.0079,4.6458,5.2828,5.9239,6.3862,6.5768,6.4799,6.2652,0.0,0.0,0.0,0.0,0.0,0.0,0.0,0.0,0.0,0.0,0.0,0.0,0.0,0.0,0.0,0.0,0.0,0.0,0.0,0.0,0.0,0.0,0.0,0.0,0.0,0.0,0.0,2.8543,0.0,0.0,0.0,0.0,0.0,0.0,0.0,0.0,0.0,0.0,0.0,0.0,0.0,0.0,3.8612,3.8461,3.89,3.9414,0.0,0.0,4.0137,4.101,4.1658,4.1908,0.0,0.0,0.0,0.0,0.0,0.0,0.0,0.0,0.0,0.0,0.0,0.0,0.0,0.0,0.0,0.0,0.0,0.0,0.0,0.0,0.0,0.0,0.0,0.0,0.0,0.0,0.0,0.0,0.0,0.0,0.0,0.0,0.0,0.0,0.0,0.0,0.0,0.0,0.0,0.0,0.0,0.0,0.0,0.0,0.0,0.0,0.0,0.0,0.0,0.0,0.0,0.0,0.0,0.0,3.6041,4.1096,4.6684,5.2804,5.9371,6.4144,6.564,6.3854,6.1105,5.4365,0.0,0.0,0.0,0.0,0.0,0.0,0.0,0.0,0.0,0.0,0.0,0.0,0.0,0.0,0.0,0.0,0.0,0.0,0.0,0.0,0.0,0.0,0.0,0.0,0.0,0.0,0.0,0.0,0.0,0.0,0.0,0.0,0.0,0.0,0.0,0.0,0.0,0.0,0.0,0.0,0.0,0.0,3.6437,3.6875,0.0,0.0,0.0,3.7742,3.8603,0.0,0.0,0.0,0.0,0.0,0.0,0.0,0.0,0.0,0.0,0.0,0.0,0.0,0.0,0.0,0.0,0.0,0.0,0.0,0.0,0.0,0.0,0.0,0.0,0.0,0.0,0.0,0.0,0.0,0.0,0.0,0.0,0.0,0.0,0.0,0.0,0.0,0.0,0.0,0.0,0.0,0.0,0.0,0.0,0.0,0.0,0.0,0.0,0.0,0.0,0.0,0.0,0.0,0.0,0.0,0.0,0.0,4.241,4.705,5.2682,5.9383,6.4084,6.529,6.2853,5.9258,5.1325,0.0,0.0,0.0,0.0,0.0,0.0,0.0,0.0,0.0,0.0,0.0,0.0,0.0,0.0,0.0,0.0,0.0,0.0,0.0,0.0,0.0,0.0,0.0,0.0,0.0,0.0,0.0,0.0,0.0,0.0,0.0,0.0,0.0,0.0,0.0,0.0,0.0,0.0,0.0,0.0,0.0,3.4402,3.464,3.4724,3.4842,0.0,0.0,3.5499,3.5907,3.6437,0.0,0.0,0.0,0.0,0.0,0.0,0.0,0.0,0.0,0.0,0.0,0.0,0.0,0.0,0.0,0.0,0.0,0.0,0.0,0.0,0.0,0.0,0.0,0.0,0.0,0.0,0.0,0.0,0.0,0.0,0.0,0.0,0.0,0.0,0.0,0.0,0.0,0.0,0.0,0.0,0.0,0.0,0.0,0.0,0.0,0.0,0.0,0.0,0.0,0.0,0.0,0.0,0.0,0.0,0.0,0.0,4.3862,4.8338,5.4034,6.1107,6.5084,6.5788,6.3166,5.881,5.0023,0.0,0.0,0.0,0.0,0.0,0.0,0.0,0.0,0.0,0.0,0.0,0.0,0.0,0.0,0.0,0.0,0.0,0.0,0.0,0.0,0.0,0.0,0.0,0.0,0.0,0.0,0.0,0.0,0.0,0.0,0.0,0.0,0.0,0.0,0.0,0.0,0.0,0.0,0.0,0.0,0.0,3.1327,3.1511,3.1625,0.0,0.0,0.0,0.0,3.2945,3.3586,0.0,0.0,0.0,0.0,0.0,0.0,0.0,0.0,0.0,0.0,0.0,0.0,0.0,0.0,0.0,0.0,0.0,0.0,0.0,0.0,0.0,0.0,0.0,0.0,0.0,0.0,0.0,0.0,0.0,0.0,0.0,0.0,0.0,0.0,0.0,0.0,0.0,0.0,0.0,0.0,0.0,0.0,0.0,0.0,0.0,0.0,0.0,0.0,0.0,0.0,0.0,0.0,0.0,0.0,0.0,0.0,4.5084,4.9011,5.3975,5.9871,6.3585,6.3944,6.0845,5.6306,4.7957,0.0,0.0,0.0,0.0,0.0,0.0,0.0,0.0,0.0,0.0,0.0,0.0,0.0,0.0,0.0,0.0,0.0,0.0,0.0,0.0,0.0,0.0,0.0,0.0,0.0,0.0,0.0,0.0,0.0,0.0,0.0,0.0,0.0,0.0,0.0,0.0,0.0,0.0,0.0,0.0,2.8248,2.8613,2.8988,0.0,0.0,0.0,0.0,0.0,0.0,3.0628,3.1301,0.0,0.0,0.0,0.0,0.0,0.0,0.0,0.0,0.0,0.0,0.0,0.0,0.0,0.0,0.0,0.0,0.0,0.0,0.0,0.0,0.0,0.0,0.0,0.0,0.0,0.0,0.0,0.0,0.0,0.0,0.0,0.0,0.0,0.0,0.0,0.0,0.0,0.0,0.0,0.0,0.0,0.0,0.0,0.0,0.0,0.0,0.0,0.0,0.0,0.0,0.0,0.0,0.0,0.0,0.0,4.634,4.9438,5.3344,5.7979,6.1035,6.11,5.781,5.333,4.5978,3.576,0.0,0.0,0.0,0.0,0.0,0.0,0.0,0.0,0.0,0.0,0.0,0.0,0.0,0.0,0.0,0.0,0.0,0.0,0.0,0.0,0.0,0.0,0.0,0.0,0.0,0.0,0.0,0.0,0.0,0.0,0.0,0.0,0.0,0.0,0.0,0.0,0.0,0.0,0.0,2.5963,2.6064,0.0,0.0,0.0,0.0,0.0,0.0,0.0,0.0,2.8095,0.0,0.0,0.0,0.0,0.0,0.0,0.0,0.0,0.0,0.0,0.0,0.0,0.0,0.0,0.0,0.0,0.0,0.0,0.0,0.0,0.0,0.0,0.0,0.0,0.0,0.0,0.0,0.0,0.0,0.0,0.0,0.0,0.0,0.0,0.0,0.0,0.0,0.0,0.0,0.0,0.0,0.0,0.0,0.0,0.0,0.0,0.0,0.0,0.0,0.0,0.0,0.0,0.0,0.0,0.0,0.0,4.9572,5.2897,5.7591,5.893,5.8598,5.6634,5.1708,4.594,3.949,0.0,0.0,0.0,0.0,0.0,0.0,0.0,0.0,0.0,0.0,0.0,0.0,0.0,0.0,0.0,0.0,0.0,0.0,0.0,0.0,0.0,0.0,0.0,0.0,0.0,0.0,0.0,0.0,0.0,0.0,0.0,0.0,0.0,0.0,0.0,0.0,0.0,0.0,2.3576,2.3793,0.0,0.0,0.0,0.0,0.0,0.0,0.0,0.0,2.5092,0.0,0.0,0.0,0.0,0.0,0.0,0.0,0.0,0.0,0.0,0.0,0.0,0.0,0.0,0.0,0.0,0.0,0.0,0.0,0.0,0.0,0.0,0.0,0.0,0.0,0.0,0.0,0.0,0.0,0.0,0.0,0.0,0.0,0.0,0.0,0.0,0.0,0.0,0.0,0.0,0.0,0.0,0.0,0.0,0.0,0.0,0.0,0.0,0.0,0.0,0.0,0.0,0.0,0.0,0.0,0.0,0.0,0.0,5.1407,5.3413,5.4658,5.4626,5.3366,4.9545,4.5262,0.0,0.0,0.0,0.0,0.0,0.0,0.0,0.0,0.0,0.0,0.0,0.0,0.0,0.0,0.0,0.0,0.0,0.0,0.0,0.0,0.0,0.0,0.0,0.0,0.0,0.0,0.0,0.0,0.0,0.0,0.0,0.0,0.0,0.0,0.0,0.0,0.0,0.0,0.0,0.0,0.0,0.0,0.0,0.0,0.0,0.0,0.0,0.0,0.0,0.0,0.0,0.0,0.0,0.0,0.0,0.0,0.0,0.0,0.0,0.0,0.0,0.0,0.0,0.0,0.0,0.0,0.0,0.0,0.0,0.0,0.0,0.0,0.0,0.0,0.0,0.0,0.0,0.0,0.0,0.0,0.0,0.0,0.0,0.0,0.0,0.0,0.0,0.0,0.0,0.0,0.0,0.0,0.0,0.0,0.0,0.0,0.0,0.0,0.0,0.0,0.0,0.0,0.0,0.0,0.0,0.0,0.0,0.0,5.0005,5.0221,5.1023,5.1112,5.0273,4.8128,4.5554,0.0,0.0,0.0,0.0,0.0,0.0,0.0,0.0,0.0,0.0,0.0,0.0,0.0,0.0,0.0,0.0,0.0,0.0,0.0,0.0,0.0,0.0,0.0,0.0,0.0,0.0,0.0,0.0,0.0,0.0,0.0,0.0,0.0,0.0,0.0,0.0,0.0,0.0,0.0,0.0,0.0,0.0,0.0,0.0,0.0,0.0,0.0,0.0,2.02,0.0,0.0,0.0,0.0,0.0,0.0,0.0,0.0,0.0,0.0,0.0,0.0,0.0,0.0,0.0,0.0,0.0,0.0,0.0,0.0,0.0,0.0,0.0,0.0,0.0,0.0,0.0,0.0,0.0,0.0,0.0,0.0,0.0,0.0,0.0,0.0,0.0,0.0,0.0,0.0,0.0,0.0,0.0,0.0,0.0,0.0,0.0,0.0,0.0,0.0,0.0,0.0,0.0,0.0,0.0,0.0,0.0,0.0,0.0,4.9913,5.1224,5.0826,4.9864,4.8721,4.8983,4.8119,0.0,0.0,0.0,0.0,0.0,0.0,0.0,0.0,0.0,0.0,0.0,0.0,0.0,0.0,0.0,0.0,0.0,0.0,0.0,0.0,0.0,0.0,0.0,0.0,0.0,0.0,0.0,0.0,0.0,0.0,0.0,0.0,0.0,0.0,0.0,0.0,0.0,0.0,0.0,0.0,0.0,0.0,0.0,0.0,0.0,0.0,0.0,0.0,0.0,0.0,0.0,0.0,0.0,0.0,0.0,0.0,0.0,0.0,0.0,0.0,0.0,0.0,0.0,0.0,0.0,0.0,0.0,0.0,0.0,0.0,0.0,0.0,0.0,0.0,0.0,0.0,0.0,0.0,0.0,0.0,0.0,0.0,0.0,0.0,0.0,0.0,0.0,0.0,0.0,0.0,0.0,0.0,0.0,0.0,0.0,0.0,0.0,0.0,0.0,0.0,0.0,0.0,0.0,0.0,0.0,0.0,0.0,0.0,4.9748,4.8968,4.9645,5.0238,5.0654,4.9675,4.8622,0.0,0.0,0.0,0.0,0.0,0.0,0.0,0.0,0.0,0.0,0.0,0.0,0.0,0.0,0.0,0.0,0.0,0.0,0.0,0.0,0.0,0.0,0.0,0.0,0.0,0.0,0.0,0.0,0.0,0.0,0.0,0.0,0.0,0.0,0.0,0.0,0.0,0.0,0.0,0.0,0.0,0.0,0.0,0.0,0.0,0.0,0.0,0.0,0.0,0.0,0.0,0.0,0.0,0.0,0.0,0.0,0.0,0.0,0.0,0.0,0.0,0.0,0.0,0.0,0.0,0.0,0.0,0.0,0.0,0.0,0.0,0.0,0.0,0.0,0.0,0.0,0.0,0.0,0.0,0.0,0.0,0.0,0.0,0.0,0.0,0.0,0.0,0.0,0.0,0.0,0.0,0.0,0.0,0.0,0.0,0.0,0.0,0.0,0.0,0.0,0.0,0.0,0.0,0.0,0.0,0.0,0.0,0.0,0.0,4.924,5.06,5.167,5.206,5.0796,4.9729,0.0,0.0,0.0,0.0,0.0,0.0,0.0,0.0,0.0,0.0,0.0,0.0,0.0,0.0,0.0,0.0,0.0,0.0,0.0,0.0,0.0,0.0,0.0,0.0,0.0,0.0,0.0,0.0,0.0,0.0,0.0,0.0,0.0,0.0,0.0,0.0,0.0,0.0,0.0,0.0,0.0,0.0,0.0,0.0,0.0,0.0,0.0,0.0,0.0,0.0,0.0,0.0,0.0,0.0,0.0,0.0,0.0,0.0,0.0,0.0,0.0,0.0,0.0,0.0,0.0,0.0,0.0,0.0,0.0,0.0,0.0,0.0,0.0,0.0,0.0,0.0,0.0,0.0,0.0,0.0,0.0,0.0,0.0,0.0,0.0,0.0,0.0,0.0,0.0,0.0,0.0,0.0,0.0,0.0,0.0,0.0,0.0,0.0,0.0,0.0,0.0,0.0,0.0,0.0,0.0,0.0,0.0,0.0,0.0,5.4362,5.5135,5.4385,5.1965,5.2935,5.2112,0.0,0.0,0.0,0.0,0.0,0.0,0.0,0.0,0.0,0.0,0.0,0.0,0.0,0.0,0.0,0.0,0.0,0.0,0.0,0.0,0.0,0.0,0.0,0.0,0.0,0.0,0.0,0.0,0.0,0.0,0.0,0.0,0.0,0.0,0.0,0.0,0.0,0.0,0.0,0.0,0.0,0.0,0.0,0.0,0.0,0.0,0.0,0.0,0.0,0.0,0.0,0.0,0.0,0.0,0.0,0.0,0.0,0.0,0.0,0.0,0.0,0.0,0.0,0.0,0.0,0.0,0.0,0.0,0.0,0.0,0.0,0.0,0.0,0.0,0.0,0.0,0.0,0.0,0.0,0.0,0.0,0.0,0.0,0.0,0.0,0.0,0.0,0.0,0.0,0.0,0.0,0.0,0.0,0.0,0.0,0.0,0.0,0.0,0.0,0.0,0.0,0.0,0.0,0.0,0.0,0.0,0.0,0.0,0.0,5.7261,5.6345,5.5814,5.5981,5.391,5.2307,5.1324,0.0,0.0,0.0,0.0,0.0,0.0,0.0,0.0,0.0,0.0,0.0,0.0,0.0,0.0,0.0,0.0,0.0,0.0,0.0,0.0,0.0,0.0,0.0,0.0,0.0,0.0,0.0,0.0,0.0,0.0,0.0,0.0,0.0,0.0,0.0,0.0,0.0,0.0,0.0,0.0,0.0,0.0,0.0,0.0,0.0,0.0,0.0,0.0,0.0,0.0,0.0,0.0,0.0,0.0,0.0,0.0,0.0,0.0,0.0,0.0,0.0,0.0,0.0,0.0,0.0,0.0,0.0,0.0,0.0,0.0,0.0,0.0,0.0,0.0,0.0,0.0,0.0,0.0,0.0,0.0,0.0,0.0,0.0,0.0,0.0,0.0,0.0,0.0,0.0,0.0,0.0,0.0,0.0,0.0,0.0,0.0,0.0,0.0,0.0,0.0,0.0,0.0,0.0,0.0,0.0,0.0,0.0,0.0,5.8256,5.687,5.653,5.7355,5.4559,5.275,0.0,0.0,0.0,0.0,0.0,0.0,0.0,0.0,0.0,0.0,0.0,0.0,0.0,0.0,0.0,0.0,0.0,0.0,0.0,0.0,0.0,0.0,0.0,0.0,0.0,0.0,0.0,0.0,0.0,0.0,0.0,0.0,0.0,0.0,0.0,0.0,0.0,0.0,0.0,0.0,0.0,0.0,0.0,0.0,0.0,0.0,0.0,0.0,0.0,0.0,0.0,0.0,0.0,0.0,0.0,0.0,0.0,0.0,0.0,0.0,0.0,0.0,0.0,0.0,0.0,0.0,0.0,0.0,0.0,0.0,0.0,0.0,0.0,0.0,0.0,0.0,0.0,0.0,0.0,0.0,0.0,0.0,0.0,0.0,0.0,0.0,0.0,0.0,0.0,0.0,0.0,0.0,0.0,0.0,0.0,0.0,0.0,0.0,0.0,0.0,0.0,0.0,0.0,0.0,0.0,0.0,0.0,0.0,5.6372,5.7076,5.717,5.6567,5.5301,5.4974,5.34,0.0,0.0,0.0,0.0,0.0,0.0,0.0,0.0,0.0,0.0,0.0,0.0,0.0,0.0,0.0,0.0,0.0,0.0,0.0,0.0,0.0,0.0,0.0,0.0,0.0,0.0,0.0,0.0,0.0,0.0,0.0,0.0,0.0,0.0,0.0,0.0,0.0,0.0,0.0,0.0,0.0,0.0,0.0,0.0,0.0,0.0,0.0,0.0,0.0,0.0,0.0,0.0,0.0,0.0,0.0,0.0,0.0,0.0,0.0,0.0,0.0,0.0,0.0,0.0,0.0,0.0,0.0,0.0,0.0,0.0,0.0,0.0,0.0,0.0,0.0,0.0,0.0,0.0,0.0,0.0,0.0,0.0,0.0,0.0,0.0,0.0,0.0,0.0,0.0,0.0,0.0,0.0,0.0,0.0,0.0,0.0,0.0,0.0,0.0,0.0,0.0,0.0,0.0,0.0,0.0,0.0,0.0,0.0,0.0,5.4277,0.0,5.558,0.0,5.3234,5.1414,0.0,0.0,0.0,0.0,0.0,0.0,0.0,0.0,0.0,0.0,0.0,0.0,0.0,0.0,0.0,0.0,0.0,0.0,0.0,0.0,0.0,0.0,0.0,0.0,0.0,0.0,0.0,0.0,0.0,0.0,0.0,0.0,0.0,0.0,0.0,0.0,0.0,0.0,0.0,0.0,0.0,0.0,0.0,0.0,0.0,0.0,0.0,0.0,0.0,0.0,0.0,0.0,0.0,0.0,0.0,0.0,0.0,0.0,0.0,0.0,0.0,0.0,0.0,0.0,0.0,0.0,0.0,0.0,0.0,0.0,0.0,0.0,0.0,0.0,0.0,0.0,0.0,0.0,0.0,0.0,0.0,0.0,0.0,0.0,0.0,0.0,0.0,0.0,0.0,0.0,0.0,0.0,0.0,0.0,0.0,0.0,0.0,0.0,0.0,0.0,0.0,0.0,0.0,0.0,0.0,0.0,0.0,0.0,0.0,5.0942,5.2046,5.3091,5.3764,5.1772,4.9974,0.0,0.0,0.0,0.0,0.0,0.0,0.0,0.0,0.0,0.0,0.0,0.0,0.0,0.0,0.0,0.0,0.0,0.0,0.0,0.0,0.0,0.0,0.0,0.0,0.0,0.0,0.0,0.0,0.0,0.0,0.0,0.0,0.0,0.0,0.0,0.0,0.0,0.0,0.0,0.0,0.0,0.0,0.0,0.0,0.0,0.0,0.0,0.0,0.0,0.0,0.0,0.0,0.0,0.0,0.0,0.0,0.0,0.0,0.0,0.0,0.0,0.0,0.0,0.0,0.0,0.0,0.0,0.0,0.0,0.0,0.0,0.0,0.0,0.0,0.0,0.0,0.0,0.0,0.0,0.0,0.0,0.0,0.0,0.0,0.0,0.0,0.0,0.0,0.0,0.0,0.0,0.0,0.0,0.0,0.0,0.0,0.0,0.0,0.0,0.0,0.0,0.0,0.0,0.0,0.0,0.0,0.0,0.0,0.0,0.0,4.8216,4.9295,5.0377,5.0312,4.8881,0.0,0.0,0.0,0.0,0.0,0.0,0.0,0.0,0.0,0.0,0.0,0.0,0.0,0.0,0.0,0.0,0.0,0.0,0.0,0.0,0.0,0.0,0.0,0.0,0.0,0.0,0.0,0.0,0.0,0.0,0.0,0.0,0.0,0.0,0.0,0.0,0.0,0.0,0.0,0.0,0.0,0.0,0.0,0.0,0.0,0.0,0.0,0.0,0.0,0.0,0.0,0.0,0.0,0.0,0.0,0.0,0.0,0.0,0.0,0.0,0.0,0.0,0.0,0.0,0.0,0.0,0.0,0.0,0.0,0.0,0.0,0.0,0.0,0.0,0.0,0.0,0.0,0.0,0.0,0.0,0.0,0.0,0.0,0.0,0.0,0.0,0.0,0.0,0.0,0.0,0.0,0.0,0.0,0.0,0.0,0.0,0.0,0.0,0.0,0.0,0.0,0.0,0.0,0.0,0.0,0.0,0.0,0.0,0.0,0.0,4.4415,0.0,4.529,4.4348,4.3601,4.3012,0.0,0.0,0.0,0.0,0.0,0.0,0.0,0.0,0.0,0.0,0.0,0.0,0.0,0.0,0.0,0.0,0.0,0.0,0.0,0.0,0.0,0.0,0.0,0.0,0.0,0.0,0.0,0.0,0.0,0.0,0.0,0.0,0.0,0.0,0.0,0.0,0.0,0.0,0.0,0.0,0.0,0.0,0.0,0.0,0.0,0.0,0.0,0.0,0.0,0.0,0.0,0.0,0.0,0.0,0.0,0.0,0.0,0.0,0.0,0.0,0.0,0.0,0.0,0.0,0.0,0.0,0.0,0.0,0.0,0.0,0.0,0.0,0.0,0.0,0.0,0.0,0.0,0.0,0.0,0.0,0.0,0.0,0.0,0.0,0.0,0.0,0.0,0.0,0.0,0.0,0.0,0.0,0.0,0.0,0.0,0.0,0.0,0.0,0.0,0.0,0.0,0.0,0.0,0.0,0.0,0.0,0.0,0.0,0.0,0.0,4.1195,4.1434,4.0856,4.0344,0.0,0.0,0.0,0.0,0.0,0.0,0.0,0.0,0.0,0.0,0.0,0.0,0.0,0.0,0.0,0.0,0.0,0.0,0.0,0.0,0.0,0.0,0.0,0.0,0.0,0.0,0.0,0.0,0.0,0.0,0.0,0.0,0.0,0.0,0.0,0.0,0.0,0.0,0.0,0.0,0.0,0.0,0.0,0.0,0.0,0.0,0.0,0.0,0.0,0.0,0.0,0.0,0.0,0.0,0.0,0.0,0.0,0.0,0.0,0.0,0.0,0.0,0.0,0.0,0.0,0.0,0.0,0.0,0.0,0.0,0.0,0.0,0.0,0.0,0.0,0.0,0.0,0.0,0.0,0.0,0.0,0.0,0.0,0.0,0.0,0.0,0.0,0.0,0.0,0.0,0.0,0.0,0.0,0.0,0.0,0.0,0.0,0.0,0.0,0.0,0.0,0.0,0.0,0.0,0.0,0.0,0.0,0.0,0.0,0.0,0.0,3.7761,3.8263,3.8711,0.0,3.7,0.0,0.0,0.0,0.0,0.0,0.0,0.0,0.0,0.0,0.0,0.0,0.0,0.0,0.0,0.0,0.0,0.0,0.0,0.0,0.0,0.0,0.0,0.0,0.0,0.0,0.0,0.0,0.0,0.0,0.0,0.0,0.0,0.0,0.0,0.0,0.0,0.0,0.0,0.0,0.0,0.0,0.0,0.0,0.0,0.0,0.0,0.0,0.0,0.0,0.0,0.0,0.0,0.0,0.0,0.0,0.0,0.0,0.0,0.0,0.0,0.0,0.0,0.0,0.0,0.0,0.0,0.0,0.0,0.0,0.0,0.0,0.0,0.0,0.0,0.0,0.0,0.0,0.0,0.0,0.0,0.0,0.0,0.0,0.0,0.0,0.0,0.0,0.0,0.0,0.0,0.0,0.0,0.0,0.0,0.0,0.0,0.0,0.0,0.0,0.0,0.0,0.0,0.0,0.0,0.0,0.0,0.0,0.0,0.0,0.0,0.0,0.0,3.5755,3.5307,3.3658,0.0,0.0,0.0,0.0,0.0,0.0,0.0,0.0,0.0,0.0,0.0,0.0,0.0,0.0,0.0,0.0,0.0,0.0,0.0,0.0,0.0,0.0,0.0,0.0,0.0,0.0,0.0,0.0,0.0,0.0,0.0,0.0,0.0,0.0,0.0,0.0,0.0,0.0,0.0,0.0,0.0,0.0,0.0,0.0,0.0,0.0,0.0,0.0,0.0,0.0,0.0,0.0,0.0,0.0,0.0,0.0,0.0,0.0,0.0,0.0,0.0,0.0,0.0,0.0,0.0,0.0,0.0,0.0,0.0,0.0,0.0,0.0,0.0,0.0,0.0,0.0,0.0,0.0,0.0,0.0,0.0,0.0,0.0,0.0,0.0,0.0,0.0,0.0,0.0,0.0,0.0,0.0,0.0,0.0,0.0,0.0,0.0,0.0,0.0,0.0,0.0,0.0,0.0,0.0,0.0,0.0,0.0,0.0,0.0,0.0,3.3175,3.3066,3.2927,3.2411,3.1543,0.0,0.0,0.0,0.0,0.0,0.0,0.0,0.0,0.0,0.0,0.0,0.0,0.0,0.0,0.0,0.0,0.0,0.0,0.0,0.0,0.0,0.0,0.0,0.0,0.0,0.0,0.0,0.0,0.0,0.0,0.0,0.0,0.0,0.0,0.0,0.0,0.0,0.0,0.0,0.0,0.0,0.0,0.0,0.0,0.0,0.0,0.0,0.0,0.0,0.0,0.0,0.0,0.0,0.0,0.0,0.0,0.0,0.0,0.0,0.0,0.0,0.0,0.0,0.0,0.0,0.0,0.0,0.0,0.0,0.0,0.0,0.0,0.0,0.0,0.0,0.0,0.0,0.0,0.0,0.0,0.0,0.0,0.0,0.0,0.0,0.0,0.0,0.0,0.0,0.0,0.0,0.0,0.0,0.0,0.0,0.0,0.0,0.0,0.0,0.0,0.0,0.0,0.0,0.0,0.0,0.0,0.0,0.0,0.0,0.0,0.0,0.0,0.0,0.0,2.9892,0.0,0.0,0.0,0.0,0.0,0.0,0.0,0.0,0.0,0.0,0.0,0.0,0.0,0.0,0.0,0.0,0.0,0.0,0.0,0.0,0.0,0.0,0.0,0.0,0.0,0.0,0.0,0.0,0.0,0.0,0.0,0.0,0.0,0.0,0.0,0.0,0.0,0.0,0.0,0.0,0.0,0.0,0.0,0.0,0.0,0.0,0.0,0.0,0.0,0.0,0.0,0.0,0.0,0.0,0.0,0.0,0.0,0.0,0.0,0.0,0.0,0.0,0.0,0.0,0.0,0.0,0.0,0.0,0.0,0.0,0.0,0.0,0.0,0.0,0.0,0.0,0.0,0.0,0.0,0.0,0.0,0.0,0.0,0.0,0.0,0.0,0.0,0.0,0.0,0.0,0.0,0.0,0.0,0.0,0.0,0.0,0.0,0.0,0.0,0.0,0.0,0.0,0.0,0.0,0.0,0.0,0.0,0.0,0.0,0.0,0.0,0.0,0.0,0.0,0.0,0.0,0.0,0.0,0.0,0.0,0.0,0.0,0.0,0.0,0.0,0.0,0.0,0.0,0.0,0.0,0.0,0.0,0.0,0.0,0.0,0.0,0.0,0.0,0.0,0.0,0.0,0.0,0.0,0.0,0.0,0.0,0.0,0.0,0.0,0.0,0.0,0.0,0.0,0.0,0.0,0.0,0.0,0.0,0.0,0.0,0.0,0.0,0.0,0.0,0.0,0.0,0.0,0.0,0.0,0.0,0.0,0.0,0.0,0.0,0.0,0.0,0.0,0.0,0.0,0.0,0.0,0.0,0.0,0.0,0.0,0.0,0.0,0.0,0.0,0.0,0.0,0.0,0.0,0.0,0.0,0.0,0.0,0.0,0.0,0.0,0.0,0.0,0.0,0.0,0.0,0.0,0.0,0.0,0.0,0.0,0.0,0.0,0.0,0.0,0.0,0.0,0.0,0.0,0.0,0.0,0.0,0.0,0.0,0.0,0.0,0.0,0.0,0.0,0.0,0.0,0.0,0.0,0.0,0.0,0.0,0.0,0.0,0.0,0.0,0.0,0.0,0.0,0.0,0.0,0.0,0.0,0.0,0.0,0.0,0.0,0.0,0.0,0.0,0.0,0.0,0.0,0.0,0.0,0.0,0.0,0.0,0.0,0.0,0.0,0.0,0.0,0.0,0.0,0.0,0.0,0.0,0.0,0.0,0.0,0.0,0.0,0.0,0.0,0.0,0.0,0.0,0.0,0.0,0.0,0.0,0.0,0.0,0.0,0.0,0.0,0.0,0.0,0.0,0.0,0.0,0.0,0.0,0.0,0.0,0.0,0.0,0.0,0.0,0.0,0.0,0.0,0.0,0.0,0.0,0.0,0.0,0.0,0.0,0.0,0.0,0.0,0.0,0.0,0.0,0.0,0.0,0.0,0.0,0.0,0.0,0.0,0.0,0.0,0.0,0.0,0.0,0.0,0.0,0.0,0.0,0.0,0.0,0.0,0.0,0.0,0.0,0.0,0.0,0.0,0.0,0.0,0.0,0.0,0.0,0.0,0.0,0.0,0.0,0.0,0.0,0.0,0.0,0.0,0.0,0.0,0.0,0.0,0.0,0.0,0.0,0.0,0.0,0.0,0.0,0.0,0.0,0.0,0.0,0.0,0.0,0.0,0.0,0.0,0.0,0.0,0.0,0.0,0.0,0.0,0.0,0.0,0.0,0.0,0.0,0.0,0.0,0.0,0.0,0.0,0.0,0.0,0.0,0.0,0.0,0.0,0.0,0.0,0.0,0.0,0.0,0.0,0.0,0.0,0.0,0.0,0.0,0.0,0.0,0.0,0.0,0.0,0.0,0.0,0.0,0.0,0.0,0.0,0.0,0.0,0.0,0.0,0.0,0.0,0.0,0.0,0.0,0.0,0.0,0.0,0.0,0.0,0.0,0.0,0.0,0.0,0.0,0.0,0.0,0.0,0.0,0.0,0.0,0.0,0.0,0.0,0.0,0.0,0.0,0.0,0.0,0.0,0.0,0.0,0.0,0.0,0.0,0.0,0.0,0.0,0.0,0.0,0.0,0.0,0.0,0.0,0.0,0.0,0.0,0.0,0.0,0.0,0.0,0.0,0.0,0.0,0.0,0.0,0.0,0.0,0.0,0.0,0.0,0.0,0.0,0.0,0.0,0.0,0.0,0.0,0.0,0.0,0.0,0.0,0.0,0.0,0.0,0.0,0.0,0.0,0.0,0.0,0.0,0.0,0.0,0.0,0.0,0.0,0.0,0.0,0.0,0.0,0.0,0.0,0.0,0.0,0.0,0.0,0.0,0.0,0.0,0.0,0.0,0.0,0.0,0.0,0.0,0.0,0.0,0.0,0.0,0.0,0.0,0.0,0.0,0.0,0.0,0.0,0.0,0.0,0.0,0.0,0.0,0.0,0.0,0.0,0.0,0.0,0.0,0.0,0.0,0.0,0.0,0.0,0.0,0.0,0.0,0.0,0.0,0.0,0.0,0.0,0.0,0.0,0.0,0.0,0.0,0.0,0.0,0.0,0.0,0.0,0.0,0.0,0.0,0.0,0.0,0.0,0.0,0.0,0.0,0.0,0.0,0.0,0.0,0.0,0.0,0.0,0.0,0.0,0.0,0.0,0.0,0.0,0.0,0.0,0.0,0.0,0.0,0.0,0.0,0.0,0.0,0.0,0.0,0.0,0.0,0.0,0.0,0.0,0.0,0.0,0.0,0.0,0.0,0.0,0.0,0.0,0.0,0.0,0.0,0.0,0.0,0.0,0.0,0.0,0.0,0.0,0.0,0.0,0.0,0.0,0.0,0.0,0.0,0.0,0.0,0.0,0.0,0.0,0.0,0.0,0.0,0.0,0.0,0.0,0.0,0.0,0.0,0.0,0.0,0.0,0.0,0.0,0.0,0.0,0.0,0.0,0.0,0.0,0.0,0.0,0.0,0.0,0.0,0.0,0.0,0.0,0.0,0.0,0.0,0.0,0.0,0.0,0.0,0.0,0.0,0.0,0.0,0.0,0.0,0.0,0.0,0.0,0.0,0.0,0.0,0.0,0.0,0.0,0.0,0.0,0.0,0.0,0.0,0.0,0.0,0.0,0.0,0.0,0.0,0.0,0.0,0.0,0.0,0.0,0.0,0.0,0.0,0.0,0.0,0.0,0.0,0.0,0.0,0.0,0.0,0.0,0.0,0.0,0.0,0.0,0.0,0.0,0.0,0.0,0.0,0.0,0.0,0.0,0.0,0.0,0.0,0.0,0.0,0.0,0.0,0.0,0.0,0.0,0.0,0.0,0.0,0.0,0.0,0.0,0.0,0.0,0.0,0.0,0.0,0.0,0.0,0.0,0.0,0.0,0.0,0.0,0.0,0.0,0.0,0.0,0.0,0.0,0.0,0.0,0.0,0.0,0.0,0.0,0.0,0.0,0.0,0.0,0.0,0.0,0.0,0.0,0.0,0.0,0.0,0.0,0.0,0.0,0.0,0.0,0.0,0.0,0.0,0.0,0.0,0.0,0.0,0.0,0.0,0.0,0.0,0.0,0.0,0.0,0.0,0.0,0.0,0.0,0.0,0.0,0.0,0.0,0.0,0.0,0.0,0.0,0.0,0.0,0.0,0.0,0.0,0.0,0.0,0.0,0.0,0.0,0.0,0.0,0.0,0.0,0.0,0.0,0.0,0.0,0.0,0.0,0.0,0.0,0.0,0.0,0.0,0.0,0.0,0.0,0.0,0.0,0.0,0.0,0.0,0.0,0.0,0.0,0.0,0.0,0.0,0.0,0.0,0.0,0.0,0.0,0.0,0.0,0.0,0.0,0.0,0.0,0.0,0.0,0.0,0.0,0.0,0.0,0.0,0.0,0.0,0.0,0.0,0.0,0.0,0.0,0.0,0.0,0.0,0.0,0.0,0.0,0.0,0.0,0.0,0.0,0.0,0.0,0.0,0.0,0.0,0.0,0.0,0.0,0.0,0.0,0.0,0.0,0.0,0.0,0.0,0.0,0.0,0.0,0.0,0.0,0.0,0.0,0.0,0.0,0.0,0.0,0.0,0.0,0.0,0.0,0.0,0.0,0.0,0.0,0.0,0.0,0.0,0.0,0.0,0.0,0.0,0.0,0.0,0.0,0.0,0.0,0.0,0.0,0.0,0.0,0.0,0.0,0.0,0.0,0.0,0.0,0.0,0.0,0.0,0.0,0.0,0.0,0.0,0.0,0.0,0.0,0.0,0.0,0.0,0.0,0.0,0.0,0.0,0.0,0.0,0.0,0.0,0.0,0.0,0.0,0.0,0.0,0.0,0.0,0.0,0.0,0.0,0.0,0.0,0.0,0.0,0.0,0.0,0.0,0.0,0.0,0.0,0.0]}]]]